GFSNGP_250_spd_000.txt.gz
Wind_Speed
13 16 17 20 22 24 27 29 32 33 34 37 42 47 52 56 56 57 57 59 63 62 63 63 62 62 64 68 74 79 84 89 96 103 108 113 124 127 128 124 123 123 119 112
17 18 20 24 28 29 31 35 37 36 40 44 48 50 54 60 62 62 61 64 66 68 67 64 63 65 68 74 80 86 93 96 104 110 115 121 128 130 124 123 121 116 111 99
23 25 24 30 31 32 35 39 39 39 45 50 52 56 61 66 66 68 70 72 74 75 72 66 67 70 76 83 89 93 97 103 110 114 119 128 130 125 122 122 117 110 98 92
28 29 26 35 38 38 38 39 40 45 49 52 56 61 65 68 70 71 71 75 78 78 74 72 75 79 85 89 93 98 104 110 114 118 124 130 125 123 122 119 112 101 93 87
30 32 32 36 41 42 39 39 47 50 55 58 61 64 70 71 73 74 74 79 82 80 78 80 82 86 91 95 99 104 110 115 120 125 127 125 124 123 119 112 102 95 88 84
35 37 36 38 44 44 44 43 53 56 61 64 65 67 71 76 77 76 78 83 83 80 81 84 87 91 96 100 105 110 114 122 125 126 123 122 123 119 113 105 97 89 83 78
41 40 38 42 45 47 50 52 56 62 67 70 71 73 76 79 79 80 83 85 82 83 87 89 93 97 101 105 109 115 121 124 124 121 120 122 119 115 107 99 92 84 77 72
44 46 44 46 46 51 57 59 62 66 70 72 75 78 78 78 82 84 87 84 85 89 92 94 99 101 106 110 116 120 123 124 121 119 120 119 114 109 101 95 87 79 73 69
51 51 50 49 53 59 63 65 69 71 73 76 79 80 80 83 85 87 86 87 91 94 97 100 104 106 110 115 119 121 122 122 119 118 117 114 111 103 96 90 81 74 70 67
51 54 57 59 61 66 66 69 73 75 77 79 81 81 84 86 88 88 89 92 95 98 102 106 110 113 115 118 121 120 119 117 115 115 113 111 106 97 90 83 75 71 68 64
57 60 61 65 69 69 71 74 78 81 81 83 83 87 88 89 90 90 94 96 99 103 107 111 115 118 117 120 119 116 116 115 113 113 111 107 100 92 85 77 72 69 65 61
61 65 66 70 72 75 78 81 83 84 84 85 87 88 89 91 93 95 98 101 105 110 112 116 118 118 117 117 113 113 114 113 112 109 105 100 94 88 79 73 71 66 62 58
69 71 72 74 76 80 84 85 83 84 87 87 87 89 92 95 97 100 104 108 112 115 116 116 118 115 115 111 111 112 112 110 108 104 99 93 87 82 74 70 66 64 59 56
78 78 78 82 81 83 83 85 87 87 87 90 92 93 97 100 103 106 110 113 115 114 116 116 112 112 110 110 110 110 109 106 103 98 92 87 82 75 72 68 63 60 57 54
81 82 81 80 81 83 84 84 87 90 93 94 96 98 103 107 110 113 114 115 116 115 113 110 110 110 110 109 108 105 104 100 97 91 85 82 76 72 69 65 61 57 53 51
79 81 83 83 83 84 87 89 92 94 97 99 104 108 110 113 114 115 116 116 114 112 108 109 110 109 108 106 104 102 99 95 91 84 80 76 72 69 66 62 59 54 50 48
81 82 83 86 88 91 94 95 98 101 105 107 110 112 113 114 114 116 116 113 108 106 109 110 109 107 103 101 99 97 93 88 84 79 75 71 70 67 63 59 56 51 48 47
87 90 92 93 96 98 101 103 106 108 110 111 112 113 115 115 114 110 108 107 108 109 109 107 103 101 98 96 95 92 87 81 78 75 70 68 67 63 60 56 53 51 48 46
96 98 100 103 105 106 107 109 109 109 113 115 115 112 109 107 107 105 106 109 109 105 104 99 98 96 94 93 91 87 81 76 74 71 67 65 63 59 56 54 52 51 49 47
102 104 106 109 111 112 115 114 113 114 110 109 108 106 104 103 103 102 103 105 102 94 94 93 93 92 90 88 85 81 77 72 70 68 65 62 59 57 54 52 51 50 49 48
107 110 112 111 111 111 110 107 105 105 105 105 108 109 108 108 105 103 99 94 95 92 92 92 89 87 84 82 79 76 74 70 66 65 63 59 57 54 53 51 50 49 48 47
109 108 106 105 104 104 104 106 107 108 109 110 107 102 100 98 95 92 93 91 90 89 88 88 85 83 80 77 74 72 70 67 64 62 60 57 54 52 51 50 49 49 48 46
104 105 105 106 106 107 108 109 107 104 99 96 95 94 93 91 91 90 88 90 88 86 85 82 81 78 76 73 71 69 67 65 63 60 58 54 51 50 50 50 49 48 46 45
107 107 109 110 110 108 104 97 93 90 91 92 92 92 91 89 88 89 87 84 80 79 78 75 74 73 72 70 67 67 66 63 61 58 56 52 50 48 48 48 48 46 44 43
112 110 107 103 98 95 94 92 91 90 90 91 91 91 89 88 83 80 81 80 77 75 72 72 71 69 68 67 65 64 63 61 59 56 53 51 49 49 47 46 46 44 43 41
99 98 98 97 94 91 90 88 86 86 87 85 85 86 85 83 80 77 74 73 71 70 69 68 68 66 65 64 62 60 60 58 56 54 52 51 48 47 47 46 45 43 42 40
95 94 91 89 86 84 82 81 81 81 81 79 76 77 76 76 75 74 72 70 68 67 65 64 64 63 62 60 59 57 56 55 53 52 50 48 47 46 45 44 43 41 40 39

GFSNGP_250_spd_003.txt.gz
Wind_Speed
11 11 10 12 14 18 20 25 25 27 31 31 34 35 41 46 47 51 57 62 64 66 70 70 70 71 74 72 69 72 76 79 85 88 95 99 104 110 115 117 116 118 117 116
14 14 15 18 22 24 27 29 29 32 38 37 36 40 47 51 53 57 62 65 67 69 73 73 72 74 77 76 76 79 82 87 91 96 101 106 111 115 117 117 117 115 113 107
17 18 20 24 31 30 32 33 35 37 41 38 39 45 52 56 59 64 68 70 72 74 76 75 76 78 80 80 82 84 89 94 98 103 108 111 114 117 118 116 115 113 107 101
23 25 24 32 37 36 34 38 40 42 41 41 46 51 57 60 64 69 71 73 76 78 78 80 81 83 84 84 86 90 95 100 105 108 111 113 114 115 113 112 111 109 103 96
27 30 30 34 38 40 41 42 45 44 45 48 52 56 61 63 69 72 74 77 79 81 82 84 86 87 87 89 92 96 101 106 110 111 113 113 115 111 112 111 109 106 98 92
32 32 32 37 41 43 45 43 48 51 51 54 58 61 66 68 71 75 78 80 84 84 86 89 89 89 92 95 98 102 107 111 113 113 112 112 109 109 111 109 106 101 95 87
36 36 36 40 43 45 48 49 51 53 56 60 63 68 70 72 75 80 83 85 85 88 91 92 91 93 96 99 103 108 111 112 112 112 110 109 109 109 109 106 103 97 89 82
39 40 42 45 47 50 52 53 54 57 60 63 67 71 72 75 81 85 86 86 90 91 92 93 95 97 100 105 109 111 112 112 111 108 108 107 109 108 105 105 99 93 84 77
47 49 50 51 51 53 55 58 62 64 67 69 72 74 76 81 85 86 87 91 90 92 95 95 98 101 106 110 111 112 112 110 104 104 106 108 107 105 104 101 95 87 80 73
51 53 55 55 57 60 62 64 67 70 72 74 77 80 83 87 87 89 89 92 93 95 98 101 105 108 110 111 113 112 107 101 102 105 107 106 105 103 102 96 88 81 74 69
50 55 57 63 66 66 68 72 74 75 79 82 84 85 85 86 88 89 92 96 97 101 105 109 112 112 112 112 107 104 102 101 104 106 106 105 103 101 96 90 82 76 70 67
58 62 63 66 69 71 74 77 81 84 85 85 84 85 87 88 91 94 96 100 103 107 111 113 114 112 109 104 102 102 103 105 105 104 104 102 100 97 90 83 78 72 68 64
64 67 70 71 73 75 79 82 82 82 82 83 84 86 89 92 96 100 103 104 109 110 110 112 109 107 103 102 102 104 105 105 104 103 102 100 97 90 83 77 73 67 65 62
72 72 73 76 78 82 83 81 82 83 83 85 89 92 95 98 102 107 108 110 113 112 110 109 107 105 104 105 107 108 106 103 101 101 98 96 90 82 76 72 68 64 61 59
77 78 79 80 80 82 82 83 84 86 89 93 95 98 101 105 111 111 112 114 114 112 110 110 111 112 113 111 108 104 103 101 98 96 94 90 82 75 71 67 64 61 58 56
81 83 82 83 83 84 84 87 90 93 96 99 102 105 107 110 112 112 108 106 107 108 111 112 113 112 108 103 102 101 100 97 94 92 87 82 76 72 68 63 60 57 55 53
84 84 86 86 86 88 91 95 97 100 102 106 110 111 111 111 108 105 105 108 113 114 113 111 107 102 100 99 97 96 95 92 90 85 80 76 72 70 65 61 58 56 53 50
87 87 86 88 91 96 98 100 104 106 109 112 110 109 106 105 107 108 112 114 116 112 105 100 98 97 96 95 94 93 89 85 82 79 75 71 69 67 63 59 56 54 50 47
87 90 93 97 99 101 104 108 110 111 112 110 110 111 110 111 113 115 117 114 107 101 101 102 100 97 95 92 88 87 83 80 77 73 70 68 66 63 60 57 54 51 48 45
94 97 99 102 104 107 109 110 109 110 111 113 113 113 114 114 114 111 105 106 105 102 100 98 96 93 89 85 83 80 77 75 72 69 68 65 62 59 57 54 52 49 45 43
99 103 106 106 109 109 111 112 111 112 113 114 116 116 113 107 101 102 103 101 101 99 95 92 89 85 83 80 79 75 73 70 68 66 65 61 58 55 54 52 49 47 45 43
106 109 108 107 108 113 111 111 112 114 115 114 111 105 102 102 100 99 98 95 93 91 87 85 84 82 80 77 75 71 68 67 65 63 60 56 54 52 50 49 48 45 44 41
108 108 110 113 113 111 112 111 110 109 105 103 102 99 95 93 93 93 90 91 87 85 83 81 79 76 74 72 71 68 66 64 61 58 56 54 51 49 48 47 45 44 42 41
107 108 109 111 113 113 110 103 100 99 97 95 94 92 89 87 87 88 86 84 82 79 76 73 72 71 70 68 68 66 64 61 58 56 53 51 49 48 47 45 44 42 41 39
109 110 108 106 103 101 99 98 96 93 90 88 88 87 86 86 82 79 77 74 72 71 71 71 69 68 66 64 62 61 60 58 55 53 51 49 47 46 45 43 42 41 40 38
107 103 100 97 96 94 91 88 86 84 82 82 83 83 80 79 78 77 76 75 71 69 67 66 65 64 62 61 59 57 56 55 53 50 49 48 46 45 44 43 41 39 38 37
95 93 91 87 86 85 83 82 81 80 80 77 74 74 73 73 73 72 71 70 69 67 66 64 62 60 59 57 55 54 53 52 50 49 47 45 44 43 42 41 41 39 38 36

GFSNGP_250_spd_009.txt.gz
Wind_Speed
25 25 23 22 22 23 23 23 25 27 28 28 30 34 37 39 42 45 47 49 49 51 58 63 66 70 73 77 80 82 85 86 86 88 90 94 97 102 106 109 111 113 109 108
27 26 24 24 26 26 26 26 27 29 33 33 37 38 40 40 43 46 49 52 55 60 62 64 68 73 77 80 84 87 86 87 89 91 96 99 103 107 111 112 110 105 106 109
29 28 28 29 29 27 29 31 31 33 37 40 42 42 43 45 46 49 53 57 60 61 65 69 73 79 81 85 85 85 87 89 91 95 99 104 108 110 111 106 101 105 109 110
33 31 30 33 32 31 33 35 35 38 43 43 43 45 47 48 51 55 59 63 63 67 72 76 80 83 85 83 84 87 90 93 97 100 105 110 109 107 102 100 104 107 107 106
35 36 35 36 37 37 37 40 39 44 45 45 47 50 54 53 58 63 66 66 69 74 77 80 84 83 84 85 87 90 95 99 101 105 108 107 103 102 104 105 108 106 101 98
37 37 37 38 38 40 43 43 44 48 49 51 53 56 60 62 64 65 68 69 74 78 80 84 84 84 85 87 91 96 99 102 105 108 104 103 104 107 109 108 103 96 98 101
38 38 39 40 42 42 43 47 47 50 53 55 58 61 59 64 68 70 72 75 79 82 84 85 84 85 87 92 96 99 104 107 109 107 106 105 106 107 105 103 98 99 102 101
40 41 41 43 43 47 47 50 53 55 56 56 57 61 66 69 72 74 78 79 82 86 86 87 89 90 93 98 102 105 107 104 104 106 109 110 109 108 105 102 106 106 106 101
44 44 43 44 47 49 52 56 57 56 57 60 62 67 71 72 77 80 80 83 86 86 89 90 91 94 100 104 107 108 108 108 105 108 111 113 113 112 112 110 112 106 101 97
45 46 47 50 53 55 57 56 58 60 63 66 70 73 76 78 81 82 83 88 88 90 92 93 95 99 103 107 107 105 105 107 113 116 116 115 114 114 116 111 102 98 95 91
48 51 51 54 54 55 59 59 61 66 70 72 77 79 81 84 83 85 90 91 91 93 94 97 102 104 109 107 106 107 108 112 114 115 118 119 115 108 102 101 98 91 87 84
48 48 52 55 56 59 60 64 69 73 77 79 82 85 86 85 90 93 91 92 95 96 100 103 106 109 108 107 107 110 113 114 115 117 116 112 108 103 99 95 90 85 82 78
52 57 60 61 61 65 67 71 75 80 82 84 85 86 88 92 92 91 94 95 98 103 107 109 109 108 109 110 111 112 113 115 111 106 105 101 99 93 88 85 84 81 78 73
61 63 64 68 68 71 74 77 81 84 87 89 89 92 94 90 93 95 97 102 106 108 110 111 110 107 107 108 109 115 115 113 110 107 102 95 89 85 84 83 79 74 74 70
67 69 72 73 76 80 80 83 85 88 90 93 92 89 92 94 96 99 104 107 110 111 109 110 108 107 110 111 110 108 107 107 104 99 94 91 89 86 81 78 73 71 69 67
72 73 75 79 82 83 85 86 88 92 89 88 91 93 95 98 102 107 110 112 112 110 109 110 113 111 112 110 108 106 105 104 100 96 93 89 85 79 77 75 71 70 67 63
73 76 80 82 83 84 87 91 91 89 91 94 95 98 101 106 109 112 115 115 115 114 112 109 111 110 109 107 105 102 99 98 94 90 87 83 77 75 74 72 68 65 64 61
79 82 83 85 87 89 92 91 91 93 96 99 102 105 108 111 116 117 115 112 110 110 111 113 110 107 105 104 103 100 95 90 86 82 80 78 75 72 71 69 66 63 60 58
84 86 87 89 91 92 92 93 95 98 102 106 109 111 114 117 117 115 112 112 110 111 113 110 106 104 101 99 93 88 86 83 81 77 76 73 70 70 68 66 63 59 57 55
86 88 91 92 91 92 95 98 101 105 108 111 114 118 118 115 113 111 110 111 109 107 106 103 101 99 94 89 85 82 80 77 75 70 70 69 66 65 64 61 58 55 53 52
91 91 90 92 95 98 101 104 107 111 114 116 117 116 114 111 110 109 107 106 106 102 101 100 97 91 86 82 79 78 75 72 71 71 67 67 61 58 57 56 53 51 50 49
88 91 94 97 100 103 106 110 113 115 116 114 113 110 110 109 107 106 103 100 100 99 98 93 88 85 81 78 76 74 72 71 68 66 63 62 57 57 56 55 52 51 49 48
94 97 100 103 106 109 111 112 114 112 111 109 109 108 106 105 103 101 99 99 98 95 91 86 83 80 77 74 71 70 69 66 63 61 60 60 54 54 54 53 51 48 49 47
100 102 106 109 110 111 112 111 109 108 109 108 105 103 102 100 100 97 95 92 88 85 81 78 76 74 71 70 68 65 63 60 59 58 58 60 54 50 50 50 49 47 45 45
104 107 110 111 111 110 109 108 108 106 104 104 101 99 97 96 94 91 86 83 80 77 76 73 71 69 67 65 62 60 60 58 56 55 55 54 54 53 49 47 45 45 43 42
108 110 110 108 107 107 107 105 103 102 101 99 96 95 94 90 86 83 81 79 76 74 72 70 68 66 64 62 61 59 58 57 54 52 52 51 49 48 48 47 45 43 42 40
106 106 106 105 105 102 100 101 100 98 96 94 93 89 85 82 80 79 76 74 72 70 68 67 65 63 62 60 59 58 56 55 54 50 48 47 47 47 45 45 44 43 41 39

GFSNGP_250_spd_012.txt.gz
Wind_Speed
29 26 26 26 26 25 25 24 25 24 26 29 28 31 32 36 39 45 45 44 49 52 53 54 59 63 62 67 72 79 82 86 87 86 86 88 92 97 101 104 108 109 103 103
29 26 28 27 27 28 27 26 26 29 30 32 32 37 38 41 39 45 48 52 53 56 60 64 66 65 68 73 78 82 86 88 89 90 90 91 97 104 107 111 110 104 102 104
29 30 28 28 31 29 27 27 30 31 34 37 36 39 46 46 47 48 53 54 57 62 65 68 69 70 75 80 82 86 89 90 92 93 95 98 104 109 113 112 108 105 107 109
32 30 30 33 32 31 31 33 33 35 38 41 41 46 48 47 50 54 54 58 61 64 68 71 75 77 81 85 86 90 91 93 94 95 99 104 108 113 111 107 106 107 110 111
33 32 34 36 36 36 36 37 38 42 44 45 46 49 52 51 56 58 60 60 64 69 72 76 81 85 86 89 91 94 92 94 97 100 105 109 111 112 108 105 107 111 111 109
35 34 35 37 40 41 42 40 43 47 47 50 50 53 56 58 60 62 63 68 69 74 79 81 84 89 89 92 97 95 96 97 101 108 111 111 110 111 112 114 112 109 106 106
38 36 38 38 43 44 45 48 47 49 51 53 55 57 61 63 63 67 70 70 73 80 83 86 90 89 93 97 95 98 99 104 110 112 110 112 111 109 112 115 110 107 107 107
38 38 38 41 43 47 47 49 51 53 55 56 58 63 67 67 68 69 76 77 83 85 89 92 92 95 96 95 98 100 105 110 112 113 114 113 112 112 116 116 114 108 106 103
39 38 40 42 46 48 49 54 55 56 57 60 64 67 67 68 71 75 80 83 87 90 93 95 97 98 96 98 100 106 111 114 114 114 112 113 115 118 118 114 105 103 97 94
42 44 43 45 49 49 50 54 54 58 60 60 66 69 70 72 78 81 86 88 89 93 96 97 96 97 99 102 108 113 115 114 114 114 114 114 115 115 111 108 106 102 97 92
46 47 47 50 47 49 54 54 53 57 62 67 69 72 76 80 84 86 90 93 94 96 93 93 97 99 104 109 113 116 117 117 115 113 111 110 108 109 108 104 98 95 92 86
50 48 53 52 50 53 51 54 61 66 69 72 75 78 82 86 88 91 92 94 99 94 94 96 100 105 109 113 116 117 116 115 113 113 111 111 112 106 105 102 98 92 85 81
50 53 55 55 52 55 60 64 68 72 74 76 81 85 87 91 91 91 94 99 96 96 99 102 107 111 115 118 117 116 116 114 114 113 111 108 105 103 100 95 91 88 83 79
55 57 54 56 58 63 68 72 75 78 79 82 86 89 91 91 93 97 100 99 100 102 105 109 114 117 119 120 118 116 114 113 110 110 106 103 102 97 92 89 87 84 81 77
58 59 61 64 68 73 75 78 80 82 84 87 91 93 93 94 98 100 100 102 105 108 112 117 120 122 122 121 117 113 111 112 109 105 104 101 96 93 89 85 81 80 77 73
62 65 69 73 76 78 79 81 84 87 89 91 92 93 95 99 100 100 103 107 111 115 118 121 124 124 122 117 114 110 108 107 105 102 99 95 92 88 86 83 78 73 72 71
68 70 74 77 80 82 85 87 89 90 91 93 94 98 100 101 102 105 109 112 116 121 123 125 125 120 116 113 109 106 101 99 97 93 88 86 84 81 79 78 75 73 69 67
74 76 78 81 83 86 88 90 91 92 95 97 100 102 102 104 107 111 114 118 122 125 125 124 118 116 112 110 105 101 98 94 89 85 82 79 78 76 73 72 69 67 65 64
76 78 81 84 87 90 91 92 94 97 100 102 102 102 105 109 113 116 120 123 125 124 122 119 115 111 108 104 101 98 93 87 82 80 79 76 72 71 69 68 64 62 62 60
81 84 86 89 90 92 94 96 99 101 100 101 104 108 112 116 119 121 124 124 122 119 116 113 110 106 104 102 97 91 86 83 81 78 75 73 70 68 65 64 63 60 60 59
84 86 88 91 94 97 99 100 99 100 103 106 110 114 117 120 123 124 123 121 118 115 114 109 105 102 100 93 89 85 82 79 77 74 72 70 68 66 64 63 62 59 59 56
90 93 94 95 96 95 96 99 102 106 109 112 115 118 121 122 122 121 118 114 113 112 108 104 102 97 92 87 84 82 80 77 75 73 70 67 65 64 64 62 60 58 57 54
88 88 89 91 94 98 101 105 108 111 113 114 118 120 120 119 119 114 113 113 111 107 103 99 93 88 85 82 80 78 75 73 71 68 65 63 62 62 61 60 58 57 55 53
88 92 95 97 100 104 108 110 111 114 116 116 116 117 118 114 113 113 111 106 103 99 94 89 86 83 80 78 75 73 71 69 66 64 62 61 60 59 57 55 52 50 49 48
95 98 100 103 106 109 110 112 112 113 114 116 115 113 112 112 110 106 103 100 94 89 86 83 81 79 76 75 72 70 67 65 64 62 60 57 55 53 52 50 48 46 46 46
100 102 104 105 106 108 111 112 112 113 114 114 112 110 108 106 103 99 94 90 87 84 82 78 76 76 74 72 69 67 65 63 62 58 57 55 52 50 49 48 47 46 45 44
104 104 106 109 110 111 111 112 111 109 109 109 105 104 100 96 93 90 88 85 82 80 78 76 74 72 70 68 66 66 63 60 58 57 54 53 51 49 47 46 46 45 44 43

GFSNGP_250_spd_015.txt.gz
Wind_Speed
27 28 25 26 26 27 30 32 26 27 27 26 25 27 30 33 36 38 43 42 41 43 46 47 51 55 59 62 65 69 75 78 79 85 87 91 95 92 94 96 100 106 110 105
27 26 24 27 29 32 34 29 29 27 26 28 28 31 33 36 34 37 44 52 53 52 53 57 59 61 63 68 70 77 81 85 87 89 91 96 95 96 98 101 107 109 107 107
29 29 31 30 36 31 29 28 28 28 28 30 31 34 36 40 44 46 48 51 56 59 61 63 62 66 69 71 75 82 87 90 92 93 97 96 98 101 104 109 110 109 108 106
30 29 30 36 32 31 31 29 30 31 32 35 38 39 41 44 47 51 52 53 56 61 68 68 69 71 73 76 82 87 89 92 95 96 96 99 102 106 111 112 111 111 109 109
30 30 32 32 35 32 31 33 35 38 38 40 45 46 47 50 52 55 56 58 60 65 68 71 75 78 81 84 88 91 93 97 94 94 98 101 108 111 114 114 114 111 110 109
31 31 32 32 36 36 35 34 40 43 45 46 49 52 52 54 56 57 61 66 68 70 71 73 76 81 86 89 91 93 97 96 96 98 101 108 114 116 118 115 113 110 111 110
29 32 34 34 38 37 38 39 42 47 48 51 52 55 57 60 59 60 64 71 71 72 75 78 82 87 91 92 93 97 101 98 99 103 109 113 118 118 119 120 119 119 115 110
31 34 38 39 40 41 42 43 45 47 49 51 55 59 61 61 62 63 65 70 75 78 82 85 89 92 94 95 98 103 101 101 104 109 113 118 121 122 120 118 118 116 113 107
32 34 37 38 39 42 42 45 48 48 51 55 58 59 60 61 63 65 70 74 78 83 87 91 94 95 96 99 104 105 102 105 110 114 120 122 123 122 120 117 115 112 107 102
36 38 38 37 41 42 46 49 51 53 56 59 59 61 62 65 69 73 75 79 82 87 90 94 96 98 100 103 105 103 106 110 114 119 123 124 122 119 117 115 112 108 103 97
43 42 40 41 43 47 50 53 53 57 60 60 63 64 67 71 75 79 82 86 88 90 94 96 98 100 103 106 104 106 110 115 118 123 125 121 118 116 114 113 108 103 99 93
43 44 42 43 46 49 52 55 56 60 62 64 66 69 74 77 81 85 88 90 91 94 95 97 100 104 106 104 106 110 115 119 123 125 122 118 115 113 111 107 105 101 96 88
46 45 47 49 51 55 57 59 61 62 63 67 72 76 80 83 87 89 90 93 95 96 99 102 106 106 104 107 112 117 120 121 124 122 117 114 113 109 105 102 98 93 89 84
53 52 53 54 58 60 60 62 64 66 70 74 78 82 85 88 90 92 95 96 98 100 103 107 107 106 108 113 117 120 123 124 120 117 114 110 107 103 98 91 85 83 83 82
58 59 59 60 63 65 66 66 70 74 77 81 84 87 89 92 94 95 97 99 101 104 107 106 107 111 115 119 121 123 122 120 116 113 110 107 103 96 90 84 79 76 75 75
61 64 65 65 65 68 71 74 77 81 83 86 89 91 93 94 95 98 100 103 107 107 105 109 112 116 119 122 123 121 119 115 112 110 107 102 94 88 82 80 78 75 73 71
65 67 69 70 71 74 76 79 82 86 87 88 90 92 94 96 99 103 107 105 103 106 110 114 117 120 123 123 119 117 114 112 108 104 98 92 86 81 79 75 73 69 68 68
70 72 73 74 76 78 78 80 82 85 87 90 92 95 98 102 106 103 102 104 108 112 116 117 119 122 121 118 116 114 109 105 102 95 89 85 81 77 74 72 70 67 62 66
68 68 68 70 73 76 80 82 84 87 90 94 98 101 101 100 99 102 107 109 114 117 119 120 122 121 119 118 114 109 104 99 93 87 83 79 75 74 71 69 66 63 60 61
69 71 73 75 78 82 84 88 91 95 97 97 97 98 98 101 106 108 111 115 116 118 119 119 118 117 115 110 106 102 98 93 88 82 79 75 72 70 68 65 64 64 61 59
75 77 78 82 86 88 91 93 92 93 95 96 98 101 104 107 110 113 114 116 118 121 119 118 116 112 108 104 100 95 91 86 82 78 74 72 70 68 65 63 63 64 65 60
80 81 84 86 87 88 90 91 93 95 98 101 104 107 109 112 113 115 116 118 118 116 115 112 110 105 101 96 92 87 82 79 76 74 72 69 66 64 64 63 62 61 61 59
80 83 84 86 89 91 93 95 98 100 102 105 108 110 112 115 115 117 116 115 115 114 110 108 105 99 93 87 84 80 77 76 73 71 67 65 64 63 61 61 58 56 54 53
86 87 89 91 93 95 97 99 103 106 107 109 110 111 114 116 115 113 112 111 111 107 105 99 93 89 86 82 79 78 75 73 70 66 65 64 62 61 59 57 54 52 50 48
90 92 93 96 99 101 103 105 107 109 110 111 111 111 111 111 111 111 109 107 105 101 94 90 87 86 83 80 77 75 72 69 67 66 65 62 60 57 55 52 50 48 46 45
96 98 99 101 104 106 107 107 107 107 109 110 109 107 108 109 107 105 101 99 96 93 90 87 85 83 81 77 74 71 68 67 66 63 61 59 56 53 50 48 46 45 43 43
100 102 103 104 104 105 105 106 106 106 107 106 106 105 104 101 99 97 95 93 92 89 86 84 81 79 76 72 69 67 66 64 61 59 57 55 52 48 46 44 44 43 42 42

GFSNGP_250_spd_018.txt.gz
Wind_Speed
23 21 20 20 26 26 27 31 31 29 28 21 21 21 24 29 32 32 34 35 34 36 40 46 47 49 51 55 59 61 61 65 70 76 79 83 86 88 93 96 92 92 97 102
24 25 23 25 27 31 30 30 31 29 27 20 19 25 30 34 34 36 37 40 43 45 46 47 48 52 57 61 62 62 66 70 76 81 86 88 90 91 98 96 95 99 103 107
24 24 25 25 33 28 29 29 28 27 24 26 29 32 34 35 37 40 44 46 49 52 54 55 58 60 63 66 66 69 74 79 84 87 91 91 93 98 99 97 100 104 109 113
26 24 25 31 29 31 30 30 26 26 29 31 32 35 36 39 43 46 50 53 55 56 58 61 63 67 69 69 72 76 81 84 89 92 95 96 98 102 98 101 105 109 114 117
23 25 27 32 32 31 30 27 28 30 33 35 36 39 41 44 47 52 55 57 58 60 61 63 67 71 72 75 79 82 87 90 93 96 98 98 103 99 102 106 110 114 117 119
28 28 29 32 32 30 28 27 31 34 37 38 41 43 46 48 52 54 57 59 61 62 63 67 71 73 76 80 83 87 90 93 96 97 98 105 103 102 107 112 116 118 120 120
37 32 31 34 30 30 29 31 35 38 41 43 45 47 49 52 54 57 59 63 65 68 69 72 75 79 82 86 89 92 94 97 98 100 104 102 102 107 112 115 118 120 120 118
42 37 34 33 31 31 34 37 40 42 43 45 47 49 52 54 57 60 62 65 67 70 72 76 79 84 89 92 94 95 98 99 101 105 104 103 107 111 115 118 122 122 118 117
42 39 36 36 35 36 40 42 44 45 46 47 49 52 55 58 61 63 66 67 71 74 78 83 86 89 92 94 97 100 101 102 105 105 104 107 111 114 119 123 122 118 117 114
43 42 40 41 40 41 43 45 46 47 48 51 55 57 59 62 64 67 68 72 75 78 83 87 91 94 97 99 99 100 102 106 105 104 107 111 114 117 120 123 121 119 113 108
45 45 45 45 45 46 48 49 51 52 53 55 57 59 62 65 68 69 73 76 80 84 88 92 95 97 99 100 101 103 106 103 103 107 111 113 116 119 121 121 119 115 110 103
48 48 49 49 50 51 52 52 52 53 54 57 60 64 67 70 71 74 77 82 86 89 92 95 97 98 99 101 104 106 102 104 108 111 113 116 118 120 121 116 112 108 104 97
49 50 51 53 53 54 54 55 55 58 61 64 66 68 70 73 76 80 83 86 90 93 96 97 97 99 102 104 103 102 106 109 112 113 115 118 119 117 112 112 107 101 97 89
54 53 53 55 56 57 59 62 64 66 67 69 71 73 75 78 81 84 87 90 93 94 95 98 99 102 102 99 102 107 109 112 112 116 119 119 115 112 108 101 96 94 92 87
56 57 56 57 57 59 61 63 66 68 70 73 75 77 79 82 85 88 90 91 93 95 98 102 102 99 100 104 108 110 110 112 114 116 116 113 110 107 102 95 90 85 83 83
60 60 61 62 62 63 65 67 70 72 75 77 79 82 84 86 87 89 91 93 97 101 102 99 99 103 107 109 111 111 113 114 115 114 110 107 104 97 92 88 84 81 76 75
63 63 64 65 66 67 69 71 73 76 78 80 81 82 82 86 89 92 96 98 101 99 100 102 106 110 111 112 113 114 114 114 112 108 105 101 95 91 87 83 79 74 72 70
66 67 67 67 67 68 69 70 73 75 78 80 82 85 88 91 95 99 100 99 99 101 104 108 111 113 113 114 114 112 111 109 106 103 96 91 88 85 81 77 74 72 69 66
66 68 69 71 71 71 73 74 77 79 82 84 87 90 93 98 99 97 100 102 105 107 110 113 115 115 115 114 114 112 109 104 101 94 89 86 82 78 75 73 70 68 65 61
64 66 67 69 71 71 73 76 79 82 86 89 92 95 96 96 98 101 103 106 110 113 115 116 116 115 113 113 110 106 102 97 91 86 83 80 77 74 72 70 67 65 63 62
70 71 72 73 73 76 79 82 85 88 91 93 93 96 98 101 103 106 109 111 113 115 114 114 113 111 110 107 104 100 95 90 85 81 79 77 75 72 69 66 65 64 62 61
74 74 76 77 80 82 84 86 89 91 93 96 98 101 103 105 108 111 112 114 114 113 113 110 109 107 105 102 97 93 89 85 81 78 76 73 70 68 67 65 63 61 59 58
75 76 79 82 85 86 87 90 93 95 99 102 104 106 108 111 112 113 112 111 113 111 107 106 105 103 101 98 92 88 85 82 79 75 72 69 67 66 64 62 60 58 57 54
82 84 86 89 91 93 94 96 98 101 104 107 108 111 112 113 112 112 112 111 108 105 104 103 100 97 94 91 87 84 82 78 74 71 68 66 65 63 62 59 57 56 53 50
86 89 92 94 96 97 99 102 104 106 108 109 109 111 112 113 113 111 107 104 102 102 100 96 93 91 90 87 83 80 77 74 70 67 66 65 63 61 58 56 53 49 47 47
89 92 94 96 99 100 101 102 104 106 108 109 108 109 109 107 104 102 100 99 98 95 92 90 88 86 85 83 79 75 72 68 66 65 63 62 59 57 55 51 48 45 45 44
90 92 93 94 96 97 99 101 103 105 106 107 106 103 101 99 98 96 94 93 91 89 87 85 83 81 79 77 73 69 67 66 64 62 60 58 56 53 49 47 45 44 42 41

GFSNGP_250_spd_024.txt.gz
Wind_Speed
38 33 25 22 23 21 21 23 27 29 27 25 25 24 29 30 30 29 29 30 27 26 29 33 32 33 38 43 47 50 54 58 61 64 69 72 74 78 82 85 88 92 96 98
37 34 29 21 22 25 27 25 25 26 29 29 27 26 26 29 31 34 34 30 29 31 34 35 38 42 46 49 52 56 59 63 65 68 71 75 78 82 84 88 91 95 100 100
37 34 28 25 30 27 27 23 24 27 28 27 26 28 28 31 35 36 38 36 34 34 37 41 43 47 50 53 57 61 63 65 69 72 76 79 81 84 87 91 95 99 100 104
39 37 30 31 28 25 23 26 25 26 26 27 30 31 32 35 36 38 38 37 38 40 42 46 48 51 55 59 62 64 65 68 73 76 79 81 84 87 92 96 98 100 102 106
44 39 34 31 33 25 21 26 25 25 27 28 30 30 32 34 34 36 38 41 43 44 46 49 53 56 60 63 64 66 70 73 76 79 82 84 87 92 95 98 101 103 106 106
45 41 38 33 33 30 21 22 31 27 24 26 29 32 32 32 35 38 41 43 45 48 50 53 56 60 63 64 67 71 74 76 79 82 84 88 91 94 97 99 102 105 106 107
46 44 38 35 39 35 29 37 32 29 29 30 30 31 34 36 38 40 43 45 48 50 54 58 60 62 65 68 71 74 76 79 82 85 88 90 94 97 98 101 105 105 107 110
52 45 38 39 36 39 39 37 37 34 33 35 36 37 37 37 39 42 45 49 52 56 58 60 63 66 69 72 75 77 80 83 86 89 91 95 98 98 102 106 105 108 109 113
52 47 45 44 40 41 42 41 39 38 38 39 40 42 43 44 46 48 51 54 57 60 63 65 68 71 73 75 78 81 85 89 90 93 96 99 99 102 105 105 107 109 113 114
48 45 45 47 46 43 45 45 44 44 43 43 44 46 48 50 53 54 56 59 62 65 68 71 73 74 76 79 83 86 88 91 94 96 97 98 101 103 103 109 110 114 115 115
48 49 50 47 46 44 45 45 46 47 47 48 48 49 51 53 56 58 61 64 67 70 73 74 76 78 82 85 87 89 92 94 95 97 98 100 103 103 108 111 115 114 116 115
51 53 48 46 45 47 47 47 47 50 51 52 52 53 55 57 60 62 66 69 71 73 75 78 81 83 86 88 91 94 94 96 98 99 102 104 103 107 113 114 115 118 117 116
52 50 48 45 45 48 47 47 49 52 56 58 59 59 60 62 64 67 69 72 74 77 80 82 84 87 90 93 94 96 98 99 100 103 105 106 111 112 111 112 117 120 122 119
52 47 46 47 47 49 49 50 51 53 56 60 63 65 66 67 70 72 75 78 79 81 84 87 89 92 94 96 98 99 100 102 105 105 108 113 114 114 112 111 108 111 114 113
48 49 50 51 54 53 51 52 52 54 57 61 64 67 70 72 75 78 81 83 85 86 88 91 94 96 99 99 100 103 105 106 107 111 114 114 113 113 112 112 109 107 106 106
54 55 57 57 56 53 53 54 56 57 60 62 64 66 69 71 74 77 80 83 86 88 91 93 96 98 100 103 104 107 108 109 112 113 112 112 112 111 110 110 109 106 102 96
63 63 59 55 53 57 59 60 61 62 63 65 67 70 72 73 77 80 82 85 87 91 94 96 99 103 105 105 108 110 111 112 111 112 111 110 110 109 109 109 106 102 95 90
58 57 54 54 59 62 64 67 68 70 73 74 77 78 78 78 81 83 86 90 93 95 98 101 103 104 105 107 108 109 110 110 110 109 109 110 109 109 108 104 99 92 87 84
56 58 63 66 67 69 71 73 75 78 81 82 81 82 81 85 89 91 93 95 98 101 103 102 103 104 105 107 108 109 108 109 108 108 109 109 108 107 103 97 90 86 82 79
65 67 69 69 71 73 77 80 82 82 84 86 88 90 92 93 94 97 98 98 100 99 99 100 101 102 105 107 107 107 106 108 109 109 110 108 104 100 94 90 85 81 78 75
69 70 71 72 75 79 81 84 85 87 88 91 94 95 96 96 97 98 100 99 98 99 100 102 105 106 106 106 105 106 107 109 109 109 105 101 96 92 89 85 81 77 75 72
77 79 81 82 83 85 87 89 90 93 95 96 97 99 99 102 101 101 99 100 102 102 105 106 106 106 105 105 106 108 109 109 106 103 99 94 91 87 84 80 78 74 71 69
85 87 87 88 90 90 92 94 96 98 100 100 101 102 102 102 103 103 104 104 106 107 106 106 106 105 105 107 108 108 107 104 101 97 93 89 86 82 79 77 74 70 68 65
82 85 88 89 91 95 97 98 100 98 98 98 100 101 103 105 105 105 107 107 107 107 106 105 105 106 107 107 107 104 101 98 95 91 87 84 81 78 75 72 70 67 63 59
86 89 91 93 95 96 96 95 96 97 98 99 101 103 104 106 108 108 107 106 106 105 106 107 107 107 107 104 101 98 94 92 89 85 82 80 77 73 70 68 64 61 58 55
86 87 89 90 93 92 93 95 98 99 100 101 103 105 106 107 107 107 106 106 106 107 107 106 105 102 100 98 94 91 88 85 83 80 77 75 72 69 66 62 60 57 55 51
92 92 91 92 94 95 97 98 99 101 103 104 105 105 105 105 105 105 105 106 106 105 103 100 98 96 92 90 88 85 82 79 78 75 72 70 66 64 61 59 57 55 51 48

GFSNGP_250_spd_027.txt.gz
Wind_Speed
36 40 33 32 32 23 26 27 23 31 35 37 32 32 30 32 34 36 33 32 32 32 31 34 34 36 36 38 41 43 46 50 54 58 62 65 67 70 74 77 80 84 88 90
39 40 35 33 29 33 29 29 26 26 26 28 27 28 26 29 34 36 35 35 31 32 34 36 38 39 41 43 47 50 52 55 58 62 66 68 71 74 78 81 84 86 90 91
41 41 36 36 30 29 27 30 26 24 30 28 29 29 31 32 33 34 36 37 37 37 38 42 43 44 46 49 51 53 56 60 64 67 69 72 75 78 82 84 86 88 92 96
42 40 38 37 32 28 30 29 27 27 30 31 28 29 31 30 32 35 37 41 43 43 43 42 45 48 50 52 53 57 60 65 68 70 73 75 79 82 84 86 89 92 94 98
43 40 40 39 34 30 26 27 33 32 29 28 28 29 30 30 31 35 39 42 43 44 45 47 49 51 52 55 58 61 65 68 70 72 75 80 83 84 86 88 91 94 97 101
41 45 40 41 36 32 28 29 28 31 29 26 26 24 26 27 30 32 36 40 42 43 46 49 52 54 57 59 62 65 67 69 72 76 81 83 84 87 89 91 94 98 101 103
44 41 41 42 40 36 33 34 29 33 34 34 33 32 33 34 33 32 33 37 41 45 48 51 54 57 60 63 65 66 69 73 77 79 81 85 87 89 91 95 99 100 103 105
44 43 41 43 43 38 34 35 32 35 39 41 42 42 40 39 39 39 40 41 43 45 49 53 56 58 61 64 67 70 74 77 79 82 84 87 90 93 97 100 101 104 104 106
47 42 45 47 45 41 40 40 37 35 37 43 45 45 45 43 43 45 47 48 50 51 54 57 59 63 65 68 71 74 76 79 82 84 87 91 95 98 101 103 104 104 107 108
49 47 49 49 48 46 41 44 44 40 38 39 44 48 47 47 49 50 51 52 53 55 58 60 63 65 68 71 74 77 79 82 85 89 93 97 100 101 103 104 106 109 110 112
49 52 54 52 50 51 51 48 47 41 42 40 41 45 49 49 49 50 52 55 57 60 62 65 68 70 73 75 78 81 85 88 92 95 98 101 102 102 103 108 110 112 115 117
53 57 55 55 54 55 51 52 47 40 42 41 40 42 45 48 49 51 53 56 60 63 65 68 72 74 77 80 83 87 90 92 94 95 97 100 103 107 110 111 114 116 117 115
57 59 58 56 57 57 54 50 43 43 44 45 45 46 45 47 49 51 55 58 61 64 67 70 72 75 77 80 83 85 88 91 95 98 101 103 105 106 108 112 114 114 113 110
61 59 55 59 58 57 55 46 46 48 49 49 47 47 47 50 53 55 57 60 62 64 69 72 74 76 79 81 84 88 92 95 97 100 101 102 103 104 105 105 105 106 108 110
60 61 62 64 63 61 53 50 54 54 53 53 51 52 54 56 57 59 62 66 69 73 75 77 77 81 86 89 89 92 95 97 98 99 101 102 102 102 102 102 104 105 106 108
65 68 68 67 62 57 59 61 58 56 56 58 58 58 59 63 67 69 72 75 78 80 82 82 86 89 90 91 96 98 99 99 100 100 101 102 101 102 104 105 106 106 105 102
62 56 58 59 60 60 60 59 58 60 62 62 61 63 66 69 73 76 80 82 84 87 88 89 90 92 95 99 101 100 100 101 102 101 101 103 104 105 106 106 106 104 103 99
59 62 63 64 64 57 59 60 60 60 63 65 69 70 73 75 78 82 84 88 90 91 92 95 98 98 100 102 102 103 103 103 103 104 105 105 106 107 108 107 105 103 98 93
68 67 65 62 64 57 62 65 68 68 69 74 78 78 80 84 87 90 92 95 95 97 101 102 100 102 102 103 104 104 105 106 107 107 106 108 109 109 108 106 102 96 91 87
62 61 62 61 66 68 69 68 73 76 78 81 83 85 89 94 96 99 99 101 104 104 102 103 104 104 104 105 106 108 109 110 110 110 111 111 110 109 106 101 96 90 86 83
65 65 59 58 65 73 73 76 78 80 85 88 92 97 95 96 99 100 100 101 106 106 106 106 106 107 108 110 111 113 113 114 114 113 112 111 110 105 100 96 91 86 82 78
71 73 72 73 78 78 77 81 85 88 90 94 90 92 96 100 102 104 106 109 108 107 107 108 110 112 113 114 115 115 115 114 112 112 110 107 102 99 95 90 86 82 78 74
79 82 84 86 85 86 88 86 83 82 85 86 90 96 99 102 103 104 106 108 107 106 109 111 113 115 115 115 116 115 114 114 112 109 104 100 96 93 90 86 82 78 75 71
84 85 83 85 89 88 92 91 89 87 90 94 99 99 97 103 106 105 104 105 107 109 112 115 116 116 116 115 114 115 113 110 104 100 97 93 91 88 84 81 79 75 71 67
90 91 89 92 93 92 92 93 93 95 96 98 103 103 104 105 103 104 106 108 110 113 114 114 114 114 114 115 112 108 103 100 97 94 92 89 86 83 80 77 74 70 66 62
94 94 97 97 98 98 98 97 99 102 102 109 109 106 106 106 106 107 109 110 112 112 112 112 112 112 109 105 101 98 96 93 91 89 86 83 81 79 75 72 68 65 61 58
98 101 99 97 98 100 102 103 104 105 107 108 107 106 107 108 108 108 109 109 110 110 109 107 102 99 96 94 93 92 90 87 85 83 81 79 76 72 69 66 63 60 57 56

GFSNGP_250_spd_030.txt.gz
Wind_Speed
41 40 33 33 32 30 26 24 25 27 30 36 33 35 37 41 43 41 42 43 41 35 36 38 39 41 43 43 44 43 47 48 49 51 54 58 62 66 69 73 74 77 80 83
41 41 34 32 35 29 24 26 27 21 27 30 28 30 33 37 36 34 35 33 34 36 37 39 39 40 42 44 47 51 53 54 55 57 60 63 66 70 73 75 77 81 83 87
41 39 33 36 37 34 25 26 26 24 28 26 28 29 31 33 32 34 36 38 40 41 41 40 41 41 43 46 50 53 55 57 60 63 65 67 70 73 76 78 81 84 87 90
40 37 35 42 40 37 28 28 26 29 29 30 32 31 31 31 33 34 36 39 40 42 44 45 45 46 46 47 51 55 58 61 64 66 68 71 74 76 79 82 85 88 90 93
41 39 39 39 45 39 30 31 19 24 23 31 34 35 36 35 35 35 37 40 40 42 43 45 47 48 48 49 50 54 57 61 65 68 71 73 76 80 83 85 87 90 93 95
41 37 38 46 45 40 29 35 23 22 24 28 34 37 37 35 34 34 34 34 33 34 37 40 42 45 48 51 54 57 61 64 68 71 73 76 79 82 83 85 88 90 93 97
45 38 41 44 44 39 32 37 31 28 29 28 28 34 38 37 37 38 39 40 42 42 42 41 42 44 47 51 56 59 62 65 68 70 73 76 79 81 83 87 90 94 98 102
48 44 43 48 43 39 37 38 38 35 34 35 36 33 35 41 43 44 45 45 45 45 45 46 47 49 52 54 56 59 62 65 68 71 74 77 79 82 85 89 93 95 97 100
51 45 45 46 44 44 44 40 42 42 42 42 41 41 37 38 42 46 48 50 51 50 50 50 51 52 53 56 59 61 63 67 70 72 74 75 78 82 85 88 93 96 97 100
50 47 48 47 44 48 46 43 47 46 45 46 46 46 46 42 42 44 45 48 51 53 54 53 55 56 57 59 60 62 63 65 69 73 77 79 81 85 88 91 94 98 101 104
52 50 53 49 47 49 49 50 51 50 50 51 49 50 49 47 45 45 44 44 45 47 50 52 54 54 55 56 58 62 66 69 72 75 78 82 86 87 91 96 100 101 103 106
52 58 53 49 50 52 53 55 54 55 53 53 53 55 54 50 52 47 47 47 45 45 47 50 52 54 57 61 64 68 70 75 77 82 84 86 87 90 97 101 102 104 105 104
56 58 55 55 54 55 57 59 58 56 56 58 60 60 55 54 53 50 48 45 48 50 52 54 57 61 63 67 71 74 78 80 83 87 87 88 93 99 101 100 102 103 104 103
58 59 59 60 55 58 59 61 62 60 61 65 63 64 60 59 55 51 52 53 54 56 58 60 64 68 71 74 78 80 85 89 90 92 92 96 98 98 100 100 101 103 104 105
62 60 59 62 58 60 64 65 65 65 69 65 61 56 55 55 55 56 59 62 65 65 65 70 74 76 80 85 87 89 92 94 93 96 99 99 100 101 102 103 103 104 107 109
59 57 58 61 62 63 65 69 69 69 69 64 61 59 55 57 60 60 64 65 69 72 75 77 80 85 88 88 90 92 93 94 99 101 101 101 103 105 105 106 107 109 111 111
58 59 61 62 62 65 69 70 70 71 69 64 59 61 56 61 64 68 72 72 74 76 78 84 87 86 87 91 92 94 98 101 103 103 102 105 108 108 109 111 112 113 113 111
62 60 61 65 68 68 71 75 70 73 77 74 64 62 68 71 72 70 75 80 82 84 87 88 87 89 94 95 97 102 106 105 105 105 109 111 112 113 113 113 114 116 114 107
62 64 67 72 73 74 75 74 78 81 83 76 69 66 65 66 69 75 79 81 86 88 86 88 92 96 99 100 104 107 107 107 110 113 114 115 115 114 114 116 115 111 104 97
65 69 72 73 74 76 74 81 82 81 73 67 64 66 70 74 79 86 87 93 84 90 92 95 99 102 103 109 112 114 113 113 115 115 116 116 116 116 117 114 108 100 94 89
70 73 75 74 76 78 78 77 77 71 74 76 77 78 84 86 91 96 95 102 100 98 102 105 107 110 112 117 117 118 116 116 117 117 118 117 117 114 110 104 97 93 90 87
77 77 75 75 78 77 75 77 77 78 83 86 88 89 92 95 98 100 102 104 107 109 107 110 113 113 116 118 118 118 117 118 119 119 117 115 112 107 100 96 93 90 86 82
76 77 78 79 80 80 81 83 82 86 90 94 97 99 100 102 103 105 110 110 110 110 113 114 116 120 120 117 117 117 118 118 115 113 111 107 101 98 96 92 89 85 82 79
80 81 81 82 83 85 89 90 91 94 97 99 101 102 107 108 109 112 113 112 114 115 116 118 119 118 117 117 118 117 114 112 109 107 103 99 96 93 91 88 84 81 78 74
80 78 80 82 87 90 90 93 94 95 97 101 103 105 107 111 114 116 116 115 115 116 115 114 115 116 117 115 112 108 105 102 99 97 95 92 90 87 84 82 80 76 73 69
82 84 87 90 91 93 96 99 101 103 104 107 109 112 115 114 114 113 114 114 113 112 113 113 112 110 107 104 102 98 95 94 92 90 88 86 85 83 79 76 73 70 68 65
87 89 91 91 92 95 98 101 105 108 109 109 108 110 112 112 112 111 108 108 109 109 107 104 102 100 99 95 93 92 90 88 86 85 83 80 78 76 74 71 69 66 63 60

GFSNGP_250_spd_036.txt.gz
Wind_Speed
75 64 60 57 52 53 47 48 41 42 39 34 39 39 44 40 41 35 39 34 33 29 35 36 38 38 39 40 39 39 40 40 43 45 46 47 49 52 54 56 59 63 67 71
79 68 64 62 54 52 44 46 46 44 41 35 39 40 41 41 38 37 36 37 35 32 31 32 32 33 36 37 38 38 41 46 46 46 50 53 53 54 56 58 61 63 66 70
82 73 68 66 57 54 55 54 50 44 45 38 37 37 36 32 31 33 32 36 33 31 30 30 33 34 36 38 41 42 43 43 45 47 50 53 53 53 52 52 54 57 60 65
85 82 74 58 57 53 51 54 54 50 45 42 35 39 34 31 30 28 26 26 28 30 33 34 36 39 40 40 41 42 41 42 43 45 46 47 48 49 52 54 57 61 65 68
91 81 70 65 56 55 51 52 50 44 44 39 37 36 33 32 31 26 27 28 26 27 29 34 37 39 40 41 42 44 46 49 51 51 52 53 54 55 58 60 63 66 68 70
90 83 73 62 60 60 55 42 50 50 43 39 36 39 37 40 33 29 27 28 27 28 32 34 37 42 45 47 50 51 54 56 55 55 56 57 58 60 63 64 64 64 63 67
90 81 73 61 63 64 50 53 52 44 43 41 42 41 44 40 36 33 30 29 31 33 39 39 38 38 41 44 49 54 58 60 60 60 60 59 60 61 61 59 60 66 70 73
86 79 66 61 64 60 51 58 48 48 47 44 45 45 46 46 40 36 37 35 37 38 42 45 47 45 43 46 49 51 52 53 54 54 55 55 55 56 58 63 66 71 75 78
74 57 57 65 64 63 57 56 53 53 49 48 48 48 51 51 44 40 41 42 45 46 47 50 52 49 49 52 54 53 54 53 54 52 53 55 58 62 65 68 73 79 82 78
55 57 60 55 66 62 57 55 59 50 46 48 50 51 56 51 48 46 46 48 53 49 54 53 55 60 54 56 58 57 55 55 55 56 58 61 65 65 68 72 76 81 79 82
62 63 61 70 69 64 59 52 54 52 50 54 52 55 55 55 53 52 52 54 56 58 61 60 61 60 61 63 64 60 56 56 58 57 53 53 56 60 63 71 73 77 84 89
61 64 70 72 63 59 55 52 55 53 56 55 57 56 56 57 55 56 58 58 60 63 64 66 64 66 67 69 69 64 59 56 58 58 60 61 64 66 73 77 85 90 94 99
67 71 68 67 67 67 63 58 57 57 59 58 59 57 62 62 62 60 61 62 65 67 71 68 70 73 71 72 72 71 65 64 62 62 69 69 72 77 81 89 93 101 102 104
71 68 67 69 65 65 62 62 60 60 63 60 60 64 65 65 64 64 60 63 69 72 74 76 75 78 77 80 85 76 69 66 70 70 77 80 83 85 89 97 103 109 107 111
69 65 66 68 70 70 66 61 62 62 65 64 65 65 66 65 67 64 67 70 72 74 77 79 80 80 82 85 90 87 83 77 75 79 83 87 91 97 104 108 113 114 115 115
65 68 69 67 67 70 76 70 70 72 69 66 67 67 67 68 67 69 72 74 76 79 81 81 82 85 87 89 94 94 90 86 86 88 92 97 101 107 113 118 121 120 122 122
64 66 66 69 72 71 71 70 71 69 68 70 69 69 69 68 70 75 75 78 81 84 82 84 87 90 92 94 99 97 96 95 95 97 101 106 110 116 121 124 122 126 123 122
67 67 64 64 64 65 67 68 69 71 70 71 72 73 73 72 77 79 80 84 87 87 88 91 93 95 98 100 99 101 100 99 101 104 108 112 118 123 124 122 125 123 124 123
65 64 66 68 68 66 63 67 71 73 75 76 77 78 79 81 81 83 86 89 90 90 91 94 98 101 103 101 103 104 104 106 109 111 115 120 123 123 122 124 123 125 126 127
70 71 70 70 72 72 74 77 77 79 80 80 81 83 83 83 85 87 90 92 91 91 96 101 102 103 102 105 106 107 107 110 113 115 119 121 122 125 124 123 125 127 129 127
72 75 77 79 79 80 81 81 82 82 82 83 85 86 86 85 87 89 91 93 96 99 102 101 104 106 108 110 109 111 114 115 117 121 124 123 123 124 123 124 127 126 124 121
71 73 71 71 74 78 82 84 84 85 84 83 84 86 88 89 90 92 95 98 102 106 109 108 108 109 111 111 114 115 117 118 121 123 123 122 121 121 123 124 123 121 117 113
69 70 71 69 70 71 73 75 77 79 83 87 89 91 93 95 97 101 104 106 107 107 108 109 110 112 112 114 117 117 118 119 120 121 122 121 121 122 120 118 116 112 109 106
74 74 74 75 75 76 78 81 84 86 89 92 95 99 102 104 106 107 108 108 109 110 109 106 110 114 116 116 117 117 116 117 120 120 119 119 117 116 115 111 108 105 100 96
77 79 80 82 83 86 87 89 90 93 96 98 100 101 103 106 107 108 110 109 108 108 110 111 110 110 112 113 114 115 116 117 115 116 115 114 110 107 104 101 97 94 91 86
80 81 81 82 84 86 88 90 91 93 97 99 100 103 103 105 107 106 106 106 107 105 106 109 112 113 112 113 113 113 112 112 110 109 107 104 101 98 94 91 88 85 80 78
85 86 88 89 90 90 91 92 95 96 96 96 98 101 101 101 101 102 103 104 107 108 109 109 109 108 108 108 108 107 105 103 100 98 96 94 91 88 86 82 78 76 74 72

GFSNGP_250_spd_039.txt.gz
Wind_Speed
70 68 68 66 65 61 57 47 40 34 31 43 39 47 38 40 43 42 38 35 30 26 30 34 28 29 30 28 29 39 45 50 53 55 57 53 52 53 57 59 64 69 70 69
82 78 77 73 64 62 59 47 39 39 32 45 44 45 40 39 41 42 39 37 37 29 26 30 30 31 31 30 28 32 37 42 44 47 48 50 53 57 58 59 60 62 64 65
85 83 83 84 64 58 55 53 44 46 40 41 42 40 40 41 40 40 36 34 35 35 25 24 30 32 31 33 34 34 35 38 41 42 44 47 49 51 51 54 56 58 59 61
87 87 93 72 70 67 64 56 50 47 41 37 41 46 41 45 36 33 33 38 36 35 31 26 24 25 26 28 30 32 33 36 38 41 45 50 53 54 56 58 59 61 62 64
96 92 88 79 72 73 69 61 55 50 44 40 42 47 42 46 37 34 32 36 37 32 25 19 16 18 22 25 28 31 32 34 38 42 47 51 54 57 59 59 61 62 62 64
99 96 91 81 79 81 75 66 63 60 53 54 51 38 45 45 42 40 42 43 40 36 29 22 20 22 25 25 27 29 30 37 40 43 45 47 50 51 53 55 57 59 60 60
101 94 91 87 86 83 80 65 67 66 60 48 43 41 49 45 42 42 45 46 45 38 34 30 26 30 29 32 35 35 40 45 46 50 52 53 53 54 55 57 58 57 58 61
98 95 89 89 92 88 75 73 75 69 62 54 45 46 53 50 43 46 49 49 48 45 40 39 39 43 44 45 44 47 49 50 53 55 57 57 56 55 58 60 61 62 62 63
81 78 81 87 87 86 86 83 81 71 61 53 47 50 51 50 49 52 51 47 49 52 47 47 48 49 52 53 53 53 56 58 58 59 57 61 59 60 58 57 58 60 59 61
71 73 67 68 73 79 81 80 74 68 63 54 51 51 52 56 51 47 46 49 49 53 50 52 55 57 58 58 59 62 62 61 63 64 65 66 68 68 65 65 66 64 68 74
63 61 60 55 58 61 67 67 63 58 58 56 56 53 55 56 52 52 48 50 52 57 58 57 58 59 59 61 63 65 69 69 69 71 69 72 74 77 69 68 69 71 75 80
59 56 51 49 49 49 55 54 53 54 57 60 57 54 53 54 53 54 54 54 57 62 64 62 61 62 62 63 67 70 71 71 74 74 75 79 79 81 80 79 77 77 80 82
47 44 45 51 53 56 51 57 53 56 62 56 59 57 54 54 55 56 58 60 62 67 68 67 66 66 67 68 71 73 74 77 77 77 81 84 85 87 86 87 88 87 87 87
44 43 51 57 58 55 49 56 60 58 55 64 59 59 61 57 59 61 61 64 66 70 70 71 71 72 70 73 75 76 80 81 82 83 85 89 91 94 94 95 96 95 96 94
47 48 56 60 62 59 61 62 59 60 59 62 59 57 60 61 65 65 64 67 70 73 72 75 75 76 76 79 80 81 85 88 88 88 90 94 96 99 99 99 100 101 101 101
45 50 54 57 63 63 64 65 65 65 62 63 59 60 65 66 67 69 69 72 77 78 77 77 79 80 82 84 86 88 91 92 92 93 95 100 102 105 106 105 105 106 106 107
49 54 58 58 65 64 62 64 67 68 67 65 66 68 69 71 76 76 78 79 81 78 78 80 84 84 85 89 90 92 93 95 98 99 102 108 110 109 109 107 107 110 113 115
53 54 58 62 64 65 65 66 65 66 67 69 69 71 72 74 76 78 81 81 84 82 84 86 87 90 93 93 94 94 97 99 101 105 111 116 113 110 111 110 113 116 118 122
51 53 57 59 60 63 66 67 68 69 70 72 74 76 78 75 77 78 79 82 84 87 88 91 95 96 97 96 97 99 101 102 107 113 116 113 112 113 113 115 117 119 124 125
57 58 59 60 61 62 64 66 69 71 70 71 73 74 75 78 80 81 83 85 90 94 95 98 100 100 99 100 102 104 106 111 116 117 115 116 114 114 116 117 121 123 127 128
60 63 66 66 66 67 68 67 69 69 69 73 76 79 82 84 86 88 90 95 99 102 101 102 102 101 102 105 107 112 116 116 116 116 116 114 116 119 120 122 125 126 127 127
64 66 68 67 68 71 74 76 76 76 77 79 81 84 86 89 93 97 100 101 100 100 100 100 103 106 109 112 114 115 115 116 116 116 116 117 118 119 120 123 125 124 122 118
67 69 70 71 72 72 73 76 80 83 84 86 89 91 90 89 90 90 91 92 95 98 102 106 110 113 114 114 116 116 116 117 117 118 118 118 119 121 120 120 118 115 114 109
68 69 69 70 73 75 78 79 80 81 82 81 82 84 87 88 89 92 95 98 102 106 109 110 110 113 115 115 116 117 117 116 116 116 117 117 116 117 114 112 110 106 104 103
70 71 73 74 75 76 77 79 82 84 85 86 86 88 92 94 97 99 101 102 104 106 108 111 113 115 115 114 114 113 113 113 114 114 114 113 110 108 106 102 100 97 95 93
74 75 76 77 79 80 81 82 84 86 88 91 93 94 95 96 98 101 104 104 105 107 109 110 109 109 110 110 111 110 110 109 109 107 105 103 102 99 97 95 93 90 87 84
79 80 81 82 83 85 87 89 90 92 93 94 97 99 99 98 98 99 100 101 102 102 103 103 104 105 105 105 105 105 104 101 100 99 97 95 92 90 88 86 84 80 77 75

GFSNGP_250_spd_042.txt.gz
Wind_Speed
83 73 78 73 67 64 60 54 48 45 44 46 41 39 39 36 28 29 34 36 40 37 30 15 11 14 22 26 33 34 41 46 47 46 51 48 52 58 59 63 67 71 75 81
83 78 80 80 72 65 60 55 51 46 45 46 45 42 39 31 28 27 33 34 35 36 38 32 23 19 18 17 24 30 40 42 45 52 56 61 62 64 69 73 76 78 80 81
89 88 83 84 71 71 67 63 59 48 50 50 45 43 29 36 31 28 33 34 36 32 32 35 33 28 26 20 19 23 34 39 45 51 55 58 62 62 63 64 66 67 67 70
89 92 92 68 75 76 76 71 67 60 57 52 48 45 41 36 28 26 35 35 33 32 34 36 34 32 29 24 24 24 24 26 28 34 41 45 49 52 56 61 66 70 74 77
81 89 89 85 76 76 77 74 69 67 64 60 52 50 44 43 33 34 34 36 33 36 34 39 35 32 33 28 23 16 17 22 24 22 26 30 32 33 36 37 42 48 54 59
82 86 89 89 87 84 83 74 73 71 68 64 61 55 49 47 41 40 33 38 40 37 35 38 40 36 32 32 27 27 25 25 26 28 30 32 34 40 41 41 43 49 50 51
79 79 76 82 90 88 90 73 80 80 76 71 70 61 60 55 51 49 42 38 41 39 36 40 45 44 40 39 39 40 40 39 38 38 38 40 42 44 45 49 51 53 55 57
78 79 77 79 87 93 85 85 86 83 79 79 75 69 67 64 58 52 45 42 43 44 47 46 48 48 47 47 45 45 47 49 50 50 49 49 51 53 53 55 55 58 61 62
78 78 78 73 77 82 87 85 86 87 83 78 70 65 62 61 57 55 49 46 45 45 46 46 47 47 51 53 52 51 53 56 56 57 57 57 59 60 60 60 62 63 67 68
74 72 69 76 71 70 74 79 85 88 86 82 78 73 68 63 56 51 54 51 46 47 47 44 49 50 51 53 54 57 60 60 62 62 61 63 66 67 66 68 68 69 71 74
65 68 71 68 65 65 61 62 66 70 73 73 73 61 58 57 61 56 57 54 50 50 49 48 54 54 54 57 60 62 64 64 66 67 67 68 69 71 72 75 77 77 77 79
69 72 70 71 70 66 60 57 55 55 54 55 52 50 50 52 53 55 60 59 55 54 51 52 55 59 61 62 66 68 69 70 71 72 73 74 74 76 78 80 83 83 84 85
65 71 75 71 62 57 51 46 46 46 49 50 52 59 59 54 59 61 61 65 60 58 58 58 59 62 64 68 71 74 75 77 78 76 78 79 79 82 84 86 88 88 88 90
65 65 67 61 52 50 48 46 48 57 58 60 58 57 51 51 52 55 59 62 64 63 62 62 63 67 71 75 77 78 80 83 82 81 83 85 85 89 91 93 92 93 94 97
58 60 60 47 44 48 46 49 53 45 52 49 48 51 47 45 51 55 58 59 63 64 66 70 73 74 78 80 82 84 86 87 86 87 89 90 93 95 97 97 97 98 100 105
64 61 56 44 43 45 48 55 56 56 54 51 51 52 56 56 55 58 60 64 66 68 71 73 74 80 83 84 86 87 89 91 92 92 94 95 99 101 102 100 100 103 107 113
53 50 49 45 40 47 57 58 60 66 60 53 54 59 56 53 55 58 61 66 68 72 72 75 76 82 87 86 87 92 96 95 94 97 99 103 106 105 105 103 105 110 116 121
49 47 47 47 47 51 56 60 58 57 61 58 56 58 60 60 61 62 67 70 73 77 78 81 82 83 88 93 96 98 94 94 97 100 105 109 108 108 106 110 114 119 123 121
48 48 48 48 48 47 49 53 52 52 59 65 67 66 65 65 68 72 74 76 77 80 82 85 89 94 94 94 97 96 97 99 103 108 109 108 106 108 112 117 121 120 120 121
44 48 50 47 44 48 51 56 59 60 60 61 66 73 73 72 73 75 77 79 82 83 85 87 89 91 93 94 96 99 102 108 110 109 105 107 111 115 119 120 120 121 120 119
48 48 49 50 50 52 55 56 58 60 63 66 69 70 72 75 78 81 83 83 85 87 86 86 89 95 97 100 103 107 108 107 106 108 110 114 117 119 120 121 121 119 118 118
50 51 53 54 56 58 59 61 63 63 65 68 70 71 74 76 79 82 84 86 89 91 93 96 99 101 104 108 109 107 106 108 110 112 115 118 119 119 118 118 117 118 118 117
57 57 57 59 61 63 64 66 67 68 71 73 75 78 80 83 86 89 92 94 95 97 99 103 106 109 104 103 105 106 109 112 114 116 118 117 117 116 115 115 115 115 116 115
58 60 60 61 63 65 67 69 70 71 73 76 79 83 85 87 90 91 93 95 98 100 101 100 101 102 102 106 109 111 113 115 116 115 115 114 113 113 112 112 112 110 108 105
60 62 63 65 67 69 71 73 74 76 79 81 83 84 85 86 87 90 92 92 93 94 96 98 101 105 108 109 111 112 112 113 114 112 111 109 108 107 105 103 101 98 95 92
64 66 67 68 70 72 73 75 77 79 80 82 84 86 87 88 89 91 93 94 96 98 101 103 105 106 108 108 107 107 106 104 104 104 103 101 99 97 95 93 91 89 87 85
68 71 73 75 75 76 79 81 83 84 85 86 87 88 89 91 93 94 96 97 99 101 102 103 103 102 101 100 99 100 99 98 96 95 93 91 89 87 86 85 84 82 80 78

GFSNGP_250_spd_045.txt.gz
Wind_Speed
84 82 84 82 78 76 70 60 61 50 51 54 52 45 38 34 37 38 39 44 40 35 29 33 31 29 25 23 23 29 32 32 32 39 42 46 47 54 56 52 53 57 60 64
92 92 90 86 78 75 75 70 67 54 52 53 57 51 42 41 41 34 37 37 36 36 28 33 31 31 30 25 20 23 30 32 31 35 40 45 52 54 54 56 60 65 65 70
95 95 98 94 87 85 82 74 67 63 59 57 57 55 47 42 41 41 33 33 29 31 32 31 33 32 35 36 28 25 25 25 29 34 41 47 49 54 61 63 64 65 69 72
86 91 96 84 92 90 87 82 77 67 64 62 59 59 52 45 41 44 38 42 39 27 32 34 34 35 34 34 31 31 31 30 31 34 39 41 43 46 50 54 56 60 60 54
84 79 80 77 81 89 92 80 76 75 71 69 68 65 55 54 47 45 47 44 41 35 29 36 36 38 36 31 30 34 34 34 34 31 33 38 41 43 45 48 49 51 54 56
78 78 73 55 76 90 90 76 82 80 78 71 77 70 60 64 58 46 49 47 46 39 39 35 38 41 40 36 32 40 42 37 36 41 38 37 43 47 48 50 53 55 56 56
71 75 59 62 77 76 79 73 86 84 82 78 75 68 69 69 68 61 53 54 51 50 49 38 40 42 44 43 42 44 48 46 41 41 43 43 47 46 50 54 59 61 63 64
66 68 56 68 71 73 68 69 78 78 80 81 80 73 71 71 67 62 59 61 58 54 49 47 44 45 48 47 48 48 49 48 48 47 48 50 53 54 55 56 57 59 63 67
65 56 62 68 66 61 66 66 71 77 76 81 83 82 75 73 68 64 68 61 58 51 50 51 49 51 51 51 49 53 53 51 52 52 53 57 58 58 61 63 65 67 68 70
58 54 60 64 63 63 62 59 68 69 72 77 84 85 80 77 74 70 66 62 59 56 57 58 53 55 56 57 55 53 53 54 56 56 60 62 63 64 66 68 71 74 74 74
52 59 62 62 60 61 59 62 60 59 59 60 63 71 79 78 77 78 77 71 68 63 59 59 58 57 61 61 61 59 60 57 59 61 63 66 67 71 71 74 77 81 81 81
54 60 58 61 63 61 59 58 61 56 53 56 59 63 65 68 72 71 68 68 65 60 63 67 65 61 63 65 65 65 66 64 63 65 67 71 74 76 78 81 85 87 88 87
54 60 61 64 63 63 64 66 64 56 54 50 45 43 44 49 59 62 64 63 59 63 66 68 71 67 68 69 67 69 69 68 68 71 73 77 81 82 84 86 90 91 92 92
51 58 64 67 67 66 66 63 59 55 44 41 40 47 54 55 61 62 63 64 65 67 72 73 72 72 68 71 72 73 74 76 75 79 82 83 85 87 87 92 93 95 97 96
53 56 60 66 68 68 65 61 58 49 48 49 51 54 61 62 57 59 62 66 66 68 71 70 65 66 71 75 77 79 79 78 80 82 83 85 86 88 92 94 97 99 101 102
53 54 55 60 61 66 63 61 56 54 57 54 52 53 54 56 63 63 66 64 65 61 62 61 66 71 71 72 74 75 76 79 82 86 88 92 93 94 96 100 101 106 105 104
52 52 52 54 60 64 68 62 57 50 49 53 57 59 58 57 58 59 58 55 61 68 63 62 69 75 72 72 75 77 82 85 87 91 95 94 96 96 101 104 108 104 106 108
49 51 51 51 59 67 69 58 47 49 51 56 60 62 63 63 64 66 60 60 66 70 74 77 75 78 79 80 81 83 87 90 94 94 93 95 99 103 103 107 105 107 110 113
45 47 47 48 53 58 57 53 48 52 54 59 60 61 61 68 70 71 73 71 70 70 70 71 73 78 82 85 88 89 89 91 93 95 97 100 102 104 106 107 109 113 118 118
39 39 41 44 48 52 56 50 51 52 56 62 57 59 64 65 69 79 78 77 77 75 76 78 83 86 88 89 91 92 92 93 98 102 100 102 106 109 109 113 117 121 119 121
35 34 36 41 49 54 54 53 54 55 54 53 59 64 66 66 67 69 73 77 80 82 84 86 86 87 87 91 93 98 102 101 103 106 107 107 108 111 115 119 119 121 122 124
30 31 34 39 46 48 52 53 54 55 57 62 63 64 68 72 76 78 80 81 82 84 86 88 90 91 94 96 98 101 104 105 106 108 109 110 112 112 113 117 120 121 122 120
35 39 42 45 49 53 54 54 57 59 63 66 67 69 72 74 76 80 81 82 84 86 88 90 93 95 98 100 101 103 104 105 105 107 108 110 112 114 118 119 118 118 115 113
41 42 44 47 50 54 57 60 63 66 68 71 73 75 77 79 80 81 84 85 87 89 90 92 94 96 97 99 100 102 104 106 107 109 111 114 115 115 114 113 110 109 108 107
41 44 48 52 55 59 62 64 67 70 72 74 76 78 80 82 83 84 85 86 88 89 90 92 94 97 99 100 102 104 106 107 109 110 109 109 108 106 106 105 104 103 100 97
49 52 55 58 62 64 67 70 72 75 78 80 82 83 84 83 84 85 87 89 90 91 93 95 97 99 101 101 102 103 103 103 102 103 102 102 101 100 98 96 94 91 89 88
56 58 61 64 67 69 72 74 75 76 77 78 78 80 81 82 83 85 87 89 92 93 94 95 96 97 98 97 96 97 97 97 96 95 94 92 91 89 87 86 85 84 82 81

GFSNGP_250_spd_048.txt.gz
Wind_Speed
76 76 79 76 74 75 74 72 70 63 58 50 56 51 51 46 46 43 39 37 41 41 35 33 31 32 35 31 33 30 28 27 25 29 34 37 39 40 43 45 46 46 50 53
84 83 82 81 80 79 80 78 74 71 64 59 55 57 53 47 47 46 46 42 46 44 40 38 33 31 37 38 34 36 32 28 25 21 26 34 39 42 44 45 46 48 49 54
84 89 90 85 82 88 86 85 81 77 71 66 62 58 56 52 49 47 50 49 45 46 44 41 36 30 30 37 40 40 41 36 34 30 25 23 25 32 38 40 45 47 50 57
91 93 93 84 91 94 95 89 86 80 76 73 68 63 61 56 54 52 51 51 53 50 51 46 39 36 34 34 40 41 41 41 40 38 34 32 31 33 35 38 41 45 47 50
92 96 96 95 97 99 103 94 94 92 86 79 76 73 58 61 61 60 57 55 54 49 53 50 44 41 41 40 38 44 42 42 37 34 34 33 33 35 38 41 44 45 48 52
87 87 90 91 89 91 93 82 88 89 80 78 76 70 63 71 69 67 64 61 60 57 51 53 49 45 45 42 42 43 46 48 45 43 40 39 36 39 40 43 45 48 48 46
81 81 82 86 79 81 80 80 82 83 79 78 74 70 69 71 74 71 71 70 66 62 62 58 62 58 47 50 50 47 48 50 53 55 53 50 45 46 46 50 52 53 54 57
75 75 76 80 76 78 73 74 73 69 80 73 73 74 75 74 75 76 73 67 74 74 69 69 64 68 64 57 55 49 52 54 54 58 59 59 59 58 57 56 57 58 60 61
69 69 69 68 69 71 74 71 64 65 73 69 69 71 78 82 81 80 79 77 71 75 77 74 75 68 71 65 61 56 55 60 61 61 63 61 61 64 65 66 64 64 66 67
64 60 62 63 65 67 68 62 60 62 64 69 69 70 75 78 82 84 85 85 81 76 74 72 71 66 72 71 64 60 60 62 65 64 65 66 66 67 67 68 69 68 70 74
53 53 53 60 57 65 66 54 56 60 63 66 68 69 73 76 80 81 81 81 82 81 78 74 72 71 74 75 72 69 70 67 68 71 70 69 70 71 70 71 75 78 77 79
51 51 52 55 52 58 62 54 53 59 60 66 63 69 66 68 73 78 79 81 82 81 82 79 75 75 78 79 81 78 76 75 75 76 78 76 75 77 78 80 82 83 84 85
48 50 49 53 51 52 54 54 55 58 62 60 66 64 62 64 67 70 74 75 77 74 73 75 75 76 78 82 85 84 83 83 83 82 82 83 87 88 86 86 90 91 91 91
50 49 46 53 50 50 52 54 54 57 60 61 61 60 54 51 51 58 61 64 66 68 71 73 75 78 81 82 86 87 89 89 90 91 89 89 88 87 88 91 92 94 94 94
51 49 49 54 49 49 54 53 55 56 57 59 58 56 51 48 49 50 50 53 59 64 66 68 69 74 82 81 89 89 89 92 92 91 93 93 92 92 90 89 92 93 95 96
48 46 50 50 48 47 45 46 50 50 51 53 58 57 48 47 54 54 53 53 56 58 62 68 75 74 82 87 87 86 85 87 90 93 92 88 91 90 88 90 93 94 97 101
40 44 50 50 47 45 44 45 50 53 57 58 55 53 51 51 55 55 55 54 58 62 67 73 80 81 86 86 88 88 83 86 88 86 84 87 88 91 93 94 95 99 105 108
43 48 47 47 47 45 44 46 50 54 58 60 61 60 57 55 59 60 63 62 66 64 67 74 77 78 81 83 82 84 86 86 87 88 90 94 95 97 100 104 108 109 109 110
42 45 45 46 44 43 45 47 51 55 58 59 59 61 61 61 61 61 65 65 69 75 76 76 77 77 78 80 84 85 84 85 88 93 97 100 100 100 102 105 105 108 109 110
38 41 42 42 41 42 43 44 48 51 58 60 63 63 60 61 61 66 69 72 72 73 75 80 81 83 84 84 83 86 89 90 91 93 95 98 102 105 108 107 109 112 114 115
28 31 34 35 37 39 41 43 46 49 56 60 70 68 65 63 67 69 72 75 73 76 80 84 85 84 86 87 89 95 98 100 100 100 100 101 105 108 110 113 113 115 116 117
28 31 34 37 39 40 42 44 45 46 50 57 63 63 63 63 66 65 72 76 80 83 84 85 86 87 89 90 90 91 94 96 99 102 103 105 106 108 110 111 113 115 116 118
28 32 35 36 38 40 41 42 44 47 50 52 56 61 64 68 71 72 75 79 82 84 86 86 87 88 90 92 93 95 95 96 98 101 102 104 105 107 109 112 114 116 117 117
31 32 33 33 34 36 38 40 42 45 49 53 56 61 66 70 73 77 80 83 84 85 86 87 88 89 90 91 91 93 95 97 98 100 103 105 108 110 112 113 112 111 110 108
25 27 30 33 36 39 41 44 47 50 54 57 62 66 69 73 77 78 79 81 82 83 85 86 87 88 90 91 93 95 96 99 102 105 106 108 107 107 106 106 104 103 101 99
34 37 39 42 45 48 50 53 56 58 61 64 67 69 72 74 76 79 81 83 84 86 88 87 86 87 89 93 96 98 100 101 102 101 101 101 100 99 98 97 96 93 91 89
40 43 45 48 50 53 55 57 59 61 64 66 68 70 71 72 74 77 78 80 78 81 86 89 90 92 93 94 95 95 95 94 94 94 94 93 92 91 89 87 86 85 83 81

GFSNGP_250_spd_051.txt.gz
Wind_Speed
68 67 66 66 67 68 67 69 65 61 60 56 53 56 53 50 47 44 42 38 41 46 46 45 45 41 38 32 27 32 25 28 27 28 29 30 29 30 33 36 40 40 43 45
77 75 75 74 73 74 72 69 67 65 60 60 58 56 56 54 52 52 43 42 44 46 47 48 49 49 46 42 31 29 31 33 29 31 31 33 31 31 30 32 34 38 41 44
80 81 80 71 68 70 71 72 70 68 66 66 63 61 59 61 58 54 52 49 45 50 52 54 53 53 47 45 38 35 35 36 33 34 34 35 36 36 34 33 32 31 32 33
77 77 79 70 73 79 81 77 76 73 74 73 71 68 66 65 64 59 55 53 50 49 55 55 56 53 51 49 48 42 38 40 39 38 41 41 41 40 40 43 43 40 39 38
76 79 74 75 82 88 88 84 85 81 80 79 77 73 70 71 66 63 60 62 61 59 55 56 58 59 58 57 51 48 43 41 39 39 45 49 49 47 46 44 45 44 44 43
83 84 84 84 89 92 93 88 90 87 84 83 81 77 77 77 76 69 70 69 66 64 58 64 62 61 60 60 55 54 55 47 44 43 45 52 55 54 52 53 51 51 51 51
87 88 89 92 94 96 98 98 98 97 96 95 93 91 88 88 83 81 76 75 74 71 65 68 68 65 63 62 63 62 57 57 51 49 49 54 55 55 56 59 61 62 61 61
96 95 98 98 95 94 95 96 96 93 93 92 93 93 90 88 84 81 80 79 75 74 70 70 72 70 68 69 68 67 65 64 62 62 58 61 62 62 62 62 63 65 68 69
79 81 83 86 86 85 82 87 88 84 82 78 73 77 79 78 83 83 85 85 83 80 76 75 75 75 78 76 75 75 76 74 71 69 70 76 69 70 68 68 70 71 68 71
75 78 79 80 79 80 80 81 81 80 76 70 65 64 68 72 75 81 85 90 89 87 85 83 77 77 76 75 73 73 71 74 76 74 76 80 80 76 76 75 75 77 78 79
68 69 70 73 72 74 75 76 75 74 71 63 61 61 65 73 71 73 77 84 86 88 87 84 81 80 80 79 79 77 77 80 76 75 76 82 84 85 85 84 84 83 85 87
60 62 64 67 66 67 67 67 66 69 67 59 59 58 60 66 70 72 72 74 78 82 86 84 86 86 87 87 89 88 86 86 86 85 82 84 87 90 91 93 93 92 92 95
54 56 59 59 63 62 61 59 59 62 63 57 52 55 56 59 64 67 69 71 74 78 82 83 86 88 89 88 87 87 87 87 87 86 88 90 94 92 96 97 100 99 98 100
55 56 57 58 60 58 49 47 54 58 56 52 48 52 56 61 61 66 67 68 68 71 72 77 84 87 88 88 90 88 88 89 91 92 93 97 97 98 100 100 100 103 105 106
60 57 54 54 49 43 43 43 51 53 48 49 47 54 57 56 56 61 64 65 67 70 71 72 75 76 77 79 82 89 87 91 96 96 96 100 103 104 104 102 104 106 110 111
52 52 55 55 47 47 51 48 52 46 42 43 45 50 55 57 59 62 63 62 65 69 70 68 66 68 71 75 78 83 82 84 93 96 97 92 98 99 102 108 108 105 105 105
40 42 41 42 45 46 48 49 47 41 38 39 43 47 50 54 58 60 62 62 62 63 64 63 65 68 74 75 77 81 84 87 90 94 94 96 99 98 102 104 106 106 102 101
33 33 33 32 36 40 45 46 41 38 37 40 41 44 48 54 61 62 63 61 61 60 66 67 67 67 71 75 77 80 82 86 88 92 95 98 100 104 108 110 106 102 102 102
28 28 29 32 34 37 40 40 38 37 39 39 40 40 43 48 53 57 61 64 62 61 65 70 71 74 76 77 80 83 84 85 89 92 95 97 99 100 99 98 98 99 100 102
22 25 30 32 34 36 36 35 34 35 37 38 40 42 44 51 57 62 62 62 66 68 71 71 73 77 80 82 85 86 91 93 93 97 101 102 102 100 101 101 101 100 100 99
21 23 26 30 32 34 35 36 37 38 39 42 45 46 51 55 57 60 63 65 68 69 74 74 74 77 80 82 85 91 96 99 100 100 99 97 97 97 99 100 100 101 102 103
21 24 26 29 33 36 38 39 40 41 43 44 48 51 54 56 56 60 65 67 71 72 76 78 77 81 83 87 91 94 93 93 94 95 94 94 94 97 100 102 102 102 104 107
22 25 27 28 30 32 34 36 38 40 42 45 47 49 51 53 56 60 63 68 71 72 75 77 79 82 85 88 88 90 92 92 91 90 90 93 95 97 97 98 100 103 105 108
15 17 20 24 28 31 34 35 37 39 42 45 47 50 52 55 58 60 63 66 69 73 75 77 78 80 82 83 83 84 86 88 89 90 91 91 92 95 98 102 106 107 107 106
21 21 23 26 28 30 33 35 38 41 44 47 49 51 53 56 58 60 62 64 67 70 72 73 75 77 79 81 82 83 84 86 88 90 93 97 101 102 102 102 101 100 98 96
26 29 30 32 34 37 39 42 44 46 48 50 52 54 56 59 61 63 64 65 68 70 72 74 75 77 80 83 85 87 90 94 95 95 96 96 96 95 93 92 92 90 89 87
35 38 40 43 45 46 48 50 53 54 55 57 59 61 61 62 63 65 66 68 70 74 76 78 80 82 84 86 88 89 90 91 90 90 88 88 87 86 85 85 84 83 82 80

GFSNGP_250_spd_054.txt.gz
Wind_Speed
72 68 66 65 66 65 63 62 60 60 58 57 53 49 50 53 54 55 54 49 50 45 40 38 38 34 38 40 40 39 36 35 35 29 27 25 24 24 26 25 25 25 26 33
79 77 75 71 68 67 65 63 64 65 61 59 53 55 57 61 59 57 55 51 52 52 49 43 42 39 41 44 42 40 39 38 39 38 35 30 28 29 30 32 31 30 29 29
78 82 78 77 73 70 65 62 61 60 64 65 65 64 63 63 63 58 57 56 56 56 53 49 47 47 44 47 46 44 44 43 42 44 43 39 36 35 35 35 37 38 38 38
83 79 77 72 74 73 72 72 73 70 68 68 68 68 69 68 60 63 61 60 58 59 59 58 49 52 49 47 48 50 48 45 47 47 47 49 46 43 42 42 42 44 45 47
82 78 76 74 76 80 80 82 82 77 76 77 75 72 71 68 66 65 66 64 65 67 65 64 56 56 59 55 54 53 52 52 53 50 50 51 50 52 55 50 50 50 50 53
81 81 80 83 87 91 88 88 84 82 82 82 83 82 74 75 72 71 73 75 75 73 68 61 63 61 65 60 60 57 60 58 58 61 58 54 50 56 57 56 57 57 56 55
86 84 85 91 93 93 91 87 87 84 83 79 79 79 76 80 81 79 78 77 76 76 76 73 70 69 68 71 65 65 64 66 66 65 63 63 60 60 61 64 63 63 62 61
81 77 82 83 81 82 84 84 85 84 83 84 86 85 84 87 88 86 84 84 86 86 86 84 81 78 75 74 76 73 72 70 71 69 69 67 65 64 67 74 71 71 71 66
87 85 82 86 88 90 89 90 93 93 93 91 90 89 89 91 92 94 94 93 94 96 96 93 85 83 83 81 81 79 80 76 74 73 73 71 72 77 77 77 78 79 74 74
90 91 91 89 90 93 95 95 97 99 96 96 94 93 92 89 88 90 92 95 98 101 102 100 97 94 90 87 82 81 80 78 78 77 77 76 80 81 81 79 80 80 79 81
86 91 91 91 92 94 93 93 92 94 94 91 88 85 82 78 74 74 74 76 82 88 94 94 93 89 91 89 87 85 83 83 84 81 76 78 80 80 82 83 84 87 89 88
78 80 81 81 80 83 83 84 85 86 86 83 81 77 77 74 70 67 67 73 71 75 81 84 85 83 80 84 89 88 86 85 88 86 85 84 87 90 92 92 91 95 99 99
73 75 76 77 78 80 82 82 81 80 80 80 74 69 72 66 62 60 59 62 64 65 69 72 77 77 74 76 80 84 88 89 91 91 92 93 92 96 97 99 100 97 99 102
67 70 70 71 72 75 74 73 74 72 69 67 64 61 65 62 59 57 57 57 55 61 58 52 59 66 72 72 70 70 76 82 87 88 93 96 97 99 100 99 99 101 103 103
63 63 66 67 69 70 71 69 64 56 50 51 53 55 55 50 53 52 50 54 57 54 56 62 72 49 70 61 67 68 74 75 81 91 87 93 97 99 101 102 101 103 102 106
57 58 59 60 60 62 58 57 53 49 48 49 54 55 47 43 49 49 49 53 55 56 58 61 63 66 69 65 76 71 75 78 85 87 84 87 87 92 89 91 89 96 101 100
52 54 58 58 55 57 58 54 50 49 48 49 51 49 43 43 46 48 49 51 55 56 59 58 64 66 68 76 79 78 78 79 83 86 87 88 90 91 94 97 98 101 103 108
49 55 51 46 48 46 45 43 44 44 47 48 47 45 44 45 48 49 49 55 60 57 59 67 69 72 75 75 77 77 78 79 80 80 81 84 86 91 100 104 108 108 109 111
37 38 37 38 36 36 38 37 37 38 39 42 42 42 44 47 48 50 52 57 60 64 69 70 71 72 74 72 75 78 78 80 81 84 86 90 93 95 97 102 106 109 110 111
32 32 30 30 32 35 36 35 33 31 33 34 38 40 44 45 45 47 51 53 56 62 65 68 74 76 77 74 73 76 80 83 86 88 91 93 96 99 102 104 105 109 112 112
21 22 23 24 27 29 30 32 33 34 34 35 36 38 41 44 46 47 47 49 52 54 59 65 64 66 74 78 79 80 82 85 89 92 93 97 99 101 103 106 109 109 106 105
22 24 25 26 29 30 31 32 33 33 33 34 37 39 41 43 46 48 50 52 55 57 59 60 63 69 74 79 84 87 88 88 90 94 97 97 100 101 103 104 104 104 104 102
17 19 19 23 27 29 30 31 33 35 38 40 41 43 44 45 47 49 51 53 55 58 61 63 67 70 72 74 77 82 83 85 87 88 89 90 92 94 94 93 94 94 96 98
15 17 17 21 21 24 26 31 34 37 39 41 42 44 47 49 50 52 53 55 57 60 62 65 68 69 70 71 72 73 74 76 77 78 80 82 85 86 88 89 93 96 98 100
20 21 23 26 25 27 31 33 35 37 39 40 42 44 46 48 50 51 53 55 57 59 61 63 65 67 68 70 71 73 75 77 79 80 82 85 88 91 93 94 95 95 93 93
22 25 28 29 31 32 34 35 37 39 40 42 44 46 47 48 50 52 53 55 57 59 61 64 66 68 70 72 74 77 79 82 84 85 87 88 89 89 89 88 87 86 85 84
30 33 35 37 38 39 40 42 43 45 47 49 51 53 54 56 57 59 61 63 65 66 67 70 72 74 77 78 79 80 82 83 84 84 85 84 83 82 82 81 81 80 79 78

GFSNGP_250_spd_057.txt.gz
Wind_Speed
70 68 69 68 63 64 68 67 68 66 67 68 67 65 62 60 65 63 59 51 45 46 48 48 46 44 46 42 41 42 38 32 41 39 36 36 36 36 31 29 27 27 28 29
66 63 70 70 66 65 65 69 72 73 71 72 71 65 64 66 67 62 52 47 46 52 53 55 53 48 48 48 45 42 44 39 37 43 44 42 40 38 41 40 38 35 33 34
80 73 69 67 64 69 72 70 73 76 77 72 70 69 66 68 65 64 55 52 57 61 60 59 57 50 53 54 52 48 47 45 44 40 48 48 45 43 44 44 44 46 45 42
86 82 76 74 70 71 71 72 72 71 70 68 67 64 68 63 61 62 63 66 65 66 64 63 58 55 58 58 58 55 53 54 52 48 48 49 48 48 46 47 49 51 52 51
92 86 83 80 80 81 81 82 77 77 72 71 68 69 72 65 70 71 71 73 72 70 69 67 66 63 61 63 65 64 61 58 55 57 56 53 52 52 52 51 55 57 54 54
86 86 88 85 86 87 86 89 82 78 78 76 75 73 69 70 73 76 78 78 75 73 70 67 67 69 67 65 67 69 68 64 61 60 63 62 57 55 57 58 61 62 61 60
94 93 89 90 89 90 87 88 80 84 83 82 80 77 77 79 80 81 81 82 79 79 76 71 73 74 71 71 75 76 72 71 71 65 65 69 68 67 67 65 67 66 67 69
96 91 91 96 95 91 90 89 87 88 87 85 84 86 87 90 91 89 87 89 88 86 86 85 83 82 80 79 78 77 77 76 77 80 74 74 74 75 75 74 71 70 71 74
96 94 93 89 85 88 90 88 89 89 89 90 92 93 93 95 94 91 88 94 96 92 88 83 84 84 88 89 84 85 87 88 87 88 85 82 81 79 80 80 80 77 79 78
94 100 97 93 88 91 90 91 90 91 93 94 96 98 99 101 97 94 95 91 89 89 91 92 92 94 95 95 94 94 97 98 97 96 92 88 88 88 87 87 83 80 80 80
86 88 92 97 98 99 98 96 96 96 96 93 93 94 95 96 96 93 93 93 92 90 91 93 95 96 99 102 104 103 103 103 104 101 99 98 96 94 90 87 88 86 82 84
83 86 88 90 88 90 92 95 98 99 95 94 95 95 95 95 94 93 90 86 84 80 79 80 82 85 86 86 85 87 87 88 86 85 86 89 89 90 92 91 91 90 91 91
76 79 82 84 86 93 94 96 98 100 100 99 98 96 93 92 88 82 77 74 77 72 75 77 75 72 72 72 74 77 77 74 71 72 66 69 70 71 79 86 91 92 93 95
73 75 75 78 79 84 86 87 89 91 92 92 91 90 86 83 80 76 74 73 74 66 67 65 64 57 58 54 53 63 62 57 62 66 69 71 63 63 68 73 82 86 86 86
68 70 71 74 76 78 80 82 82 84 85 85 84 83 81 76 71 67 68 67 67 61 61 61 59 56 55 54 55 58 69 66 59 58 59 65 57 67 70 71 68 72 74 83
59 62 67 70 73 75 77 79 81 80 80 77 73 70 68 67 62 59 61 57 57 55 55 57 59 61 61 57 59 61 65 68 72 69 65 59 62 71 72 76 83 82 87 95
55 57 60 61 65 70 72 73 72 68 68 65 62 60 58 54 52 56 60 57 57 55 57 58 61 61 60 64 66 70 71 72 70 74 79 70 76 80 84 88 89 92 96 101
51 54 56 58 61 64 65 63 59 56 55 57 58 57 56 56 57 57 56 55 53 54 56 60 61 62 60 64 71 75 76 76 79 78 82 81 90 93 95 96 96 98 102 104
47 49 51 54 56 57 56 56 57 56 56 55 54 54 53 52 52 54 53 52 54 55 56 58 61 62 65 68 72 78 83 81 87 85 89 93 97 99 101 102 103 99 102 104
52 56 56 54 55 56 54 52 52 51 50 48 47 46 45 46 45 46 49 52 53 55 56 57 59 61 65 70 74 74 80 83 89 90 93 97 99 98 99 100 101 103 105 106
49 47 47 46 47 47 46 47 47 45 44 44 42 40 39 38 39 42 45 49 51 53 54 55 57 59 61 66 69 71 76 81 84 86 89 91 94 96 98 98 100 101 103 106
35 36 36 37 37 38 39 39 38 38 38 38 38 38 37 38 39 41 44 47 51 53 55 56 58 61 61 64 69 73 75 78 81 84 87 89 91 94 96 98 101 104 106 107
28 29 29 28 26 26 30 31 33 33 34 35 37 38 40 42 44 46 48 51 53 55 58 60 61 63 65 66 69 72 75 77 81 86 90 92 93 93 93 92 94 95 95 94
20 21 22 24 27 30 32 33 35 37 39 41 42 43 44 45 47 48 50 53 55 58 60 62 64 66 68 69 72 73 75 76 78 80 80 81 82 84 86 88 90 91 91 93
23 24 26 28 31 34 35 36 34 34 35 36 37 38 39 41 42 44 46 47 49 51 54 55 57 59 61 63 65 68 70 73 75 77 79 82 84 86 88 89 90 91 92 93
25 27 29 31 32 32 33 35 35 36 37 38 39 42 44 47 49 51 53 55 57 58 60 62 64 66 68 70 72 74 76 78 80 82 83 84 85 87 88 88 88 88 88 87
28 30 32 34 36 37 39 41 44 46 48 50 52 53 55 57 59 61 62 63 65 66 67 69 70 71 73 74 76 77 77 79 80 82 83 83 83 83 83 83 82 82 81 80

GFSNGP_250_spd_060.txt.gz
Wind_Speed
64 66 62 56 59 60 61 64 63 59 63 61 66 70 65 59 56 59 58 54 52 50 49 45 49 50 49 44 43 40 38 40 43 43 43 40 36 43 44 41 41 40 38 37
77 66 66 61 60 62 65 64 66 60 63 67 72 68 62 58 59 61 60 56 57 53 52 52 54 47 46 48 47 47 46 44 49 49 47 45 43 40 39 50 46 45 44 42
78 74 64 62 63 66 67 64 65 66 67 69 70 66 61 66 66 59 62 62 59 60 57 58 57 52 51 52 55 53 50 48 51 53 51 49 50 50 50 46 44 53 51 47
84 75 75 71 67 69 68 69 69 68 70 67 64 62 70 64 61 65 66 66 66 65 64 62 59 56 53 62 65 62 55 54 55 57 56 60 59 58 56 56 55 48 54 58
91 84 79 76 74 75 72 70 72 74 73 68 67 68 70 69 71 72 73 74 73 70 66 62 59 61 63 65 66 65 63 65 64 62 61 63 63 62 61 61 60 60 53 56
97 91 85 81 78 70 70 75 77 76 73 67 67 74 72 70 71 73 72 71 72 70 69 66 70 71 73 76 75 74 71 65 62 62 61 65 67 67 66 65 67 61 61 61
101 97 93 89 87 83 80 77 70 69 69 71 74 74 76 73 73 72 75 74 72 71 71 73 77 80 81 83 82 81 76 71 70 66 67 69 71 73 70 67 70 70 67 66
94 103 98 94 94 88 88 88 83 78 75 80 79 80 82 82 81 80 81 78 76 75 75 80 82 84 85 86 85 83 82 83 77 76 78 79 79 79 74 75 77 75 78 80
98 93 97 105 100 97 95 95 92 89 86 88 87 88 88 90 88 88 87 89 90 86 83 90 89 89 89 91 90 91 93 91 91 88 87 84 83 83 83 84 83 88 92 91
94 100 99 95 93 95 98 99 97 97 97 95 94 93 94 92 94 93 89 89 88 87 90 92 95 96 96 98 97 99 97 97 94 91 90 92 91 90 87 85 90 92 91 92
86 97 102 99 99 98 97 95 95 94 93 93 96 97 98 99 101 100 100 102 100 98 99 101 102 102 102 103 101 102 97 98 99 98 100 101 101 100 100 101 101 100 99 101
80 86 92 100 107 102 101 98 96 94 94 94 96 98 99 101 100 101 102 103 103 100 101 103 102 101 104 104 102 99 101 102 102 102 101 102 102 100 98 97 99 91 87 90
75 82 83 85 99 99 95 97 100 102 104 104 102 102 102 102 101 102 104 104 104 100 98 95 93 93 97 96 92 87 87 86 86 84 83 85 83 82 79 78 77 79 72 67
74 74 76 80 86 91 94 95 98 100 102 104 105 106 107 108 108 109 108 105 101 97 92 87 81 79 84 84 81 77 78 76 77 77 76 76 71 69 58 58 54 43 50 66
66 70 73 75 79 81 82 87 91 92 93 94 95 97 98 98 97 96 94 93 89 85 82 78 78 79 78 75 70 66 68 68 66 64 66 59 48 55 50 49 47 44 47 58
58 64 69 72 75 78 79 80 80 82 85 87 89 90 89 87 86 85 85 85 84 81 76 74 74 76 75 72 68 65 66 65 62 62 56 52 58 72 64 64 66 68 74 73
51 55 59 63 67 71 74 76 79 82 83 85 85 85 83 83 83 83 81 79 77 74 71 69 70 71 69 66 64 60 63 66 64 66 61 65 83 86 81 73 75 79 80 76
48 51 54 57 60 64 67 70 72 75 77 77 76 76 74 74 75 74 73 70 68 67 65 67 69 68 65 64 64 64 62 65 70 74 74 80 84 79 76 88 84 79 79 80
46 48 51 53 56 59 62 64 67 68 68 69 68 66 64 64 64 65 67 66 64 62 60 63 67 68 64 62 62 62 61 64 73 77 80 86 87 83 90 95 92 88 88 92
45 47 49 51 53 56 58 59 60 60 60 60 61 60 58 56 55 55 54 53 53 53 53 54 55 58 60 61 62 61 60 63 65 74 80 83 89 95 96 97 102 102 99 106
46 46 48 51 53 54 56 57 58 59 59 57 54 52 51 50 47 46 47 49 50 50 49 49 51 53 57 59 62 63 64 65 68 68 70 76 84 89 96 99 100 99 105 108
49 51 52 53 54 54 53 51 50 48 48 48 47 45 43 45 46 47 48 48 49 49 50 50 52 54 57 59 62 64 65 66 68 70 72 75 78 82 88 93 97 100 101 105
38 41 43 44 45 44 42 41 41 42 43 45 47 47 47 46 46 46 47 48 49 51 52 53 54 56 58 61 63 66 68 70 71 72 74 76 78 80 83 85 87 92 94 95
30 31 32 33 34 34 36 38 38 40 42 44 44 44 44 45 46 48 49 50 51 52 53 55 57 59 61 64 66 68 71 73 75 76 78 79 81 82 84 86 87 89 90 92
25 27 29 31 33 35 36 38 40 42 42 44 44 44 45 46 46 47 49 50 52 53 55 57 59 61 63 65 67 69 71 73 75 76 78 80 81 83 83 84 85 86 87 89
25 27 30 31 33 35 36 38 39 41 43 45 48 49 51 53 54 55 57 58 60 61 63 65 66 67 69 70 71 72 73 74 75 76 77 78 79 81 82 84 85 86 87 88
28 31 33 35 38 39 42 44 47 50 52 54 57 58 60 61 62 63 64 65 66 67 68 69 70 71 72 73 74 75 75 76 77 78 78 79 79 80 80 80 79 79 79 79

GFSNGP_250_spd_063.txt.gz
Wind_Speed
72 70 65 72 69 63 58 57 59 56 53 53 54 60 61 57 56 49 47 53 55 52 54 50 50 48 45 43 42 40 40 46 46 44 38 39 39 40 42 41 42 41 38 41
79 78 71 69 64 62 58 53 60 60 60 61 58 60 68 68 59 54 52 53 50 50 52 51 49 51 50 48 45 46 46 45 44 49 47 45 45 46 44 49 48 46 49 48
84 79 78 75 68 59 63 58 59 65 70 70 68 66 68 67 56 55 53 52 54 52 50 50 48 48 51 52 53 49 50 50 53 55 55 53 51 50 49 48 50 51 56 56
82 83 81 80 71 61 62 71 72 76 74 76 73 72 67 59 54 55 52 53 57 57 56 55 52 51 51 52 53 54 52 51 57 60 58 60 62 57 56 58 58 59 60 59
82 83 82 82 79 69 70 73 72 71 69 74 74 66 65 67 62 54 52 58 62 60 59 58 58 59 59 59 60 60 57 58 60 65 65 63 61 63 63 66 63 59 63 67
90 85 83 84 83 75 78 79 74 69 70 68 64 68 72 68 62 61 63 67 62 61 62 63 64 66 67 66 65 63 63 63 62 61 64 68 72 72 73 74 67 64 65 68
92 87 85 85 82 87 85 75 66 69 71 67 72 74 73 69 66 66 71 70 67 65 65 68 67 67 68 67 67 66 66 65 68 69 71 72 74 78 79 78 75 72 72 71
99 94 91 90 82 80 82 82 78 71 73 70 71 73 70 66 69 72 73 70 70 70 71 71 71 70 71 72 73 72 70 69 73 76 81 81 83 84 82 82 79 76 77 76
87 93 98 96 94 85 79 79 82 79 76 76 77 74 74 73 72 76 76 75 75 74 74 75 76 77 78 78 77 73 74 77 83 86 86 88 91 92 91 91 90 92 89 86
84 90 89 98 101 94 95 92 87 84 79 74 74 74 74 73 72 72 73 74 77 79 82 83 84 86 87 87 89 89 88 87 87 89 94 95 96 96 97 98 97 95 96 92
74 82 92 92 97 99 99 98 94 95 95 90 86 85 82 83 84 84 85 87 88 89 91 93 94 95 94 94 94 95 94 91 96 94 97 102 104 106 108 107 108 109 110 107
65 70 80 97 98 94 98 100 101 102 102 102 98 98 97 97 99 99 99 99 99 100 100 101 102 104 104 104 107 109 107 106 108 107 106 106 108 110 111 109 107 106 103 100
65 70 78 82 89 98 100 102 96 96 103 106 102 102 103 104 105 105 106 108 109 111 113 114 113 113 113 112 112 113 110 106 105 109 108 106 106 104 105 104 101 97 93 88
59 64 68 70 74 79 88 95 95 94 95 97 101 105 106 108 108 108 108 109 109 109 110 109 109 110 109 109 108 108 106 105 104 101 103 98 93 94 94 93 91 89 87 82
51 57 65 69 72 74 76 81 85 88 93 99 103 104 105 107 108 110 110 110 109 110 110 109 107 105 104 102 99 95 91 90 88 90 93 89 86 87 86 84 81 78 79 76
50 54 57 61 68 72 73 74 76 78 82 85 88 91 96 103 108 108 105 103 100 98 96 96 95 93 92 90 88 86 86 86 87 87 86 80 79 79 78 79 76 74 72 70
47 51 54 57 61 65 70 73 76 77 77 78 81 83 85 87 89 89 89 88 88 87 87 87 88 87 87 85 81 80 80 81 83 84 81 75 74 75 76 78 77 75 77 75
45 49 52 55 58 60 64 67 71 74 76 78 80 81 83 84 85 85 84 84 84 84 84 83 82 81 80 78 75 74 72 72 74 76 70 66 65 67 68 71 72 73 76 73
41 43 46 49 52 55 58 61 64 66 69 72 75 76 78 78 78 77 77 77 76 76 76 74 72 72 72 72 71 69 67 68 69 71 70 66 66 67 69 71 73 76 76 80
39 41 42 44 47 50 53 56 58 61 64 65 67 69 69 70 70 70 69 67 66 65 64 64 65 65 64 64 63 61 60 61 62 64 65 65 65 66 70 73 75 78 82 84
42 43 45 47 49 51 53 55 56 59 60 62 62 60 60 62 62 59 57 58 56 56 55 55 55 56 56 56 57 56 55 55 56 60 63 66 67 68 72 72 76 80 81 85
40 41 43 45 45 47 49 52 54 56 57 57 58 58 57 55 54 52 51 51 50 51 52 53 54 54 54 55 56 56 56 56 57 58 60 63 66 69 71 73 75 79 89 90
42 44 45 47 49 50 52 54 54 55 54 52 52 50 50 50 49 48 50 50 50 51 52 53 54 54 55 56 57 58 59 60 60 61 63 65 67 69 72 73 75 76 79 83
37 40 41 43 44 45 46 46 47 47 47 47 47 48 48 48 50 52 53 53 54 55 55 55 56 57 58 59 60 62 64 65 66 68 70 71 73 74 75 77 77 78 79 80
30 32 34 36 37 38 39 40 41 42 44 45 47 48 50 53 54 55 55 57 59 59 60 61 61 62 63 63 64 64 64 65 66 67 69 70 73 74 75 76 78 79 80 81
25 28 30 32 34 36 38 41 43 45 47 50 50 52 54 56 57 59 60 62 63 64 64 64 64 64 65 65 66 67 67 67 68 69 71 72 73 75 75 76 77 77 76 77
30 32 35 36 39 41 44 46 49 50 52 56 57 58 59 60 62 63 64 64 63 64 63 62 62 62 63 63 64 65 66 67 68 69 70 70 71 71 71 72 72 72 72 72

GFSNGP_250_spd_066.txt.gz
Wind_Speed
67 76 68 67 64 67 69 56 57 58 53 52 48 51 52 47 48 53 60 60 58 53 50 46 44 42 41 42 44 45 46 45 40 38 38 37 37 40 40 39 38 39 39 38
70 78 76 71 65 65 62 64 60 59 54 52 55 50 44 51 51 52 51 53 59 60 56 53 50 47 46 46 49 50 48 48 45 46 42 43 43 42 43 45 47 46 45 44
72 76 82 74 70 70 68 69 66 66 60 58 58 60 60 56 46 52 60 56 56 56 56 56 53 52 52 50 49 50 51 50 51 51 49 47 47 48 51 53 54 53 53 52
75 79 77 83 80 75 68 70 66 63 65 66 66 64 64 62 60 59 61 52 52 55 57 57 57 57 57 53 52 50 50 50 52 53 52 51 52 51 53 58 58 58 61 60
78 82 78 81 85 83 75 72 70 70 73 71 72 70 70 68 67 66 66 61 57 56 58 58 56 55 56 56 57 58 56 55 55 55 56 58 58 55 58 61 64 63 64 62
79 82 78 80 82 76 80 75 74 77 77 73 68 67 69 71 68 68 71 70 64 60 59 58 58 58 59 59 60 60 59 58 57 57 59 60 60 61 61 65 65 64 63 64
78 87 82 84 81 81 77 72 74 75 76 70 71 69 70 73 74 75 75 74 71 71 69 68 66 65 64 64 64 63 62 63 63 62 61 60 60 63 65 67 66 69 70 71
74 86 86 88 85 84 85 83 81 82 80 75 73 73 76 72 74 73 73 73 73 73 70 69 69 70 70 70 69 70 70 70 69 66 64 65 65 67 69 69 72 75 76 77
73 80 89 87 86 84 83 86 84 86 87 84 77 74 74 72 72 73 72 73 76 75 74 74 73 72 72 72 72 72 72 71 72 69 69 71 73 76 78 77 78 79 78 83
65 69 84 90 84 83 84 80 83 86 88 82 82 77 79 78 72 72 77 77 75 73 72 73 74 74 74 76 77 76 75 74 75 77 79 81 82 85 87 87 84 84 88 89
60 66 71 90 91 86 81 82 83 85 88 89 88 85 84 85 83 82 77 79 80 81 83 81 80 80 79 79 78 77 77 80 83 85 87 89 92 92 92 94 97 100 102 103
55 61 65 77 93 97 100 95 90 89 89 93 95 95 90 90 92 90 87 84 83 84 86 86 85 85 84 84 84 85 87 92 93 95 97 98 100 102 104 107 109 111 110 105
51 55 63 72 80 91 103 101 97 92 91 91 91 93 93 91 88 93 95 93 93 90 88 88 89 91 93 95 97 100 104 106 107 108 108 110 111 114 118 115 112 111 115 116
52 55 58 64 68 75 83 93 97 101 102 98 98 96 95 94 93 95 96 97 98 99 99 102 105 107 107 108 110 111 113 114 115 117 120 118 113 113 113 114 112 109 113 110
48 51 54 58 62 65 68 74 80 86 90 93 98 103 105 107 107 108 108 108 107 109 113 116 116 116 117 117 119 121 121 116 112 111 105 104 101 99 100 101 100 97 100 100
43 46 51 55 57 59 62 65 70 74 78 83 92 97 97 96 97 100 103 107 110 111 109 110 110 109 109 109 106 104 102 101 102 101 95 94 92 91 91 93 93 93 96 94
39 43 46 50 52 56 60 64 67 70 72 72 74 78 83 87 90 93 95 99 102 104 104 104 103 100 97 95 94 94 94 94 94 93 90 88 85 82 82 83 84 83 85 82
35 38 42 44 47 50 54 58 62 65 68 69 70 72 74 76 78 79 80 82 84 85 86 86 86 87 88 88 88 88 86 84 83 82 80 77 73 71 71 71 72 73 74 71
36 38 40 42 44 46 48 50 53 55 58 61 63 64 66 69 71 74 76 77 78 79 79 78 77 77 77 78 79 77 76 75 75 73 71 70 68 66 66 66 66 66 68 70
35 37 38 40 42 44 46 48 50 53 56 59 61 63 66 67 68 69 70 71 70 70 70 71 71 72 72 72 72 71 70 70 69 68 66 65 65 64 63 62 62 63 64 66
35 37 38 41 42 44 46 48 50 52 54 56 58 60 62 63 64 64 65 65 65 65 66 67 67 66 64 63 62 62 62 62 62 63 63 63 62 61 62 62 62 61 62 64
36 38 40 41 43 44 46 48 49 51 53 55 56 57 58 58 59 60 60 61 61 61 62 61 59 58 57 57 58 59 61 62 62 61 61 62 62 62 62 63 64 64 65 66
33 34 36 37 39 40 43 45 47 49 50 52 55 56 56 57 57 57 57 57 57 57 57 56 56 56 57 58 60 62 62 63 63 63 63 63 63 63 63 63 64 65 66 67
35 37 38 40 41 43 45 47 49 50 52 53 53 53 54 55 55 55 55 55 55 56 57 57 59 60 61 62 62 62 62 62 62 62 62 62 62 62 63 63 64 65 67 68
29 31 33 35 38 41 42 44 46 48 50 51 51 52 53 53 54 55 56 57 58 59 60 60 60 60 61 62 62 63 64 64 64 63 64 65 65 66 67 68 69 71 72 72
27 29 31 34 36 39 41 44 46 48 50 51 52 53 55 55 56 57 59 59 60 60 60 61 62 62 63 63 64 64 63 63 64 65 65 66 66 67 67 68 67 67 67 67
35 37 39 42 43 45 47 49 50 53 55 55 56 57 58 60 60 61 61 61 61 61 61 60 61 62 62 62 63 64 65 65 65 65 66 66 65 65 65 64 64 64 64 64

GFSNGP_250_spd_069.txt.gz
Wind_Speed
54 55 54 62 66 68 62 61 65 64 56 54 53 50 51 64 63 60 58 58 54 51 50 49 48 47 45 44 41 41 44 40 39 38 38 40 38 37 36 35 34 35 38 41
60 62 57 58 71 73 71 64 68 68 59 51 53 55 52 56 61 63 58 54 55 56 57 55 53 51 49 47 46 44 44 42 42 43 44 45 44 42 43 42 41 41 42 44
64 64 62 57 71 76 74 71 67 70 68 62 49 52 52 56 56 58 61 62 57 53 55 53 53 56 55 53 49 47 48 48 47 46 45 46 47 47 48 49 47 46 46 47
65 64 64 62 68 74 77 76 71 66 70 68 65 58 52 52 52 58 58 57 58 60 57 56 54 53 54 52 52 53 53 52 51 50 50 49 50 51 52 53 53 51 52 53
64 65 62 67 68 73 75 76 78 69 65 67 67 65 58 50 52 54 54 63 69 68 66 63 63 61 58 57 56 56 57 57 56 56 56 56 55 55 56 56 57 58 58 61
61 65 63 70 67 72 73 72 73 73 74 68 67 71 67 63 64 70 64 63 62 61 72 68 68 64 62 63 63 63 62 62 62 62 62 62 61 62 63 64 64 64 64 61
62 65 64 70 68 72 75 77 73 71 69 75 79 78 78 73 70 73 72 71 74 74 76 72 71 71 69 66 65 66 67 68 68 68 67 66 67 68 69 69 69 69 70 66
62 65 65 71 68 70 73 80 78 73 76 77 80 77 81 78 76 76 76 77 77 76 74 75 74 75 75 72 70 70 70 69 69 71 72 71 70 69 71 72 73 74 72 70
61 65 66 66 67 69 77 77 82 79 79 79 80 80 82 82 85 82 81 79 78 76 78 82 81 81 82 80 76 77 76 76 77 76 76 76 77 74 74 75 75 74 76 75
55 59 63 66 67 69 77 79 76 82 88 87 88 91 91 92 84 84 85 85 84 81 79 78 78 80 81 77 74 74 77 78 78 77 76 76 77 79 80 80 79 79 77 77
46 49 58 63 66 67 80 83 81 80 83 88 91 93 93 88 88 87 89 88 90 87 86 85 85 81 78 79 82 82 80 78 77 77 78 80 82 83 84 83 81 80 81 82
46 51 56 60 64 69 77 87 85 83 83 87 90 89 92 93 88 88 88 90 90 88 86 86 86 84 85 87 86 86 86 86 86 87 87 88 90 90 89 87 86 86 88 95
50 52 54 58 62 67 68 89 92 91 92 95 93 92 94 97 96 95 93 92 90 92 92 91 89 90 91 94 94 93 93 93 93 94 98 96 96 93 92 94 100 104 107 109
49 52 55 57 59 63 67 72 87 97 96 92 89 88 88 90 91 92 94 94 92 93 94 96 98 98 99 100 102 104 104 105 105 103 103 102 103 107 108 112 117 118 120 121
47 49 52 56 59 62 67 71 75 81 94 98 94 94 91 89 89 91 91 91 92 91 94 99 102 104 104 104 104 103 103 105 105 105 109 111 114 117 120 118 113 110 108 104
44 45 46 50 53 56 59 61 68 73 75 79 86 98 98 98 99 99 97 97 97 96 97 98 99 101 103 104 105 108 112 115 118 118 117 115 113 111 110 109 105 102 99 98
39 39 41 46 50 52 54 57 61 64 65 68 70 74 82 97 105 108 106 103 102 103 105 106 109 112 115 116 115 113 111 108 109 111 112 109 103 100 98 99 97 95 93 91
35 36 38 42 47 50 52 56 59 63 66 69 70 71 72 75 79 83 88 93 98 102 104 106 107 108 107 106 105 105 101 97 96 97 97 97 97 95 93 91 91 89 87 85
31 33 37 41 44 47 49 52 55 58 61 64 66 68 70 71 72 73 76 78 81 83 85 87 88 90 91 91 91 91 92 92 92 92 91 90 89 88 87 85 84 82 79 77
30 33 34 36 38 41 43 45 47 50 52 54 57 59 62 65 67 69 71 74 76 78 80 81 82 83 84 84 84 85 85 85 85 84 83 83 83 82 80 78 76 74 74 75
29 31 32 33 34 36 38 40 43 46 48 50 52 55 57 59 62 64 65 67 68 69 70 71 72 73 75 77 77 78 78 77 78 78 77 76 75 75 74 73 72 72 72 70
29 31 34 36 39 40 42 43 45 46 48 49 51 53 55 57 59 60 62 64 65 66 67 69 70 71 72 73 74 74 74 72 71 70 70 69 69 69 68 68 68 67 66 65
26 29 32 34 37 39 41 43 45 47 49 50 52 53 55 57 59 60 63 64 65 66 66 66 66 66 66 65 65 65 64 64 64 64 65 65 65 64 64 64 64 64 65 65
31 33 34 35 37 39 41 42 44 46 48 50 51 52 54 55 55 56 57 58 58 58 59 59 58 58 58 59 60 62 63 63 63 62 62 62 62 64 65 67 68 70 71 71
27 30 33 35 37 39 41 42 44 46 47 48 48 50 51 52 53 54 54 55 56 56 57 58 58 59 60 60 61 62 62 62 63 64 65 66 67 68 69 70 70 70 70 70
33 36 38 40 42 43 45 46 48 49 50 50 51 52 52 53 54 54 54 55 56 57 58 60 61 62 63 63 63 63 64 65 66 66 66 67 68 68 68 69 68 68 67 67
41 43 46 47 48 49 51 52 53 53 53 53 53 53 54 55 56 57 57 57 57 58 57 58 60 60 61 61 62 63 64 64 65 66 66 66 65 65 65 64 63 63 62 62

GFSNGP_250_spd_072.txt.gz
Wind_Speed
58 50 48 51 50 50 59 55 53 54 53 54 55 56 55 65 62 61 56 51 50 49 49 50 51 51 47 46 47 47 43 41 39 39 41 42 40 37 36 38 37 35 36 35
53 50 53 55 53 51 62 58 53 50 54 57 56 58 59 60 65 64 64 60 56 52 51 53 52 52 51 51 49 45 42 42 42 41 41 42 43 42 41 41 42 41 42 43
51 51 56 59 59 56 62 63 59 55 58 55 56 63 60 59 63 64 63 63 62 59 58 56 55 54 53 52 51 51 50 48 46 46 45 46 46 48 48 47 47 46 47 48
53 54 58 62 61 61 61 68 65 61 61 58 59 64 62 61 60 64 64 63 65 64 62 61 60 59 58 58 57 55 54 54 55 55 54 52 53 53 53 52 52 52 52 54
52 51 58 61 61 62 61 72 70 67 66 61 60 55 64 59 59 60 63 66 67 69 67 64 62 60 59 60 61 59 59 59 59 60 61 61 61 60 58 59 59 58 59 59
51 53 57 62 64 65 62 73 73 73 72 69 66 58 53 62 65 64 65 66 67 69 68 67 64 62 63 63 64 63 62 60 60 61 61 61 63 65 66 64 64 64 64 64
53 53 57 64 65 66 66 66 76 77 74 75 70 67 62 59 65 71 71 71 72 72 73 70 69 69 71 69 68 66 64 64 64 65 67 67 67 68 68 68 69 70 71 71
54 55 62 62 64 67 68 66 72 79 78 77 78 76 73 73 69 66 71 67 69 73 76 80 80 79 75 76 76 74 69 68 67 71 74 76 76 74 74 75 75 77 78 79
52 57 61 63 65 68 71 68 68 78 81 79 80 78 78 77 79 81 79 75 74 71 68 72 75 75 79 79 78 77 75 79 77 78 78 76 76 77 78 80 81 81 84 85
53 55 59 61 65 68 71 71 72 68 83 83 81 87 83 86 91 93 90 87 84 81 80 75 79 85 83 79 79 80 78 78 79 80 80 80 80 79 81 83 87 90 91 90
49 49 54 59 61 66 70 72 73 73 72 85 82 82 87 93 97 92 92 92 86 87 88 88 87 88 84 84 85 87 86 85 85 82 83 82 83 84 82 82 82 85 89 90
47 48 50 54 58 63 68 70 72 70 70 81 89 88 88 90 94 92 94 96 94 92 92 92 91 90 91 93 93 92 92 91 92 93 95 92 91 90 88 90 89 87 86 89
47 50 52 55 58 62 65 68 68 69 73 74 85 94 96 95 100 98 98 95 95 96 96 98 96 97 98 98 96 96 98 98 98 97 99 94 93 95 97 97 98 100 98 101
49 53 52 51 54 57 61 65 66 68 73 77 78 86 94 99 103 104 104 96 95 95 95 96 98 100 100 101 102 101 100 99 99 102 103 103 105 105 107 106 106 108 112 115
47 49 50 49 52 55 58 60 65 69 71 77 84 82 88 92 96 97 99 99 100 101 102 104 105 107 108 107 107 108 107 105 105 105 106 107 107 109 111 115 119 118 109 109
42 44 46 48 50 52 53 54 59 62 67 71 78 86 89 87 87 89 92 93 92 92 95 98 100 101 103 106 110 112 113 114 113 111 109 110 111 111 112 112 109 110 111 111
40 42 44 44 46 49 51 53 57 60 62 64 67 75 81 90 96 96 94 95 96 96 97 97 99 99 99 100 102 101 103 105 106 105 106 106 107 108 108 109 113 117 115 109
33 35 37 41 43 46 50 52 54 58 60 63 66 68 71 75 81 88 94 101 106 108 108 106 103 102 102 102 103 103 103 104 107 110 112 114 115 114 111 107 104 103 103 102
30 33 36 39 42 44 47 51 53 56 60 63 65 68 69 70 70 72 75 80 85 89 92 94 96 98 99 102 103 104 105 104 104 103 101 100 100 100 100 100 100 99 97 96
26 30 32 34 37 39 42 45 48 51 54 57 61 64 67 69 71 72 74 75 76 78 80 82 85 87 89 90 91 93 94 95 95 95 95 96 95 95 94 94 94 93 92 91
22 24 27 29 33 36 39 42 45 47 50 53 55 58 61 63 66 69 71 74 75 76 78 80 81 82 83 84 85 86 87 88 89 90 90 91 91 90 89 89 89 88 89 87
23 25 28 31 33 35 38 40 43 45 48 51 53 56 58 61 63 64 66 68 69 71 73 74 76 77 78 80 81 82 83 84 85 86 86 86 86 86 86 86 85 83 80 78
23 25 29 32 36 38 41 43 46 48 50 52 54 56 58 60 62 64 65 67 69 71 72 73 74 75 76 77 78 78 78 80 80 81 80 80 79 78 78 76 75 74 74 74
25 28 31 34 37 39 42 45 47 49 51 53 55 57 59 61 62 63 65 66 67 68 68 69 70 71 72 72 73 73 74 73 73 72 71 71 71 71 71 72 72 72 73 75
31 34 36 38 40 42 43 45 46 48 49 50 51 52 53 54 55 56 57 59 60 61 62 63 63 64 64 64 65 66 66 66 67 68 68 70 71 73 73 73 74 74 74 74
37 40 42 43 44 46 47 48 50 50 51 52 52 53 54 56 56 57 57 58 59 60 60 61 62 63 64 65 65 66 67 68 69 69 69 70 70 70 71 72 72 71 71 70
42 43 44 46 48 50 51 51 51 52 52 52 53 53 54 55 56 56 56 57 57 58 59 60 60 61 61 61 62 63 64 64 65 65 65 65 65 65 65 65 65 65 64 64

GFSNGP_250_spd_075.txt.gz
Wind_Speed
63 63 66 70 66 51 41 37 42 47 53 51 50 53 56 58 53 49 50 57 60 56 54 51 50 49 49 49 51 50 48 48 46 44 42 40 42 42 41 40 39 38 37 37
57 57 57 59 55 46 40 42 49 52 49 51 51 53 62 62 54 50 51 53 62 61 56 55 52 52 54 55 54 52 52 51 49 48 44 42 41 41 42 43 43 43 44 44
53 51 49 52 48 44 45 52 48 56 53 54 53 53 52 63 53 52 53 53 61 63 60 58 56 53 55 54 55 54 54 50 55 52 48 47 45 44 43 44 45 46 46 46
49 48 45 50 48 50 54 56 49 58 58 57 54 54 50 58 56 54 53 55 59 65 65 63 60 58 57 56 56 55 54 59 55 54 52 49 48 50 51 50 50 50 51 53
45 45 47 49 49 54 60 60 54 60 61 59 56 57 53 56 56 56 56 59 62 63 68 65 63 64 64 57 57 60 58 58 56 56 56 55 56 58 57 58 59 58 60 61
46 47 49 49 54 59 65 63 57 57 63 64 58 56 57 56 61 60 62 62 62 63 64 65 65 66 65 66 67 66 65 64 63 63 63 64 66 66 65 65 65 66 68 69
50 51 53 55 54 62 65 64 61 60 65 67 63 59 61 63 63 67 66 64 67 67 64 63 64 66 67 70 70 69 70 70 72 73 74 72 71 71 72 71 72 74 75 74
50 52 58 54 56 65 66 67 67 65 67 70 69 65 62 61 64 68 68 68 69 68 67 68 69 69 68 70 72 72 72 71 71 72 74 75 75 75 75 75 73 74 74 75
52 53 55 54 58 67 69 68 66 67 68 72 72 71 71 70 66 68 74 71 69 70 71 70 70 70 70 72 72 72 73 75 78 79 80 80 79 79 76 75 76 79 79 81
51 53 55 55 58 67 69 67 68 70 68 75 77 77 75 75 73 73 74 75 76 76 76 78 78 77 77 79 79 80 81 79 81 82 84 82 81 82 86 84 87 87 87 87
54 54 54 54 55 64 70 70 70 71 74 73 83 80 82 81 82 82 84 83 78 77 79 80 81 83 85 86 86 85 84 86 87 89 89 87 91 95 94 92 89 85 87 88
48 45 49 49 52 58 65 71 74 72 75 76 77 85 86 88 89 88 89 89 87 85 83 81 81 81 82 84 86 84 86 86 87 89 92 92 94 94 96 93 93 95 96 95
45 47 50 51 50 54 61 66 71 74 74 76 79 78 89 92 93 95 96 98 97 93 93 93 93 93 95 93 92 93 94 95 94 97 98 99 101 101 103 105 106 107 103 101
46 48 50 52 51 53 58 63 67 70 75 78 80 80 78 95 94 97 101 103 104 106 104 101 100 100 99 100 101 102 103 103 104 105 105 106 107 107 108 109 110 109 109 110
43 48 49 50 51 52 55 59 63 67 70 74 79 83 82 84 88 98 105 104 105 106 108 109 109 106 104 105 104 104 106 108 110 111 112 111 109 110 110 111 112 115 116 117
40 46 47 48 49 50 51 54 57 63 67 69 73 77 81 83 85 86 89 97 108 109 108 108 109 108 107 110 110 111 112 113 113 112 112 113 115 117 117 120 121 120 118 119
40 42 44 45 45 46 48 50 52 55 59 63 68 72 76 81 82 84 86 87 91 99 105 109 113 114 113 110 110 112 115 117 118 120 120 119 120 122 122 120 118 116 117 117
37 39 41 42 44 47 49 50 52 55 57 60 63 67 70 76 81 85 87 89 90 91 92 94 97 98 100 102 102 103 105 108 110 110 111 110 110 111 112 112 112 112 112 111
29 32 36 39 42 45 48 51 53 54 57 60 64 67 69 72 75 80 83 87 90 94 97 97 95 94 93 93 94 95 96 97 96 97 97 98 99 101 102 102 102 101 100 99
25 28 30 34 37 41 45 48 52 56 58 60 62 65 67 69 71 74 76 78 80 82 83 85 87 90 91 92 94 95 95 96 97 96 96 96 97 97 97 98 99 100 100 100
24 27 30 32 35 38 41 44 47 50 54 58 61 64 67 69 72 74 76 77 78 79 80 81 83 85 86 88 89 90 91 92 93 94 95 95 95 95 95 95 95 95 95 94
24 26 29 32 36 40 42 45 47 50 52 55 57 60 63 66 68 70 72 75 77 78 80 80 81 82 83 83 84 85 85 86 87 88 87 88 89 89 89 89 90 90 90 89
26 29 31 34 36 38 41 43 46 48 51 54 56 59 61 63 66 68 70 71 72 74 75 76 78 79 80 81 82 82 83 84 84 85 84 84 84 85 85 84 83 82 82 81
23 26 29 31 33 36 38 42 44 47 50 52 55 56 58 60 62 64 65 66 67 69 70 71 73 73 74 75 76 76 76 77 77 77 77 77 77 77 77 77 77 77 77 78
30 32 35 37 39 40 41 42 43 45 46 48 50 51 53 55 56 57 59 60 61 62 64 65 66 67 68 68 69 70 71 71 72 73 73 74 74 75 75 76 76 76 76 76
40 42 44 46 48 49 50 51 52 53 53 54 54 55 55 56 56 57 57 58 59 59 60 62 62 63 64 64 65 65 66 66 67 67 68 68 68 68 68 68 68 68 67 67
43 45 47 48 49 50 52 53 54 55 55 55 56 55 55 55 55 55 55 56 56 56 57 57 57 57 58 59 59 59 60 60 60 61 61 61 61 61 62 62 62 62 62 62

GFSNGP_250_spd_078.txt.gz
Wind_Speed
65 63 64 68 69 70 68 67 66 62 49 38 42 41 45 47 50 53 60 58 56 50 49 52 57 55 55 51 51 48 45 48 47 46 44 42 40 38 36 34 35 37 38 37
64 66 66 62 64 67 67 65 63 55 37 39 47 45 47 50 51 53 61 61 57 53 54 54 57 59 57 55 52 51 49 50 50 48 49 48 46 45 44 42 41 43 45 45
61 65 60 59 58 60 63 64 60 47 38 44 50 52 49 51 53 53 58 61 57 56 56 55 58 60 58 58 54 53 53 54 54 55 52 52 52 51 50 48 45 45 45 45
57 57 58 55 56 55 60 60 57 47 42 53 54 56 53 53 54 53 59 55 54 56 57 58 60 61 58 58 57 58 58 59 57 57 57 57 58 56 55 53 51 48 48 48
49 48 49 53 55 56 58 56 51 45 52 56 58 62 61 61 52 57 61 56 45 60 59 55 59 63 62 58 59 59 59 61 60 61 62 64 63 61 59 58 56 54 55 56
42 46 50 51 53 54 53 51 48 49 60 58 61 64 65 63 58 60 65 72 67 60 61 59 60 64 65 64 61 60 61 61 62 61 62 65 68 67 63 60 60 62 63 64
44 51 53 51 50 53 54 52 56 57 64 61 64 66 64 66 61 63 63 70 70 66 63 61 63 65 67 68 67 65 63 61 63 57 68 69 68 66 65 66 68 70 71 72
48 51 54 51 52 55 54 54 58 61 66 63 67 70 65 64 66 61 62 67 67 66 65 65 64 64 66 69 70 68 66 64 65 68 70 70 71 76 74 75 77 79 78 78
55 55 57 54 53 56 55 55 60 66 68 61 68 70 71 68 73 67 66 67 68 68 68 67 65 64 65 67 68 71 74 76 76 79 76 79 80 82 83 84 85 85 84 84
51 53 56 54 49 55 55 56 62 70 70 65 65 76 72 75 73 75 70 69 69 69 71 71 72 71 70 70 70 71 73 74 76 77 81 86 86 87 87 86 89 88 89 87
54 55 52 49 48 54 56 57 63 72 76 73 68 69 78 79 76 74 76 75 73 74 76 76 75 75 75 76 78 79 81 81 81 81 83 84 87 89 92 90 90 92 92 92
53 51 47 49 51 53 58 59 65 74 78 78 76 72 75 79 81 79 76 78 80 79 80 80 82 82 81 82 82 83 85 84 85 86 88 91 93 94 94 96 96 98 99 100
45 45 41 45 48 52 57 60 65 72 78 78 79 79 77 79 80 83 84 83 84 84 87 89 86 88 88 88 90 91 92 92 93 94 95 96 98 99 102 104 105 107 108 107
38 43 44 48 51 53 57 59 64 70 75 78 80 80 82 81 81 84 87 90 91 90 89 91 91 93 95 96 96 95 96 97 100 102 104 105 106 108 108 110 109 108 109 107
34 39 44 47 50 53 57 59 63 69 73 76 78 80 81 84 84 84 88 93 95 96 97 97 97 98 99 99 99 99 100 101 103 104 105 106 107 109 110 111 113 113 115 116
31 35 42 47 49 51 55 57 59 62 67 73 76 79 80 84 84 88 88 88 95 100 101 102 104 104 105 106 106 108 109 111 112 114 115 115 117 118 119 121 122 122 123 123
32 36 40 45 48 50 52 54 56 57 59 64 69 74 78 82 86 87 90 95 96 96 98 103 106 106 108 112 115 117 118 119 121 123 123 124 125 126 125 124 127 128 130 132
33 36 39 41 45 48 50 51 54 56 58 60 64 67 71 75 80 85 90 93 96 100 103 104 104 105 108 110 113 114 115 117 118 118 118 118 118 119 118 118 119 122 124 125
28 31 34 38 42 46 48 50 52 55 58 61 63 66 68 71 75 79 83 87 91 94 97 100 104 106 107 107 108 109 109 111 110 109 108 109 109 110 110 110 109 109 108 109
26 30 33 36 39 44 47 49 52 54 57 60 63 66 68 69 71 74 78 81 85 88 90 91 92 93 94 95 96 97 97 95 94 95 96 96 97 98 98 98 99 99 100 100
27 30 32 35 37 41 44 47 51 54 56 58 61 63 65 67 70 73 75 78 79 81 83 85 87 88 90 91 92 93 94 94 95 95 95 95 95 95 95 95 94 95 95 95
26 28 30 33 36 39 42 45 48 50 54 56 59 61 63 66 68 71 73 75 77 79 81 82 83 84 86 87 88 89 90 90 91 91 91 91 91 91 91 91 90 90 89 89
24 27 30 33 35 38 40 43 45 47 50 53 55 58 61 63 66 68 71 72 74 76 77 79 79 80 82 82 83 83 84 85 86 86 87 87 87 87 86 86 86 86 86 86
21 24 27 30 32 35 37 41 44 47 50 53 55 57 59 61 63 65 67 69 70 72 73 75 76 77 78 79 80 80 81 82 82 83 83 83 84 83 83 83 82 82 81 81
29 31 33 35 37 39 41 43 45 47 49 51 53 56 58 60 62 63 64 65 66 67 69 70 71 72 73 74 74 75 76 76 77 77 78 78 78 78 78 78 78 77 77 77
35 38 41 43 45 47 48 48 50 52 53 53 54 54 54 55 55 56 57 57 58 59 61 62 63 65 65 66 67 68 69 70 71 71 71 71 71 71 71 70 69 69 68 67
41 43 45 46 47 47 49 49 50 51 51 51 51 50 50 50 50 50 51 52 52 53 54 54 55 55 56 57 57 58 58 59 60 61 61 61 61 61 62 62 61 62 61 62

GFSNGP_250_spd_081.txt.gz
Wind_Speed
53 59 62 59 61 71 73 71 72 73 68 66 64 63 61 60 43 40 38 44 46 48 48 52 54 54 54 58 57 55 52 46 42 44 45 43 40 38 38 38 37 37 36 36
51 56 63 65 64 64 70 70 68 70 72 69 65 64 58 52 35 36 41 44 45 51 52 50 51 53 53 56 58 59 56 50 46 46 46 46 47 44 43 42 41 41 40 41
54 55 60 66 65 64 67 72 70 69 66 62 60 57 52 38 35 44 43 46 44 53 57 52 49 51 54 56 58 57 56 53 52 50 49 48 49 53 51 48 47 46 45 46
54 56 57 61 65 66 65 65 68 68 63 62 59 53 42 39 42 47 47 47 46 49 58 54 49 50 52 55 58 57 57 56 56 56 55 54 54 57 55 53 54 53 54 54
60 58 55 59 60 60 62 63 63 61 60 58 55 46 36 41 49 48 48 49 50 48 56 52 51 51 51 53 55 57 59 60 60 60 60 59 59 60 60 59 58 60 61 60
54 53 51 52 53 48 57 56 60 61 59 55 53 46 41 48 53 54 51 53 51 46 46 51 56 53 54 56 56 58 58 60 62 64 62 61 63 63 62 64 66 66 65 64
40 38 46 53 48 48 55 57 59 63 62 57 50 47 48 56 55 59 54 48 53 43 54 52 55 52 58 54 57 61 61 61 62 62 64 65 67 67 65 64 65 67 72 71
35 38 49 49 48 47 49 54 59 60 64 59 55 50 59 61 60 62 61 59 62 67 69 69 65 62 59 61 64 64 64 65 64 64 66 69 67 69 68 64 64 74 75 74
38 40 48 49 51 49 50 51 56 57 55 56 55 58 66 63 67 66 71 75 73 73 72 69 71 72 69 74 69 67 67 65 60 57 58 75 73 73 65 70 78 79 82 79
39 43 49 52 54 54 52 49 53 55 53 55 62 66 70 69 71 75 74 78 78 78 79 74 69 69 69 70 71 72 72 73 73 75 76 75 78 80 81 81 85 87 86 86
41 44 49 51 55 56 53 51 51 55 56 59 66 72 74 72 76 78 81 78 77 77 85 86 82 77 77 77 75 76 75 75 77 78 80 81 82 82 86 86 88 90 92 92
46 48 53 57 53 48 47 48 49 53 59 62 69 76 77 74 75 81 82 81 84 82 84 85 88 90 90 88 86 85 83 82 80 80 82 82 84 86 88 91 93 94 94 94
48 51 52 49 46 46 48 48 49 54 59 64 68 78 81 78 76 82 84 83 85 88 82 84 87 88 90 89 88 90 91 89 89 88 89 88 89 88 89 92 93 95 97 100
44 40 38 33 39 43 47 48 48 52 58 63 69 76 83 81 81 80 83 86 87 87 89 90 87 88 90 92 92 93 94 95 95 94 95 96 97 98 100 101 102 104 105 107
35 35 35 38 42 45 49 52 51 53 58 63 69 74 85 86 82 83 84 86 88 91 91 93 94 96 95 93 93 94 97 99 100 101 102 102 103 104 106 107 109 110 112 113
28 31 34 36 42 47 47 51 54 55 57 61 67 72 82 88 89 87 88 89 90 91 92 95 96 98 99 100 101 102 103 102 103 105 107 109 111 111 112 113 114 115 117 118
24 29 33 37 41 48 50 51 53 55 56 59 62 68 73 83 90 91 94 93 93 94 97 98 98 99 102 104 105 105 105 105 107 109 113 115 116 118 119 121 123 123 124 124
27 30 34 37 39 44 48 49 51 55 57 59 62 64 67 72 78 85 93 95 96 98 100 101 101 102 104 106 108 109 110 112 113 114 115 115 117 119 120 121 123 125 126 127
26 27 27 30 34 38 42 47 50 53 55 58 61 63 66 68 72 75 80 85 90 93 95 98 99 101 104 106 108 109 110 110 110 111 113 115 117 119 119 118 118 118 118 119
21 24 27 29 32 36 40 43 47 50 54 57 60 62 65 67 70 72 75 77 80 84 86 89 91 93 96 97 100 102 104 105 106 106 106 107 108 109 109 110 110 110 111 112
21 24 27 30 32 35 38 42 45 48 52 55 58 62 64 67 69 71 74 77 78 80 82 84 86 88 90 92 93 94 96 98 99 100 101 102 103 103 104 104 104 104 104 104
19 22 25 28 31 34 37 40 43 46 49 52 55 59 62 65 67 70 72 75 77 79 81 82 84 85 87 88 89 90 91 92 92 93 94 95 95 96 96 97 98 98 98 97
19 22 24 28 31 33 37 40 42 45 48 51 54 57 59 62 64 67 69 71 73 75 77 79 81 82 84 85 87 88 88 88 89 90 90 90 90 92 93 93 94 94 94 93
20 25 28 30 34 37 40 43 46 48 51 53 56 58 60 62 63 65 67 69 71 72 74 75 76 77 78 79 80 81 82 83 83 83 84 84 84 85 86 86 85 85 84 83
25 28 31 34 37 40 43 46 48 50 52 54 56 58 60 62 64 66 67 68 69 70 71 71 72 73 74 74 74 75 75 76 76 77 78 78 78 79 79 80 80 80 80 79
33 36 38 40 41 43 45 47 48 50 51 52 54 55 56 57 58 59 60 61 62 63 64 66 67 68 69 70 71 73 74 75 76 76 77 77 77 78 77 77 77 76 75 73
38 41 44 45 46 47 47 47 46 48 49 50 51 52 51 52 52 52 53 53 54 55 56 57 59 60 61 62 62 63 64 65 66 66 67 67 67 66 67 67 66 66 66 66

GFSNGP_250_spd_084.txt.gz
Wind_Speed
50 48 48 51 54 55 58 65 69 70 72 67 62 59 55 51 54 57 58 61 60 57 48 40 47 60 60 60 63 59 55 51 45 44 43 41 39 36 35 34 32 30 30 32
46 49 49 43 50 60 56 68 71 74 73 68 66 66 64 60 61 64 62 62 56 49 43 41 49 58 62 62 64 64 58 55 50 46 42 42 44 43 41 38 40 40 38 38
46 48 44 42 51 57 61 73 70 66 69 68 68 68 67 63 66 65 65 59 48 41 38 41 49 56 62 63 63 66 63 59 55 49 45 42 42 44 46 46 44 43 44 45
46 43 37 45 51 55 63 68 61 60 65 71 69 68 67 67 66 65 61 54 38 36 40 41 45 52 61 61 62 62 67 64 59 54 52 51 48 46 47 49 51 50 50 48
41 41 45 53 55 56 61 58 60 62 66 68 71 70 68 66 63 61 57 43 39 42 42 41 49 52 56 57 58 59 59 59 62 61 58 57 55 54 54 55 55 56 57 55
39 46 56 53 55 57 58 55 61 59 62 64 63 65 63 62 60 55 44 40 47 46 45 44 46 52 54 49 53 54 51 56 55 56 58 58 59 59 60 61 60 59 60 60
46 50 55 50 49 56 53 50 59 59 61 65 66 64 61 59 57 56 40 44 51 53 50 50 49 51 52 52 48 51 53 51 47 53 54 54 56 58 62 63 64 64 67 67
45 49 48 35 39 47 49 51 51 53 60 63 65 64 63 60 57 54 44 52 55 57 53 54 51 51 52 53 53 53 54 51 44 55 54 55 50 59 67 62 66 67 68 71
42 40 37 30 32 41 41 39 45 50 58 62 62 60 60 57 56 52 48 57 59 63 53 55 47 48 51 50 54 51 53 60 53 53 58 62 70 75 77 71 71 68 69 72
34 34 30 26 33 39 41 40 45 49 56 62 63 62 61 60 58 54 52 61 62 63 54 56 57 57 62 59 62 67 63 60 55 76 76 73 74 74 77 75 72 72 73 75
27 26 27 32 39 42 45 47 51 50 52 59 62 64 65 64 59 51 58 63 69 67 66 62 67 73 71 75 71 69 67 61 67 74 65 71 78 76 77 74 74 75 78 81
23 28 33 37 44 49 53 52 48 48 49 54 60 64 65 69 64 57 64 68 73 77 72 71 74 77 81 83 83 80 82 78 79 81 79 82 81 82 82 81 80 83 84 86
28 32 39 46 49 50 49 44 45 48 49 50 54 63 65 68 65 62 71 76 77 81 82 81 82 82 89 82 85 84 85 89 88 90 93 92 91 90 90 89 91 93 95 95
37 41 45 46 45 42 35 41 44 47 48 49 51 56 63 66 68 69 77 81 82 82 91 90 91 93 92 92 87 83 86 88 89 90 94 95 94 93 92 93 94 96 98 99
33 36 39 37 33 30 35 40 44 47 48 49 50 54 61 66 68 73 80 85 86 87 91 95 99 100 104 101 101 100 101 100 99 97 97 98 99 101 102 103 104 105 106 107
21 22 23 26 26 26 32 38 42 45 48 50 51 53 59 64 69 74 79 88 91 92 93 95 99 103 107 110 111 110 110 107 109 111 110 110 111 111 113 113 113 113 113 114
15 17 21 24 25 27 31 37 40 44 46 49 51 51 55 61 65 69 75 86 92 94 95 97 99 100 101 103 108 108 110 111 111 114 117 118 118 119 119 118 118 119 120 120
17 20 23 25 25 28 30 34 38 41 45 47 50 52 53 56 61 66 70 76 89 95 96 100 99 99 101 103 105 106 107 107 110 114 115 116 117 118 119 120 120 121 121 122
17 19 22 23 25 28 31 34 37 41 45 49 51 54 56 58 60 63 68 72 78 87 97 100 103 106 105 104 105 107 107 107 108 110 111 114 115 117 118 119 121 122 123 124
16 18 20 22 26 29 32 35 38 41 44 48 51 54 57 59 62 64 66 69 73 77 82 89 98 104 105 105 106 107 108 110 111 112 111 113 113 114 114 115 116 117 118 120
12 14 16 19 22 25 28 31 35 39 42 46 49 52 56 59 62 64 67 69 70 73 76 80 83 87 90 95 101 104 106 108 111 113 114 115 116 117 116 114 112 111 111 111
10 14 17 20 23 26 29 32 36 39 42 46 49 52 55 58 60 63 66 70 72 74 77 79 80 82 84 87 89 91 93 95 96 97 98 99 100 100 101 102 102 102 102 103
12 15 19 23 26 29 32 36 39 42 45 47 50 52 55 57 60 62 65 66 71 71 75 77 79 81 83 85 86 88 89 90 91 92 93 94 95 96 96 97 96 96 96 96
16 20 24 28 31 34 37 41 44 47 50 52 53 55 56 57 58 60 61 64 65 68 70 72 74 76 77 79 80 82 82 83 84 85 86 86 87 87 88 88 88 87 87 87
22 26 29 33 36 39 42 45 48 50 52 54 55 57 58 60 61 63 63 64 65 66 66 66 67 68 68 69 71 72 73 74 75 76 77 77 78 78 79 79 80 80 80 80
29 32 35 38 41 45 47 49 50 51 52 51 53 56 56 57 59 59 61 61 62 62 63 66 66 66 67 67 68 69 69 70 70 71 71 72 72 73 73 73 73 73 73 72
34 37 40 43 44 45 47 49 50 50 51 51 49 50 51 51 51 52 53 54 55 56 57 58 59 60 60 61 62 63 64 65 66 66 67 67 67 68 68 68 69 69 69 69

GFSNGP_250_spd_087.txt.gz
Wind_Speed
42 51 52 45 44 49 47 47 49 57 63 62 61 63 64 59 54 54 50 46 45 48 49 48 48 47 39 36 49 54 56 56 53 51 47 43 44 40 35 31 30 27 25 35
45 50 45 38 46 49 50 50 50 54 65 66 66 63 63 62 58 54 53 55 50 51 52 52 51 50 51 44 48 61 60 60 57 58 53 47 48 45 41 36 35 34 33 31
44 46 39 36 48 48 47 51 52 58 62 70 69 68 64 62 63 60 57 54 55 54 57 56 53 55 51 46 52 61 65 60 63 61 58 49 48 47 45 42 41 39 38 38
39 36 31 45 44 48 48 50 57 70 68 72 71 68 66 62 57 57 57 52 55 57 59 60 57 49 50 47 56 63 69 63 66 65 59 51 45 45 45 44 45 46 46 45
29 27 38 42 41 49 49 52 61 67 61 55 70 70 68 67 60 59 59 60 59 59 62 61 56 49 46 47 56 65 67 68 64 67 64 57 53 49 47 46 47 48 49 49
23 26 35 41 45 46 51 50 54 61 61 55 62 71 69 72 69 64 63 64 64 65 65 60 54 42 44 49 48 63 66 69 64 69 67 62 59 57 54 53 53 52 53 55
26 33 44 47 51 50 53 52 52 54 58 57 57 64 69 71 70 68 67 67 66 67 60 59 47 46 40 49 50 52 61 67 67 63 63 67 64 62 62 60 59 59 60 61
30 38 44 46 47 48 52 54 50 50 53 52 55 58 63 67 71 70 69 68 67 65 59 50 49 53 47 47 52 56 57 57 64 64 58 61 65 64 67 68 67 61 58 60
33 38 40 39 38 34 47 50 46 42 44 48 56 57 60 65 68 73 70 67 65 64 55 45 54 54 51 50 57 58 56 54 55 51 56 54 58 61 57 57 56 55 57 63
30 29 29 29 22 17 28 43 45 41 43 45 51 56 60 61 63 65 68 66 62 58 51 49 58 62 58 53 51 62 59 57 54 57 63 62 61 62 58 61 64 58 66 70
24 24 23 23 21 21 22 31 41 43 41 41 45 56 61 63 63 65 65 64 62 59 56 51 63 66 64 61 61 63 61 63 67 65 72 69 68 66 69 67 65 68 72 78
20 20 20 21 22 24 29 37 43 45 46 45 48 54 62 65 66 65 65 64 61 57 59 56 67 70 69 68 68 65 68 66 71 73 72 73 77 76 71 74 77 84 84 87
18 19 23 25 27 32 36 41 44 46 46 49 50 51 57 63 64 63 64 64 62 61 64 63 70 75 72 71 72 73 73 72 74 76 77 85 80 81 82 79 85 84 92 94
23 25 27 30 35 38 43 45 44 44 46 49 50 50 51 56 59 63 65 66 65 66 70 66 74 80 84 81 79 79 80 81 83 84 86 85 86 90 91 90 90 94 95 98
26 30 33 36 38 42 43 41 38 37 43 48 50 50 51 52 55 61 67 69 69 71 75 71 76 84 86 88 87 86 88 89 92 92 92 89 93 96 95 95 95 97 101 105
18 23 30 35 39 40 39 30 29 35 39 44 47 49 50 52 53 56 62 70 74 77 79 79 78 84 93 94 96 93 94 96 97 97 102 103 100 105 103 103 103 101 104 106
12 12 16 23 21 20 25 28 28 29 32 38 43 46 49 52 55 57 59 62 70 77 80 82 83 86 91 94 102 101 101 101 102 104 102 105 106 111 116 116 115 115 115 116
11 12 13 14 16 18 20 22 25 29 33 38 42 44 46 49 53 56 59 60 63 69 77 82 83 86 91 94 96 101 109 110 109 111 111 113 114 113 115 116 116 118 118 118
17 16 15 15 17 21 24 27 29 31 34 37 41 44 47 49 51 54 58 62 63 65 70 76 81 84 87 91 93 95 98 104 114 115 118 118 118 121 124 125 127 126 126 127
11 12 12 14 16 19 22 25 28 31 34 38 41 44 47 50 54 57 59 60 63 67 69 71 74 80 83 88 91 95 95 97 99 101 110 121 124 124 125 127 129 134 134 135
6 7 9 11 14 17 20 23 27 30 34 38 42 45 49 51 54 57 60 62 65 68 69 70 74 76 78 82 85 89 91 94 98 98 99 100 103 104 109 112 116 117 118 118
5 6 8 11 13 16 20 23 26 30 33 37 41 45 49 52 55 59 61 62 63 68 70 71 72 75 77 79 82 84 86 88 91 93 95 97 99 101 102 101 102 104 105 106
6 8 12 15 18 21 25 28 32 35 39 43 46 49 52 54 55 57 58 61 64 66 67 69 70 71 73 76 78 80 82 84 86 88 90 91 93 94 96 97 97 99 100 102
10 13 17 21 25 28 31 34 38 42 46 48 51 54 54 55 58 59 58 60 61 62 64 66 68 69 71 73 75 76 77 79 81 82 84 86 88 89 90 92 92 92 93 93
17 20 23 27 31 34 37 40 44 47 49 52 54 54 53 54 54 55 58 58 58 60 61 61 61 62 63 65 67 69 70 73 75 76 78 79 80 81 82 83 84 84 85 86
22 26 29 32 35 38 43 44 46 50 52 54 56 57 56 52 50 49 50 52 54 54 55 57 58 58 60 61 61 63 64 65 67 68 69 71 72 73 74 75 76 77 77 76
28 32 35 38 39 41 44 46 48 49 51 52 52 52 55 55 52 48 47 46 47 48 50 52 54 55 55 56 57 58 59 60 61 61 62 63 64 65 65 66 67 67 67 68

GFSNGP_250_spd_090.txt.gz
Wind_Speed
48 50 52 46 43 42 41 35 34 41 54 62 70 71 65 65 61 51 47 48 51 53 48 43 46 46 44 46 45 50 43 39 53 53 48 51 47 46 40 39 36 30 27 27
49 48 42 40 42 43 41 42 42 47 54 56 66 72 72 68 57 52 51 51 54 50 49 48 48 52 53 52 50 55 54 57 53 48 54 54 52 49 44 42 40 35 31 28
48 40 38 37 43 45 47 42 45 47 49 60 66 66 71 69 63 57 52 53 54 58 52 53 51 48 51 53 50 49 53 56 51 57 55 57 58 51 47 45 46 42 38 36
40 38 35 40 41 42 41 44 45 48 52 60 66 64 64 67 66 65 57 57 57 55 54 57 56 54 55 55 52 52 54 53 52 60 63 63 63 56 51 47 50 49 46 43
35 31 31 33 35 39 41 43 45 53 53 57 64 61 65 64 66 67 64 61 61 61 60 58 58 56 56 57 58 54 53 55 56 53 62 63 68 62 55 51 50 53 53 51
27 26 29 28 34 38 43 45 49 55 57 58 62 62 68 68 64 64 67 67 64 64 62 59 58 59 61 60 60 59 60 57 59 56 65 71 70 66 63 60 57 55 52 52
26 29 33 32 34 38 45 49 51 51 54 59 60 60 69 70 70 66 65 65 66 66 65 63 61 61 63 63 58 56 57 58 55 57 68 69 62 66 66 66 63 61 58 55
27 29 29 33 35 41 45 45 46 53 56 58 57 54 60 72 70 69 67 64 64 64 64 64 67 68 66 63 58 56 53 51 51 58 64 68 67 65 70 70 68 67 63 62
22 25 28 33 35 42 45 50 49 51 54 53 53 53 51 61 69 69 69 68 67 67 67 68 67 68 66 66 61 59 52 54 57 59 67 70 68 68 66 71 74 74 72 72
18 21 26 32 34 39 46 49 53 54 54 54 52 49 50 53 60 66 71 73 73 73 73 73 71 69 68 67 62 61 56 59 61 60 65 70 73 76 74 72 76 78 80 78
17 17 21 25 26 28 36 41 41 46 48 48 48 47 46 47 53 63 68 70 73 75 78 77 76 74 72 69 66 63 65 64 61 63 63 71 70 71 73 77 75 71 74 74
15 15 17 19 22 17 22 27 29 33 42 47 45 43 44 47 54 59 66 72 71 72 77 78 76 76 74 71 67 61 67 69 64 66 66 70 71 71 74 78 79 76 77 76
16 17 18 19 17 21 26 23 21 27 30 39 48 51 49 50 55 62 66 69 70 71 74 76 78 78 76 75 70 62 72 74 73 73 73 72 78 76 75 80 82 80 80 82
19 22 22 23 25 23 23 26 26 32 39 40 47 57 59 54 53 58 64 65 67 67 67 70 72 74 75 72 70 69 75 78 81 78 76 80 81 81 81 83 85 87 85 84
21 24 26 28 28 30 31 34 37 41 43 52 55 52 52 53 53 55 57 59 62 64 66 68 71 73 75 76 76 77 74 83 86 88 85 82 85 85 86 90 90 92 92 94
20 23 27 29 31 32 34 36 44 45 36 32 40 44 48 51 52 53 54 55 58 61 65 69 71 74 76 78 79 80 82 82 91 94 95 94 93 94 94 95 98 100 100 100
15 18 20 22 28 31 31 35 20 20 34 31 31 36 43 48 53 55 55 55 57 59 63 67 72 75 77 79 82 84 85 89 88 96 101 103 101 102 103 102 104 104 108 108
15 15 11 12 16 21 25 27 30 30 28 29 32 35 40 44 48 52 54 57 58 60 62 65 69 74 79 80 83 85 86 88 95 94 100 104 108 107 107 108 109 110 112 113
20 19 18 17 17 18 20 21 22 25 27 29 33 36 40 44 47 50 54 57 60 62 64 67 70 73 76 79 81 85 87 90 90 94 97 103 109 113 113 114 114 115 117 119
10 10 10 11 12 14 16 19 21 23 26 29 33 36 40 44 46 49 53 57 61 63 66 69 71 74 77 80 81 83 85 86 89 92 95 98 100 106 112 113 117 118 119 124
8 6 6 7 9 11 14 17 20 23 27 30 33 36 40 43 47 50 54 58 62 64 66 69 70 73 76 78 80 83 84 85 86 87 90 92 94 97 99 101 108 112 113 118
6 5 4 6 8 11 14 18 21 25 28 32 35 39 43 46 50 53 55 59 61 63 64 65 68 70 72 74 77 79 81 83 85 86 87 88 89 91 92 95 99 102 103 105
4 0 4 7 10 13 17 21 24 28 30 34 38 42 46 49 52 54 56 57 59 59 61 62 63 66 69 70 71 72 74 76 79 81 83 84 86 88 89 90 91 93 95 97
3 5 9 13 16 19 23 26 30 33 37 40 44 48 51 54 55 56 54 54 55 56 56 58 60 61 62 63 65 67 69 70 72 73 75 78 80 81 83 84 85 86 88 90
10 13 17 20 24 27 31 34 36 38 41 44 47 50 51 52 54 54 54 54 53 52 52 53 54 56 57 57 57 58 61 63 65 68 70 72 73 75 76 77 79 80 82 83
17 19 23 26 29 33 36 39 41 42 45 49 53 55 55 55 53 51 49 48 46 47 47 48 48 49 51 54 55 55 55 56 58 59 61 62 64 67 69 71 72 73 75 76
20 24 28 31 34 37 41 44 46 46 49 52 54 55 55 55 55 53 52 50 48 46 46 45 45 46 47 48 50 51 52 53 53 54 55 55 56 58 59 60 61 63 64 65

GFSNGP_250_spd_096.txt.gz
Wind_Speed
61 63 67 68 70 74 72 67 63 55 51 56 52 52 42 45 46 46 45 45 51 50 53 57 60 57 51 47 52 48 47 46 39 41 41 31 30 35 31 28 34 25 23 29
65 67 67 62 65 65 63 61 54 44 42 56 50 46 44 47 47 46 48 52 59 55 58 62 62 62 54 50 51 47 45 42 41 37 28 26 33 41 33 34 37 36 32 27
64 64 58 50 55 55 54 51 47 36 46 51 46 43 44 49 48 50 51 56 63 61 60 66 62 64 62 54 53 54 48 45 40 39 33 31 48 52 44 53 45 47 40 38
56 54 50 49 52 51 46 46 43 40 46 46 42 44 49 50 51 47 50 53 63 63 62 67 64 63 63 59 57 58 53 52 44 40 37 36 49 55 57 52 52 50 49 45
45 47 46 46 49 44 40 43 42 43 42 42 43 46 48 49 47 44 50 51 66 65 66 67 68 67 65 63 58 58 54 54 50 48 45 51 48 55 53 56 58 54 45 41
40 40 42 40 41 36 37 38 37 39 39 44 48 47 46 47 46 43 50 55 69 67 69 67 70 70 69 69 62 59 62 58 53 56 61 61 54 51 50 59 55 52 53 51
37 36 36 36 32 32 33 32 33 38 42 46 45 47 50 50 47 51 50 57 67 69 71 70 71 71 74 71 68 65 65 65 65 62 62 62 66 67 59 54 62 63 64 62
33 31 32 29 29 29 29 28 31 36 39 46 52 54 51 49 49 55 60 60 63 74 71 73 75 77 74 74 74 73 71 72 70 70 69 74 76 76 76 71 66 72 70 67
28 28 28 25 25 25 25 27 32 38 44 49 51 53 54 52 50 55 61 64 64 67 74 74 77 80 80 81 82 79 78 74 74 79 78 80 83 83 82 84 85 84 82 78
26 26 24 22 20 21 22 24 30 35 40 44 47 47 51 53 51 55 60 70 70 68 76 79 76 83 85 86 85 86 85 86 84 82 87 89 89 92 90 88 82 80 79 80
23 22 24 20 19 18 22 23 29 34 41 44 46 46 50 52 51 51 59 62 67 73 74 79 82 80 83 87 91 90 88 90 89 91 92 94 96 92 91 91 89 88 87 84
23 21 21 19 19 17 20 22 25 30 35 40 44 45 48 50 53 53 51 53 59 63 66 73 80 82 81 83 90 91 91 98 95 95 95 97 97 99 96 97 95 95 95 91
23 21 21 19 18 19 18 21 23 28 29 33 41 43 45 44 45 49 51 52 54 58 63 69 72 78 85 89 91 92 96 96 99 98 101 101 98 100 99 96 96 97 96 92
24 21 22 21 20 20 18 18 21 28 29 27 28 35 39 43 44 44 45 49 54 58 62 69 75 80 84 86 93 99 101 100 100 101 102 102 103 101 100 100 100 99 99 96
24 23 24 22 22 21 21 19 17 15 19 24 25 27 32 38 39 44 50 54 62 65 67 69 73 82 82 84 88 92 98 103 106 107 106 106 105 105 105 105 105 104 102 98
23 24 25 25 25 26 26 27 28 23 24 24 28 32 39 43 47 51 54 56 58 62 63 68 71 72 76 80 83 87 92 97 101 105 106 107 108 108 107 107 107 106 104 103
23 24 25 26 27 28 29 28 29 29 29 32 34 38 39 42 41 44 48 49 48 51 56 56 61 70 74 77 80 84 88 91 93 98 104 106 107 109 109 109 110 110 108 108
23 21 20 20 22 27 26 27 28 31 30 30 26 28 29 35 38 40 40 41 49 49 48 54 56 56 64 71 76 80 83 84 86 90 94 97 101 104 108 111 112 113 114 114
16 16 13 16 17 16 14 16 18 19 22 25 27 28 30 31 35 37 39 41 43 47 50 53 53 54 57 63 67 72 77 80 82 83 85 87 91 95 100 104 106 107 108 109
14 13 14 16 16 16 17 17 15 15 18 21 24 26 30 33 36 38 40 43 46 48 50 52 54 56 58 61 64 68 71 74 78 81 83 85 87 90 92 94 96 99 102 104
9 11 13 13 12 11 11 10 11 14 17 20 23 26 30 34 37 40 44 47 49 51 53 55 57 58 60 62 64 66 68 71 73 76 78 80 82 85 88 90 91 92 92 94
10 11 10 9 8 7 7 9 12 16 20 24 27 29 32 35 38 42 46 49 51 53 56 57 59 60 62 63 65 66 68 70 71 73 74 75 77 79 80 82 84 86 88 89
13 12 11 10 8 8 11 12 14 16 20 24 28 32 36 39 42 46 49 52 54 56 57 59 59 59 59 60 61 63 65 67 68 69 70 71 72 72 74 76 78 80 81 83
14 11 9 8 6 5 9 13 18 22 26 30 34 38 41 43 47 52 54 56 57 57 56 55 54 53 53 54 56 57 59 60 61 62 63 65 67 68 69 69 69 70 73 75
12 9 4 2 6 11 16 19 25 29 32 35 39 43 46 49 53 57 59 60 59 57 54 52 50 50 50 51 51 52 52 53 54 56 57 59 61 62 63 64 64 65 66 67
4 1 5 8 13 17 21 25 29 33 37 41 45 48 49 53 57 60 61 60 59 58 55 53 51 49 48 48 47 47 47 47 48 49 51 52 54 55 56 57 58 59 61 62
2 7 11 15 19 22 26 30 35 38 42 46 50 52 55 60 62 62 60 60 58 56 54 52 51 49 48 48 48 48 48 47 47 47 48 49 51 52 54 55 55 56 57 58

GFSNGP_250_spd_099.txt.gz
Wind_Speed
50 53 56 59 61 63 67 71 68 71 66 70 61 57 54 57 57 54 51 42 36 37 41 40 39 46 49 52 55 53 52 52 51 52 49 46 48 46 43 41 29 22 24 14
50 52 56 62 66 67 66 69 68 65 62 62 59 54 54 52 49 45 45 38 38 42 45 46 43 52 57 58 55 53 52 54 54 53 55 50 46 39 28 30 36 35 35 29
53 53 53 56 60 63 65 66 59 56 53 52 46 50 54 46 41 41 43 38 39 48 52 50 49 58 61 60 55 53 55 59 56 53 54 54 49 37 27 46 42 41 34 35
54 55 55 56 58 58 56 54 52 49 47 43 45 43 44 42 38 41 39 39 41 52 56 53 55 61 63 61 55 49 57 56 52 50 51 47 45 37 45 48 52 44 41 44
55 54 53 51 52 51 48 49 47 44 40 38 39 37 39 35 38 38 31 38 45 55 61 58 59 63 64 62 57 53 55 58 53 52 50 48 47 46 46 54 50 49 52 53
49 47 45 43 45 45 47 48 43 40 38 37 36 36 37 35 37 33 31 39 48 58 67 63 61 66 66 66 61 59 58 58 55 52 49 53 49 48 43 47 56 58 51 49
40 38 38 39 40 42 43 41 38 37 36 37 36 36 36 36 36 32 33 39 47 58 70 69 66 67 69 69 66 62 64 62 61 60 57 56 55 57 54 44 48 58 53 58
33 34 35 35 35 36 34 34 33 33 34 34 33 35 36 38 38 35 35 41 48 56 71 74 71 68 72 72 72 68 69 65 64 63 65 62 60 65 64 60 58 57 63 66
27 31 32 29 30 28 27 28 29 29 29 30 33 37 38 42 41 38 38 41 48 56 65 76 74 71 73 76 74 75 73 75 71 70 68 70 70 72 72 70 65 66 68 71
26 29 26 24 24 23 23 25 27 29 31 35 38 40 42 45 41 41 41 44 48 54 63 78 78 78 75 77 80 80 81 79 78 75 77 74 73 76 79 79 78 79 81 76
24 27 23 21 21 22 24 26 26 28 32 35 34 34 40 41 39 41 42 43 47 51 60 69 82 81 81 78 83 83 87 85 84 84 84 83 81 82 84 88 84 82 85 87
23 25 20 18 21 24 24 24 27 28 30 33 35 35 38 37 35 34 37 40 46 50 54 66 75 85 84 87 83 85 89 94 89 91 93 93 93 92 92 94 94 91 92 93
24 22 20 18 21 23 22 22 23 23 26 30 32 36 37 37 39 36 37 38 39 44 53 57 68 82 88 91 93 92 93 95 99 98 97 99 99 100 99 99 102 103 104 103
25 20 20 19 20 22 21 22 23 23 24 27 29 29 30 32 38 39 36 37 40 45 50 54 63 70 80 93 98 98 100 101 103 104 105 105 107 108 109 110 110 111 110 111
24 21 19 19 21 23 23 23 22 21 22 22 25 27 26 26 30 37 42 44 46 49 52 57 63 69 76 83 91 98 106 106 109 112 114 114 114 116 117 117 117 117 118 119
24 20 19 19 21 23 27 26 23 19 18 18 20 23 28 31 36 40 45 48 51 53 56 59 64 70 75 79 82 88 97 106 109 110 115 118 121 122 123 125 126 126 125 126
22 21 20 19 21 22 28 28 28 26 25 26 28 31 35 35 36 38 40 44 44 48 50 51 54 60 69 71 75 80 82 88 97 105 112 117 122 123 128 128 127 130 134 134
19 18 17 16 18 18 22 26 28 28 30 29 31 33 31 31 30 35 36 37 41 44 45 46 51 53 56 61 62 66 73 79 86 90 93 96 99 105 109 112 118 126 127 130
12 11 11 9 12 15 14 16 23 23 23 25 24 23 25 26 30 32 36 38 39 42 47 49 48 49 52 54 58 64 67 69 75 79 82 87 93 94 93 94 99 104 108 112
12 13 15 13 12 14 15 15 14 13 14 15 18 21 23 26 29 32 35 37 39 42 44 46 48 49 52 54 57 60 62 66 68 70 72 74 77 82 86 88 89 91 94 98
11 13 13 15 15 14 14 13 13 13 13 16 18 21 24 28 31 34 37 41 44 46 49 51 53 55 56 57 59 60 61 62 64 66 68 71 74 77 80 83 85 87 88 89
12 14 14 14 14 12 10 9 9 10 13 16 20 24 26 29 33 37 41 44 47 51 54 55 57 58 59 60 61 62 63 63 64 66 67 68 70 73 75 77 79 81 83 85
14 14 13 11 9 7 6 6 9 11 13 17 21 25 29 33 38 41 45 48 52 56 57 58 59 60 59 58 58 59 60 62 63 64 65 66 66 67 68 69 70 72 74 75
13 13 11 9 7 6 6 6 9 13 18 23 27 30 34 38 42 46 50 53 57 59 61 62 60 57 56 55 55 56 56 57 57 58 60 61 62 62 63 64 64 65 66 67
14 12 9 7 5 3 8 11 15 19 24 29 32 35 39 44 48 52 56 60 62 62 59 58 57 55 53 52 51 50 50 51 51 52 53 54 55 56 57 58 59 60 61 62
10 8 5 1 4 8 12 17 20 24 28 31 35 39 44 49 53 56 59 62 63 61 59 57 55 53 51 50 48 47 47 47 47 48 49 50 52 53 54 55 55 56 57 58
8 4 1 4 7 11 16 21 25 30 33 37 40 45 49 54 57 59 62 62 60 58 56 54 53 51 49 48 47 47 46 46 46 45 45 45 47 48 49 50 51 51 53 53

GFSNGP_250_spd_102.txt.gz
Wind_Speed
36 38 41 44 47 49 53 57 58 63 63 70 69 71 73 73 74 71 67 68 65 57 43 37 35 37 40 39 43 47 47 48 51 47 49 43 43 47 46 44 47 47 46 43
35 37 40 43 45 47 50 54 55 59 64 66 67 66 66 67 67 66 68 70 63 49 39 36 39 44 45 46 47 52 54 55 58 54 52 54 51 50 45 48 50 51 52 45
36 38 40 42 46 49 52 55 55 58 60 65 65 61 62 60 59 57 57 58 50 41 39 37 46 49 48 51 53 57 57 55 56 54 53 54 52 51 47 50 51 46 48 46
38 39 40 46 51 52 52 52 55 57 60 62 56 53 51 47 48 48 46 41 37 35 36 41 51 53 52 54 60 59 60 55 60 60 57 59 55 51 51 49 48 48 47 47
43 47 48 47 48 50 50 50 51 51 49 47 45 42 41 40 42 42 38 34 28 33 37 46 56 56 54 56 65 64 60 58 60 62 59 58 53 52 54 50 49 48 47 43
49 49 47 47 47 46 45 45 41 40 39 38 36 35 34 34 35 36 33 28 29 34 41 50 58 58 57 59 68 66 62 60 59 60 58 56 56 57 57 50 47 47 58 56
46 45 43 41 41 39 37 37 37 37 36 33 31 29 28 30 32 32 30 28 31 35 43 55 60 60 60 61 70 70 65 62 63 60 60 60 60 58 59 56 57 52 54 56
39 37 37 36 37 37 36 35 35 34 32 29 27 26 25 25 28 30 29 30 32 36 45 57 62 63 63 64 69 72 68 64 63 60 57 62 62 60 60 61 64 63 60 59
32 32 34 33 32 31 32 31 30 29 27 25 24 23 25 28 30 31 31 31 35 40 45 58 64 67 66 66 68 73 73 68 64 64 64 68 64 64 65 64 67 70 69 70
28 29 30 29 28 28 28 27 25 23 22 21 22 24 26 30 34 34 34 35 37 42 47 56 67 71 71 70 72 72 77 74 71 71 69 71 71 69 68 69 70 74 72 74
26 28 26 27 25 24 24 22 21 22 21 24 25 27 30 33 33 31 31 32 36 42 47 54 69 73 78 76 74 75 76 79 77 75 76 77 78 78 75 75 76 81 81 84
26 26 26 25 23 21 21 20 21 22 25 25 26 25 27 30 33 33 31 33 37 42 47 54 62 73 80 83 80 79 80 81 85 84 81 84 85 85 85 84 82 84 87 87
26 27 25 24 22 20 20 20 23 25 27 27 25 27 28 29 32 31 30 27 31 38 43 50 57 65 77 86 88 87 86 85 88 91 91 89 91 92 92 93 92 92 92 91
27 27 24 23 22 20 20 22 23 24 26 26 24 24 27 27 29 33 34 34 34 35 38 43 52 57 65 80 90 94 94 94 94 96 99 100 99 100 101 102 102 102 103 102
28 25 24 21 22 20 21 23 25 27 26 26 26 25 25 28 29 27 28 31 35 41 44 50 53 57 62 68 81 93 100 101 102 101 102 105 110 108 110 111 110 111 111 112
28 24 23 22 22 22 23 24 26 27 27 28 26 25 25 27 29 34 39 43 46 48 50 52 54 58 64 69 74 82 91 101 105 109 112 111 115 117 120 119 119 120 120 121
25 22 20 21 21 22 25 24 27 28 26 24 24 26 28 30 32 35 38 38 40 42 44 44 47 51 55 61 69 76 80 86 95 102 108 111 118 117 121 126 129 129 129 129
21 19 18 18 20 21 22 22 25 28 27 27 28 28 27 27 29 30 30 32 31 32 36 39 40 43 47 53 57 62 68 74 82 89 96 101 106 111 114 121 125 129 133 136
15 13 13 13 15 18 18 18 19 28 30 28 27 27 28 27 28 27 28 28 30 32 33 37 40 44 47 50 54 60 64 67 72 76 81 86 90 97 104 109 112 117 121 124
17 17 17 17 18 19 17 18 17 15 18 20 21 19 17 18 19 22 25 28 31 34 37 39 42 46 49 52 54 57 59 62 65 68 72 77 82 84 89 93 96 102 107 110
18 18 19 21 20 20 19 15 14 13 12 10 11 12 15 19 22 26 30 32 35 39 43 47 50 53 55 56 57 59 61 63 64 66 68 71 74 77 80 83 86 89 93 96
17 16 16 16 15 13 14 12 9 8 7 7 11 16 20 23 26 30 34 37 40 44 47 51 54 57 58 57 58 60 61 62 63 65 66 68 70 71 72 73 76 79 83 85
15 15 15 14 13 12 12 11 7 5 8 12 15 18 22 27 29 33 37 41 44 49 53 56 59 60 60 61 60 59 59 59 59 59 60 60 62 63 65 66 68 68 69 71
16 16 17 17 16 13 9 6 6 8 12 14 18 22 24 27 31 36 41 46 50 55 58 62 64 63 62 60 58 57 56 57 56 56 56 56 57 58 59 60 61 63 64 64
19 18 17 13 10 9 7 5 7 10 12 15 20 23 28 34 38 43 48 53 57 60 63 65 65 64 61 58 56 55 53 53 53 52 52 52 53 53 54 55 57 58 58 59
18 15 13 11 10 6 4 5 8 11 15 20 25 29 34 40 44 49 53 57 60 62 65 65 63 61 58 56 54 51 49 49 49 50 50 50 50 50 50 51 52 53 54 55
15 13 12 9 6 4 5 8 13 17 21 26 31 36 40 45 49 53 58 60 61 63 63 61 60 58 56 53 52 50 49 48 48 48 48 48 48 49 49 49 50 50 51 52

GFSNGP_250_spd_105.txt.gz
Wind_Speed
36 35 39 41 42 46 51 59 67 72 73 77 71 72 73 73 71 74 74 73 76 77 75 77 76 67 45 36 37 40 38 41 42 39 37 40 39 27 29 34 38 42 51 55
32 34 37 36 37 40 44 48 48 50 54 53 58 62 63 66 66 68 71 72 71 72 74 76 70 58 38 36 41 46 45 47 46 46 46 49 48 49 38 41 46 48 51 52
28 30 30 31 35 36 39 41 43 49 53 54 59 62 64 66 68 69 70 72 74 75 71 64 59 45 36 37 49 52 50 49 45 49 54 55 46 42 47 47 49 45 49 51
30 30 31 35 35 38 40 42 46 49 53 57 61 62 63 64 66 67 67 67 66 61 58 56 51 44 39 44 56 60 57 55 49 52 58 56 50 51 51 51 53 48 51 51
31 32 33 35 38 41 43 44 50 53 57 58 58 60 57 52 50 51 51 51 45 44 41 40 41 39 41 49 58 60 61 62 56 52 60 57 55 57 56 52 53 44 46 50
37 37 39 41 42 44 47 51 51 51 53 53 51 48 44 41 43 43 43 38 37 35 34 35 37 37 44 54 60 63 64 64 63 53 59 58 61 60 55 53 54 47 48 46
41 43 42 43 43 41 41 43 43 42 40 39 38 37 35 36 37 36 35 35 34 32 34 35 37 41 50 59 62 63 65 67 68 58 59 58 62 62 57 58 52 48 52 51
45 44 42 40 40 38 36 36 35 35 33 31 31 29 28 29 29 31 31 32 31 33 34 35 39 46 56 63 64 64 67 69 68 68 61 62 63 60 63 58 57 53 58 61
42 38 37 35 34 32 33 32 32 31 30 28 28 26 27 27 28 29 29 30 30 31 33 37 43 51 61 66 68 67 69 70 74 71 67 65 64 67 64 64 60 58 60 61
33 32 34 32 30 31 32 31 29 27 26 24 23 24 24 23 25 25 28 28 30 31 35 39 46 54 64 69 69 69 70 73 73 76 72 71 72 68 67 67 69 67 68 70
30 31 31 29 29 29 29 25 25 22 20 19 18 19 20 21 22 24 27 28 31 34 37 42 48 57 65 71 72 73 74 75 77 78 75 75 75 78 73 71 74 75 76 76
30 29 29 28 26 25 25 23 21 19 18 16 16 15 18 22 25 23 25 28 31 35 38 44 48 57 67 73 76 77 77 79 80 82 85 81 80 80 81 80 79 82 84 85
30 28 28 25 23 24 24 22 18 19 18 17 17 18 21 22 23 24 25 27 29 30 36 42 49 55 63 72 78 81 82 83 86 88 88 90 86 86 91 88 86 89 88 91
30 28 26 24 23 23 23 21 19 20 19 19 19 20 21 24 27 27 26 25 25 26 29 35 44 51 57 66 77 79 84 86 88 92 95 98 99 96 96 97 97 95 98 98
30 27 26 25 24 23 23 22 21 23 21 22 20 21 23 24 25 26 25 27 29 32 36 41 46 49 55 60 65 76 85 86 90 92 96 100 103 106 105 104 106 107 107 108
30 28 26 25 25 24 23 23 23 24 23 23 25 25 24 24 25 24 28 33 40 44 48 50 51 52 54 58 62 68 75 85 93 95 98 101 105 109 114 116 115 113 115 116
29 28 26 26 25 24 24 23 24 24 26 26 25 24 24 25 28 31 32 35 35 36 38 40 42 43 47 53 59 68 74 78 83 89 97 105 108 111 115 118 124 125 124 125
27 25 25 24 23 24 23 23 24 25 24 24 25 24 26 27 25 23 25 24 27 30 32 33 36 39 40 43 47 53 60 69 78 85 89 92 95 104 114 114 116 120 125 131
22 22 22 22 22 23 23 22 23 22 17 20 24 25 21 19 22 25 26 26 25 26 28 31 33 37 41 44 47 51 56 61 66 72 79 83 89 93 96 99 102 108 113 117
18 18 19 20 21 22 22 21 20 19 21 20 21 20 24 25 22 19 19 21 24 27 29 32 35 40 43 46 49 55 60 63 66 69 72 76 80 83 85 89 92 95 97 100
20 21 22 22 22 22 22 21 20 18 16 16 16 17 16 15 16 18 20 23 26 31 34 37 41 45 47 50 56 60 62 64 67 68 70 72 75 77 80 82 85 87 88 90
19 20 21 22 23 21 23 23 20 19 18 15 13 13 13 14 16 20 24 27 31 35 39 43 47 50 53 58 61 61 62 62 61 61 62 65 67 70 73 75 76 78 79 81
17 18 18 19 18 19 19 22 20 17 15 11 11 12 13 16 19 22 26 30 34 39 44 48 53 57 61 64 65 66 64 61 59 57 57 57 58 59 61 63 65 67 69 71
19 19 20 19 20 20 18 18 16 13 10 10 11 13 15 18 23 26 32 37 41 46 51 55 60 64 66 68 69 68 65 62 60 59 57 56 55 55 56 56 57 58 60 62
19 19 20 21 20 18 15 12 11 10 10 11 12 14 18 21 26 31 37 43 49 53 56 61 65 67 69 70 69 67 64 62 59 56 54 54 53 53 53 54 54 55 56 57
20 20 19 17 16 14 13 11 9 9 10 12 15 18 21 26 31 38 43 48 51 56 60 62 64 67 67 67 65 64 61 58 56 54 53 53 53 53 53 53 53 53 53 55
19 18 17 16 14 12 11 11 12 12 13 16 19 22 26 31 35 41 45 50 54 57 59 61 64 64 64 63 62 59 57 55 54 54 53 52 52 52 52 52 51 51 53 53

GFSNGP_250_spd_108.txt.gz
Wind_Speed
46 43 36 38 39 37 38 44 49 57 63 65 71 81 86 90 86 84 85 84 82 84 86 89 86 75 73 74 74 70 60 48 49 41 39 41 39 38 37 39 38 39 36 42
40 37 33 33 32 31 35 39 44 49 58 54 61 70 76 76 76 79 79 82 85 84 83 79 74 72 73 71 65 60 49 40 42 42 45 44 43 44 44 40 38 39 39 39
31 29 29 24 27 30 31 33 33 41 41 43 59 66 71 78 82 85 88 82 78 76 72 69 69 69 68 67 62 52 40 39 42 46 49 49 50 49 47 44 42 38 43 46
24 27 20 23 29 26 29 29 32 36 38 41 46 50 55 59 63 64 66 67 67 67 67 66 66 66 66 65 55 46 37 41 49 53 55 54 56 54 50 49 47 42 51 46
23 20 21 24 30 31 32 34 38 40 44 46 50 55 59 60 62 63 64 65 64 63 63 63 63 63 62 56 50 41 41 47 55 56 59 58 62 58 51 53 51 44 55 53
24 25 24 31 33 35 34 39 43 45 48 51 55 56 56 55 55 53 49 49 51 52 53 53 54 52 50 47 42 39 46 54 62 61 61 62 65 65 54 55 53 48 52 54
28 29 32 35 38 40 41 45 49 50 52 52 50 48 47 47 44 41 39 39 39 40 41 40 40 40 39 38 38 41 47 60 66 62 62 63 65 73 63 59 53 55 52 54
33 35 38 39 40 43 46 47 47 46 43 41 39 38 39 39 38 37 37 37 36 37 37 36 35 36 36 36 38 44 55 65 69 67 65 62 67 68 69 70 62 57 59 60
38 39 41 39 39 42 44 43 39 37 36 33 31 32 33 33 32 31 31 32 33 33 34 33 33 34 34 36 41 50 61 68 72 69 70 67 67 67 72 76 70 60 59 63
39 38 39 36 37 39 39 36 34 31 31 31 30 29 28 27 27 26 26 27 28 29 29 30 31 33 35 39 46 55 65 69 72 74 75 71 69 71 68 71 73 66 65 69
37 37 36 32 34 35 32 31 30 31 30 27 26 24 23 23 22 24 24 25 26 28 30 31 33 36 39 43 51 60 68 73 73 76 79 81 78 73 74 72 72 71 76 73
38 33 30 32 31 30 30 29 28 27 26 22 21 20 19 19 20 21 22 22 25 28 30 33 35 39 44 48 53 63 71 74 76 76 83 82 85 82 80 77 77 78 76 78
33 30 31 29 29 30 29 28 26 22 21 19 18 17 17 18 18 19 20 22 24 27 31 34 37 40 45 50 54 61 71 76 80 81 83 86 87 88 87 85 83 85 83 85
29 30 28 29 29 28 29 26 23 21 18 18 18 15 17 19 21 21 21 22 25 27 30 33 36 39 43 49 54 60 67 75 81 85 86 88 91 95 96 96 94 94 96 92
30 30 31 30 29 27 28 25 24 22 21 19 18 18 18 19 21 24 25 25 25 27 29 32 35 39 41 45 51 56 63 71 78 85 88 92 93 98 102 102 107 106 105 107
31 33 32 30 29 28 28 26 26 23 22 21 21 20 20 22 23 23 25 26 29 32 36 41 44 45 47 49 53 55 61 68 74 81 87 92 96 99 101 105 109 112 115 114
34 34 33 30 30 29 27 26 26 23 23 22 21 22 24 22 23 24 26 30 32 33 35 37 38 40 42 44 50 55 59 63 67 72 78 84 91 97 101 106 110 114 118 121
34 35 35 31 29 30 28 26 27 26 24 24 25 22 21 20 23 25 24 24 24 26 29 29 31 32 36 39 40 42 47 52 57 64 74 81 86 90 93 97 102 106 109 116
35 35 34 30 29 29 27 27 27 26 25 25 21 18 18 22 20 20 22 22 24 25 26 27 28 31 33 36 40 44 46 48 53 58 63 67 74 83 89 92 92 92 94 97
32 31 31 29 27 26 27 27 26 24 21 20 20 18 22 23 20 20 22 21 20 22 25 27 28 31 34 38 42 45 48 51 55 60 65 69 73 76 77 79 82 87 89 91
26 26 26 26 25 26 26 25 22 21 22 23 23 20 20 20 18 19 18 18 20 23 25 28 31 35 39 43 47 50 54 58 61 64 67 69 69 69 70 73 76 79 81 83
23 24 25 25 25 25 25 25 24 24 21 21 19 18 17 17 17 17 17 20 22 25 27 31 36 40 43 48 52 57 62 65 67 68 67 64 62 60 60 63 66 70 73 75
22 23 24 25 25 24 24 23 23 23 23 21 19 20 18 16 16 18 20 22 26 28 32 36 40 45 50 55 60 63 66 69 71 71 68 64 61 60 59 58 58 59 61 64
21 21 22 23 23 22 22 22 22 24 22 20 19 16 16 17 17 19 23 25 26 30 34 40 45 50 55 59 62 66 70 73 73 70 67 64 62 59 58 58 58 55 55 56
20 20 20 21 21 20 20 19 21 22 21 17 17 18 17 18 21 23 26 29 32 35 39 46 52 57 61 62 65 69 71 71 70 68 65 62 60 58 57 55 54 56 56 54
18 18 19 21 21 20 20 20 19 17 17 17 16 17 19 21 23 25 28 31 34 40 44 48 54 60 63 64 67 68 69 68 67 64 62 60 58 57 56 56 54 53 53 54
17 18 19 19 20 20 19 18 17 17 16 16 17 19 21 23 26 29 33 36 39 44 49 55 58 63 64 66 67 67 67 66 63 61 59 58 57 56 55 54 53 52 51 51

GFSNGP_250_spd_111.txt.gz
Wind_Speed
54 50 46 46 44 41 39 38 38 39 30 31 34 43 59 73 73 74 74 72 74 74 73 69 65 64 64 67 70 75 73 76 79 77 68 58 50 46 38 34 37 48 48 42
48 44 45 40 40 36 36 32 31 32 28 27 33 38 43 58 67 70 78 80 80 77 75 73 73 73 75 79 80 76 75 76 73 68 58 38 47 39 36 36 45 51 51 52
42 41 40 33 29 31 30 27 28 27 21 28 32 32 33 37 42 53 64 71 79 86 81 78 79 77 72 73 73 75 77 76 64 56 42 38 47 39 38 42 51 53 54 56
40 40 32 26 30 27 22 22 22 22 23 25 29 33 34 37 40 43 46 55 62 66 69 69 68 65 62 63 64 63 61 56 52 44 39 41 44 42 43 52 56 54 54 55
36 33 23 23 26 21 18 23 25 22 26 31 35 39 42 44 48 51 54 57 58 57 57 58 58 57 58 59 60 58 58 54 49 44 40 48 46 47 53 58 58 55 54 56
27 24 20 23 21 16 21 29 28 33 34 38 41 44 48 50 54 55 56 56 54 53 52 52 53 55 58 58 57 56 54 51 45 44 45 52 50 54 58 63 61 55 56 60
22 19 20 21 22 20 24 30 35 40 42 44 47 49 50 50 49 46 46 44 43 42 43 44 47 50 51 51 47 47 47 43 41 40 47 49 53 59 62 66 64 62 58 62
19 19 23 22 24 28 33 36 40 44 48 49 48 44 41 40 39 37 36 34 34 33 33 34 35 36 37 36 37 38 39 38 37 38 43 50 59 64 66 70 69 70 66 61
22 24 25 27 30 34 38 41 44 46 46 43 38 35 34 33 34 33 31 30 29 29 29 30 31 30 31 31 32 34 35 36 37 40 46 59 65 66 70 75 75 71 67 73
29 26 28 31 33 37 40 41 43 40 37 35 32 30 29 30 29 29 27 25 25 24 25 26 27 29 30 31 33 35 36 37 40 44 53 66 69 70 74 77 82 78 73 74
29 31 34 36 36 35 37 38 37 34 30 29 29 28 28 26 25 24 23 22 21 22 23 24 25 28 31 33 36 37 38 40 44 49 59 71 72 73 74 80 77 82 83 77
33 34 34 35 35 33 34 34 32 29 28 28 28 26 24 23 22 20 20 20 21 22 24 26 29 31 33 36 37 39 41 43 47 52 62 74 77 77 78 79 83 81 85 86
35 36 36 35 31 31 33 31 29 28 26 25 24 23 22 21 19 19 19 20 20 23 25 28 31 33 35 37 39 40 42 45 49 55 64 78 82 83 85 86 86 88 92 89
38 35 32 31 30 31 30 30 28 26 25 24 22 22 20 19 17 18 18 19 22 25 27 28 30 32 35 37 39 41 43 45 49 55 62 72 80 88 89 92 94 93 97 101
36 32 30 29 30 31 29 30 29 25 24 23 22 21 19 18 19 20 22 23 25 27 28 28 30 33 38 40 42 44 47 50 54 56 59 69 78 80 88 95 96 101 101 101
33 30 31 31 31 32 29 30 29 26 25 23 21 22 20 20 21 22 23 25 28 28 28 31 36 39 40 41 43 46 50 52 52 55 59 62 68 77 85 88 93 99 104 109
33 33 33 33 32 32 32 30 30 29 25 24 23 23 23 22 21 23 26 29 28 31 34 34 34 33 34 35 38 41 43 47 51 54 59 63 66 70 75 80 87 94 100 103
35 35 34 34 34 34 34 32 31 30 28 27 26 25 25 24 25 26 28 29 31 31 29 27 27 29 30 31 32 33 35 39 43 46 49 53 60 67 75 79 82 85 88 94
36 36 37 36 37 37 36 33 32 31 30 29 26 26 26 24 26 25 25 28 26 24 25 27 27 28 27 29 31 34 36 39 43 45 49 52 57 61 66 70 74 79 83 87
36 36 37 36 38 38 36 35 32 31 30 28 25 25 23 24 25 26 26 25 24 24 23 24 25 27 29 30 32 35 38 42 47 50 53 56 59 62 65 68 71 74 76 79
35 35 36 37 39 36 34 34 30 29 28 26 24 24 26 27 28 26 24 25 26 23 22 25 28 28 31 34 37 40 43 47 51 53 56 59 62 65 66 67 68 67 68 70
26 28 30 31 32 31 30 31 28 27 26 26 27 28 28 28 27 25 23 22 23 24 26 28 29 32 36 38 41 44 48 52 56 59 62 64 65 68 68 66 64 63 61 61
21 22 24 25 26 26 27 28 27 27 28 28 27 28 27 26 24 21 21 22 24 28 28 30 33 36 39 43 46 49 54 58 61 63 64 67 69 69 66 64 63 63 63 60
18 19 21 22 23 24 25 27 27 27 27 27 27 25 25 24 21 22 23 25 26 27 32 35 38 40 43 47 51 55 59 63 65 68 70 71 70 69 67 64 61 59 58 58
19 20 20 21 22 22 24 25 26 27 25 26 26 25 24 22 22 24 25 25 27 31 35 37 40 43 47 53 57 61 64 66 68 70 71 71 70 68 65 62 59 57 55 56
19 20 21 21 22 23 23 23 22 22 22 22 22 21 21 22 22 22 25 28 31 34 37 41 45 50 54 59 63 66 67 69 70 71 71 69 67 64 62 60 58 55 54 52
18 18 19 19 21 21 22 21 21 20 19 19 20 21 21 20 22 26 29 32 35 38 41 46 50 55 59 64 67 68 69 70 71 70 69 67 64 62 60 58 56 53 50 48

GFSNGP_250_spd_114.txt.gz
Wind_Speed
63 67 64 58 53 51 43 41 42 43 39 37 36 38 43 49 61 63 65 64 70 68 69 64 63 64 60 58 58 59 60 59 59 59 58 58 61 63 63 65 61 56 49 43
61 59 55 50 46 43 43 42 40 41 37 37 39 36 38 44 48 55 61 71 75 73 72 67 63 65 64 65 64 63 62 61 61 62 63 65 67 67 67 62 50 55 45 43
52 52 47 38 42 44 43 40 36 33 33 34 34 33 32 35 39 44 47 50 54 60 63 60 59 62 64 66 66 70 65 64 69 70 72 71 75 71 62 55 50 46 45 46
45 44 38 37 42 42 37 35 33 30 29 30 30 30 31 31 33 34 35 38 40 42 45 48 51 51 52 55 54 55 58 62 64 67 64 62 59 51 43 41 49 46 44 53
38 37 34 35 38 39 34 30 31 28 28 29 28 31 30 30 33 34 36 38 40 42 44 45 45 46 47 48 49 49 48 46 48 47 46 45 44 42 41 44 50 45 50 57
35 33 33 37 36 32 29 31 24 27 28 26 29 32 33 37 41 44 43 44 46 47 48 47 46 48 49 50 50 49 49 48 49 50 48 47 46 45 45 51 52 48 56 56
32 30 31 35 31 28 29 25 22 23 24 27 34 39 42 45 47 46 47 47 46 45 43 42 42 43 45 47 48 48 49 50 50 49 49 46 44 42 46 57 50 50 58 59
28 27 32 32 28 25 24 25 24 25 28 34 39 43 43 41 41 39 37 35 35 34 35 35 35 35 36 37 39 41 43 43 44 44 42 40 40 40 47 50 45 55 61 64
28 30 29 28 27 24 24 24 27 31 36 38 40 39 37 36 34 32 32 30 31 31 32 32 32 32 33 34 35 35 36 37 38 37 37 36 35 38 41 42 48 60 66 71
30 29 26 25 24 25 26 27 31 36 39 40 38 33 31 30 29 29 28 27 26 26 27 28 29 29 30 32 33 34 35 36 35 34 34 34 34 36 40 44 53 63 70 76
27 27 26 26 27 27 28 31 35 36 37 34 32 29 27 27 27 26 25 24 22 22 23 24 25 26 27 29 30 32 33 34 33 32 32 33 34 38 44 49 59 66 69 78
24 26 28 29 28 27 29 31 34 35 32 29 28 27 26 26 25 23 22 21 20 19 21 22 23 24 26 28 30 32 32 33 33 33 34 36 39 44 49 56 66 71 75 78
30 31 30 29 28 31 33 33 31 32 28 27 26 26 25 24 23 22 22 20 20 21 22 22 23 25 28 30 31 32 33 34 36 38 40 41 44 48 52 60 69 76 79 83
32 32 31 31 33 34 32 29 31 31 27 26 26 25 24 23 23 22 22 21 22 23 23 25 26 27 30 32 34 35 36 38 40 42 43 43 46 49 51 58 71 76 81 85
33 33 33 35 35 32 30 30 32 30 27 25 26 25 23 23 23 23 23 24 24 25 26 26 27 29 33 35 35 37 39 41 43 44 44 45 47 49 51 54 60 77 80 79
33 34 34 33 31 31 32 32 32 31 28 27 26 24 24 24 24 24 25 26 26 27 28 31 33 37 38 38 36 38 40 42 43 45 47 49 51 53 54 55 59 62 77 91
32 32 33 33 33 33 34 34 32 33 30 28 28 26 25 26 27 27 26 26 28 31 33 33 36 36 33 33 34 35 36 37 39 41 43 46 49 52 55 58 61 64 68 72
33 33 34 35 37 36 35 34 33 33 33 30 30 29 27 28 29 30 29 30 33 33 33 35 35 33 32 32 32 32 33 35 37 38 40 43 47 50 53 57 61 65 68 71
36 36 35 36 37 36 34 35 36 35 35 34 32 31 30 29 30 31 33 34 33 33 34 34 34 32 32 34 34 34 33 35 38 40 43 45 48 52 55 58 61 64 67 71
33 33 34 36 37 37 38 38 38 38 38 36 34 33 31 31 32 33 34 34 32 34 34 33 32 34 34 34 33 35 36 37 40 43 46 50 54 57 59 60 61 63 66 70
33 33 34 35 36 39 41 40 40 40 39 37 36 34 33 32 32 34 33 34 35 34 34 34 35 34 33 33 34 36 37 40 43 46 50 55 59 60 61 61 62 65 67 67
32 32 32 32 34 37 39 40 39 39 39 37 35 34 33 32 33 34 35 37 37 33 32 34 33 31 31 34 35 38 41 44 48 52 56 60 61 62 61 63 64 65 64 64
25 25 25 26 27 30 32 33 34 35 34 33 33 33 34 34 34 34 36 35 34 33 30 29 29 30 33 36 39 42 45 49 54 59 62 63 63 63 64 65 65 63 63 63
20 20 20 21 22 23 25 27 29 30 30 31 32 33 32 33 34 33 35 33 31 30 28 28 30 33 36 39 41 46 52 56 60 64 66 66 66 66 66 66 64 63 61 60
17 18 18 18 19 20 21 24 26 26 28 29 30 30 31 30 31 30 29 29 27 26 29 31 34 37 39 42 46 52 56 60 64 66 67 68 68 68 68 65 65 64 61 59
16 16 17 17 18 19 20 22 23 25 25 27 28 28 28 27 27 26 24 24 26 28 32 35 37 39 44 48 54 58 61 64 66 68 69 69 69 69 67 66 64 62 60 57
16 16 17 18 18 19 21 23 23 24 25 25 25 26 26 25 23 21 23 26 29 34 36 39 41 45 50 54 58 62 65 68 69 69 70 70 69 68 67 65 62 61 58 55

GFSNGP_250_spd_117.txt.gz
Wind_Speed
86 82 79 73 72 74 69 59 57 52 46 45 49 47 46 44 44 46 51 55 56 64 63 65 68 67 67 61 54 52 62 60 64 62 68 68 69 70 70 73 69 67 67 67
75 74 73 70 67 65 62 55 49 45 44 46 46 46 43 42 44 47 51 56 61 73 71 72 67 65 67 69 63 66 63 59 61 62 67 68 66 65 66 70 70 72 69 68
69 68 67 61 58 57 52 48 43 41 44 46 44 43 42 41 41 44 50 56 64 65 70 67 69 65 65 63 61 60 61 63 66 63 61 59 59 63 65 64 66 67 67 61
65 62 56 49 48 48 47 42 40 39 43 42 41 39 39 40 38 38 42 47 51 58 64 63 62 66 69 70 69 59 60 64 66 68 65 63 64 64 64 63 64 64 64 65
50 49 43 39 42 44 42 36 37 42 40 38 37 37 37 34 35 34 35 38 40 45 47 48 50 50 49 49 49 46 44 46 48 49 48 49 52 53 56 58 58 59 56 54
43 40 34 40 41 39 35 34 40 37 35 35 35 35 34 34 34 35 37 39 41 44 46 46 44 44 44 44 45 46 46 45 44 45 44 45 45 45 45 46 47 47 47 49
38 34 33 38 37 34 34 39 33 32 31 31 31 31 33 36 36 37 40 42 40 41 43 45 46 45 45 45 45 46 46 47 48 49 48 47 46 46 46 46 47 49 51 53
33 30 35 39 32 32 34 33 27 28 30 31 32 32 33 35 38 41 41 40 39 39 38 38 39 38 38 39 39 40 40 42 42 43 44 45 44 45 44 43 43 45 48 54
30 34 34 31 29 32 30 28 29 30 31 31 32 34 36 37 37 35 35 33 32 32 33 33 33 34 35 35 36 36 35 36 36 36 36 36 37 36 36 37 38 40 44 47
30 32 31 30 31 29 29 30 31 28 29 32 34 36 35 36 32 30 28 29 30 30 30 30 30 30 31 31 31 31 32 32 33 33 33 33 34 34 34 35 36 37 39 42
31 30 29 31 30 28 28 26 27 29 31 33 34 34 31 28 27 27 25 25 25 24 25 24 25 25 25 25 26 27 29 30 32 32 33 34 34 34 35 34 35 36 41 46
28 30 32 31 30 29 26 27 30 30 29 33 35 31 28 25 25 24 24 22 21 21 20 20 20 21 22 23 24 25 27 29 30 32 33 35 35 36 37 38 39 42 46 51
30 31 31 31 29 27 28 31 30 29 31 33 32 28 25 24 24 24 22 21 21 19 19 20 21 22 23 25 26 28 29 30 32 34 37 38 38 39 39 41 42 44 48 51
31 31 29 28 29 30 30 30 30 32 30 31 29 25 24 24 24 23 22 21 22 22 22 23 24 26 28 31 32 33 34 35 37 38 39 40 39 40 41 42 43 45 49 50
29 29 31 31 31 32 32 33 32 31 29 32 29 25 25 25 24 23 23 23 25 26 27 28 28 31 33 35 36 38 37 38 40 42 43 43 44 45 45 46 47 49 52 53
32 32 33 33 34 35 34 34 32 29 30 32 31 27 26 26 26 25 25 26 28 30 30 31 31 33 37 38 41 39 38 39 41 43 43 45 46 46 46 48 49 50 52 54
32 34 35 34 35 36 36 34 32 31 31 32 32 29 27 28 27 27 28 29 31 32 33 35 36 37 37 39 40 37 36 37 38 39 40 42 43 45 46 47 49 51 54 57
36 36 37 37 36 36 36 35 35 34 33 33 32 32 30 29 30 30 30 32 34 35 36 39 38 37 36 39 39 36 36 34 35 36 36 38 40 40 40 43 45 48 51 54
35 35 36 37 37 38 38 38 37 37 36 34 33 33 33 32 32 32 33 34 37 38 40 42 40 38 40 40 38 35 34 34 36 37 37 38 39 40 44 47 50 53 56 59
34 36 37 38 38 38 38 38 38 37 37 36 36 35 36 36 35 35 35 36 38 41 42 42 40 40 39 41 39 35 35 36 37 37 38 39 42 46 49 52 56 58 59 60
33 34 36 37 38 38 39 40 40 40 39 39 39 38 39 39 38 38 38 39 41 41 42 40 40 39 38 39 35 36 37 37 38 39 41 44 47 52 55 58 60 62 63 63
31 32 34 35 37 39 40 41 42 42 41 41 40 40 41 41 40 40 40 40 41 41 39 39 41 38 39 36 34 35 36 38 40 43 46 49 53 57 60 62 64 65 65 65
29 30 30 30 31 32 34 36 38 40 40 41 42 43 41 41 42 43 41 40 39 39 39 40 37 35 35 33 34 37 38 40 43 46 51 54 59 63 65 67 67 66 66 66
25 24 24 25 26 27 27 29 31 32 35 38 39 39 39 40 41 40 39 38 37 37 38 38 34 32 33 35 38 39 41 43 48 52 57 61 64 66 66 66 66 66 66 65
22 22 21 22 23 24 24 25 26 27 30 33 34 34 34 35 36 36 36 35 34 34 33 31 30 32 35 38 40 42 45 49 54 58 62 65 66 66 67 67 68 67 66 65
19 19 19 20 21 22 23 23 24 25 27 28 29 30 30 31 32 32 31 33 35 33 30 31 33 36 37 41 43 46 51 55 59 63 66 66 67 68 68 68 67 67 66 65
18 18 18 18 19 19 21 22 24 25 26 26 27 27 28 29 30 30 31 30 29 30 33 34 36 38 41 43 47 51 55 59 63 66 67 68 69 70 68 67 67 66 65 63

GFSNGP_250_spd_120.txt.gz
Wind_Speed
101 95 91 84 80 78 73 72 71 68 73 61 60 59 61 62 58 53 49 46 48 49 51 61 60 60 49 50 48 56 58 57 52 48 53 53 55 58 59 56 57 59 61 59
90 84 81 76 70 67 68 67 68 68 65 60 57 56 57 56 52 48 47 46 48 49 51 56 58 59 57 52 57 61 61 59 56 50 53 58 62 58 59 59 61 61 66 68
80 77 77 72 67 71 70 67 66 64 61 58 54 51 49 49 48 45 45 46 45 46 49 52 56 60 57 60 59 60 58 57 56 59 59 55 57 62 67 67 65 62 67 71
74 72 75 69 64 67 63 61 59 58 56 52 47 46 44 46 44 44 43 40 40 43 46 49 56 59 59 60 61 65 65 62 62 64 63 63 63 61 65 66 67 63 65 70
71 67 65 58 60 60 55 51 49 49 48 45 42 42 44 41 42 40 37 38 39 40 41 45 48 51 56 59 63 63 61 68 67 62 57 54 55 57 62 62 61 62 65 67
63 63 55 51 56 52 46 39 48 44 40 39 41 40 37 39 37 35 36 36 37 38 41 42 44 45 46 49 52 54 54 53 53 54 55 54 53 50 49 51 53 55 57 60
52 47 44 50 51 46 39 44 39 35 36 37 35 35 33 33 33 36 38 39 41 44 46 47 47 48 49 50 52 52 53 54 56 57 56 55 53 50 48 49 51 53 54 56
45 41 44 49 43 42 40 36 34 35 34 32 32 30 29 31 35 39 40 42 43 42 42 42 42 42 42 43 44 44 47 47 47 47 47 47 47 47 47 48 49 51 52 55
38 40 42 40 37 35 32 31 31 30 30 29 27 27 30 34 38 40 40 40 40 37 36 36 35 35 36 37 36 36 36 37 37 37 39 40 40 40 41 42 43 44 47 50
35 37 36 35 31 31 29 29 28 28 27 26 28 31 35 35 38 39 38 34 33 33 33 33 33 33 33 33 33 33 32 33 33 34 36 37 37 37 37 38 38 39 40 41
33 32 30 28 26 26 27 26 25 25 26 28 31 32 35 35 36 35 31 30 30 31 30 29 28 28 29 29 29 30 30 30 31 32 33 34 34 35 36 37 38 38 39 40
27 27 29 28 27 26 25 25 25 27 28 29 31 34 34 34 32 29 28 27 27 27 26 23 24 25 25 25 26 28 28 28 28 29 31 33 34 36 37 38 40 40 41 42
27 28 26 26 25 25 25 26 27 28 28 30 33 33 32 30 28 26 25 25 24 22 22 22 22 23 24 25 25 25 26 27 29 31 33 35 36 38 40 41 42 43 43 43
27 26 25 25 27 28 29 30 30 28 29 32 33 33 31 29 25 25 25 23 22 21 22 22 22 24 25 27 28 29 31 32 33 34 36 38 39 40 42 43 45 44 45 46
25 26 27 28 29 30 30 30 29 28 30 32 33 32 32 28 24 24 25 24 23 23 24 24 24 26 28 30 33 34 34 36 37 38 40 43 44 45 46 46 47 48 49 49
26 27 28 30 31 32 31 30 30 32 34 34 33 32 33 29 26 26 25 25 25 25 26 27 29 30 31 33 35 37 38 39 40 40 42 45 47 47 48 48 49 49 48 48
28 30 30 31 32 31 31 33 34 34 35 35 34 33 32 32 30 28 27 27 27 27 29 31 32 33 35 38 39 39 38 40 39 39 40 42 43 44 45 45 45 45 47 48
28 30 31 32 34 35 35 36 36 37 37 36 35 34 34 34 34 32 31 30 31 30 32 33 34 36 39 39 39 40 40 41 41 40 41 41 43 43 43 44 45 45 47 49
31 32 33 34 36 37 39 39 39 39 39 38 37 37 36 35 35 35 35 34 34 34 35 36 37 39 42 42 42 41 39 42 43 43 42 40 41 42 42 42 43 46 49 51
33 34 36 36 38 39 39 40 40 41 41 40 39 38 38 38 37 37 38 38 37 38 38 39 40 42 44 44 43 41 42 42 43 43 41 42 43 41 42 45 48 51 54 56
33 34 35 36 38 39 40 41 42 43 42 41 40 41 40 40 39 39 40 42 41 40 40 41 43 44 44 43 42 43 41 44 44 42 41 41 42 44 47 50 53 56 58 62
33 33 33 36 38 39 40 40 41 42 43 42 42 42 42 41 41 42 43 44 44 43 43 44 45 45 44 44 42 40 41 42 42 41 41 42 44 48 52 54 57 61 63 64
30 31 33 36 39 40 41 43 44 44 45 45 45 44 44 45 44 44 45 45 45 45 45 45 44 44 44 42 43 43 41 41 41 42 43 46 49 53 56 60 63 64 65 65
29 30 31 31 32 33 34 35 37 38 40 41 42 43 43 44 46 46 46 45 46 45 44 44 43 42 41 39 38 38 40 41 42 44 47 50 54 57 62 64 65 66 66 66
27 26 25 25 26 27 28 29 30 32 33 34 36 37 39 41 42 42 42 41 42 41 41 41 41 40 40 40 41 41 41 42 44 48 51 54 58 61 63 64 66 67 66 67
23 22 22 22 23 24 25 25 27 28 30 31 32 33 34 35 36 36 37 38 38 39 40 40 39 40 41 42 41 40 42 44 48 51 55 57 60 62 64 66 66 67 67 66
21 20 20 20 21 22 23 24 25 26 28 30 31 31 31 32 33 34 35 37 38 39 38 38 38 39 39 39 40 42 44 48 51 54 56 59 61 63 65 66 67 67 65 65

GFSNGP_250_spd_123.txt.gz
Wind_Speed
112 113 111 108 107 102 95 88 90 77 77 72 67 67 72 68 66 63 62 60 58 53 48 46 48 47 47 47 47 50 54 53 55 57 54 50 50 50 48 49 48 49 51 52
108 109 109 104 94 85 85 83 79 77 67 68 66 67 72 69 65 62 59 58 55 50 45 45 46 47 48 47 48 51 53 57 55 58 59 52 48 52 52 52 56 53 53 54
103 102 101 94 83 79 77 76 75 73 68 64 67 68 66 63 62 59 55 53 49 44 44 43 42 43 44 45 44 50 56 55 54 58 54 52 53 55 53 49 49 54 61 62
95 96 94 82 76 75 77 74 74 67 62 62 63 62 58 57 55 52 51 47 44 43 41 38 38 39 41 42 43 43 52 53 51 56 54 55 52 51 51 54 55 57 62 68
98 94 86 67 73 75 75 69 66 64 59 57 56 53 50 50 46 46 44 42 42 39 37 35 36 36 37 38 39 41 44 50 53 56 59 60 61 60 58 57 57 59 59 67
90 86 72 61 64 70 71 56 66 57 51 50 48 46 47 43 42 39 40 40 37 35 35 35 35 36 37 38 39 40 41 43 45 50 56 60 59 58 57 55 53 50 50 53
83 70 57 54 60 62 58 53 52 49 46 44 43 41 39 37 37 38 36 34 35 35 37 38 40 41 42 43 43 43 44 45 45 46 47 49 51 51 50 49 49 49 51 52
71 62 52 53 50 50 46 47 44 43 41 40 39 37 33 35 35 32 31 32 35 37 39 42 44 44 44 42 41 41 41 43 45 46 48 49 52 53 52 52 52 53 55 57
55 49 45 46 47 43 41 40 37 37 37 35 33 32 33 31 29 29 31 34 37 40 41 40 40 39 36 35 35 34 34 35 36 38 40 42 43 44 46 46 46 46 47 49
43 42 42 41 39 36 34 35 34 34 32 30 30 31 29 27 27 29 32 36 39 40 38 34 33 32 32 32 32 31 31 31 32 33 35 37 39 40 40 41 41 42 42 43
36 36 33 32 33 32 31 30 29 29 29 29 28 26 26 27 29 31 34 36 36 35 32 30 29 30 29 28 27 27 26 26 27 28 31 33 34 36 37 38 40 42 43 43
31 29 29 29 30 28 28 28 29 29 28 25 24 24 26 29 30 31 34 33 30 28 28 27 27 27 26 24 23 24 23 24 25 26 28 30 32 35 36 38 40 43 44 44
27 27 26 25 25 26 26 26 26 24 22 22 24 26 27 29 30 31 31 28 27 25 25 25 25 24 22 22 23 23 23 24 25 26 28 31 34 36 37 40 42 44 45 45
24 24 24 25 25 26 25 24 21 20 22 24 26 27 28 30 30 30 28 27 25 23 23 23 23 23 24 24 25 26 26 27 28 30 32 34 36 38 40 42 44 46 47 47
24 25 25 24 24 23 22 22 22 23 25 27 29 29 29 31 30 30 27 27 26 23 23 23 23 23 24 25 26 28 31 31 33 34 35 38 39 42 45 46 48 48 48 49
23 23 23 23 22 22 22 22 24 26 29 31 30 30 31 33 32 30 28 26 26 25 24 24 25 26 26 27 29 32 34 35 36 38 38 39 40 41 42 45 47 48 48 48
22 21 22 22 23 24 26 28 29 31 32 32 31 33 34 34 34 32 31 29 27 27 27 27 28 28 28 29 31 34 36 37 38 39 39 40 42 42 43 44 45 46 48 47
20 22 23 25 26 28 29 31 32 33 33 34 34 35 36 36 35 34 34 33 31 30 30 30 30 32 32 32 35 37 37 38 39 39 40 41 44 44 44 46 47 46 46 47
22 23 26 28 29 30 31 33 35 36 37 37 37 38 38 38 38 37 37 36 36 35 34 34 34 35 36 36 38 40 40 41 41 40 41 43 44 45 46 47 46 47 48 50
25 27 29 30 32 34 35 36 37 38 39 40 41 42 41 40 40 40 40 39 38 39 39 39 39 39 40 40 41 43 44 45 43 43 43 44 46 47 47 47 46 47 47 49
27 29 31 32 33 33 34 36 39 40 41 42 42 42 42 43 43 42 42 41 42 42 42 43 43 44 45 44 45 47 48 48 47 45 46 45 47 48 47 46 46 48 51 53
28 30 30 30 30 33 36 39 40 41 42 43 43 43 44 44 44 44 44 44 44 45 45 46 47 47 48 48 49 50 50 49 49 47 47 49 50 49 47 47 49 52 55 57
29 31 32 32 33 36 38 40 41 42 43 43 44 45 45 44 46 47 47 47 48 48 48 49 50 50 50 50 50 51 50 49 47 47 47 48 47 47 47 50 54 56 59 62
30 31 31 32 33 35 37 39 41 42 43 44 44 44 46 46 47 48 49 49 50 51 52 52 51 51 52 51 50 49 47 47 48 48 49 47 47 48 51 55 57 60 63 66
28 28 29 29 29 29 30 31 33 33 34 36 37 39 40 41 43 45 46 48 49 50 49 48 49 50 50 48 47 48 48 47 48 47 46 46 48 51 55 58 61 64 66 66
26 27 26 25 25 25 25 26 27 28 29 31 32 34 35 37 39 40 42 43 43 44 44 45 46 47 46 46 46 47 47 47 46 45 46 49 51 55 58 62 64 66 65 64
25 25 24 23 23 23 22 23 24 25 26 27 28 30 32 33 35 36 38 39 40 41 42 43 43 44 44 44 45 45 44 43 43 46 49 52 55 59 62 64 65 64 64 62

GFSNGP_250_spd_126.txt.gz
Wind_Speed
111 111 114 115 116 115 115 116 118 108 107 96 103 92 88 84 80 77 77 72 69 62 60 58 54 50 46 44 44 42 40 43 44 48 49 52 52 52 53 57 57 53 52 50
115 117 119 121 119 118 120 119 115 106 93 99 92 87 82 81 74 73 71 71 71 62 56 53 49 44 42 42 43 44 42 42 45 46 51 50 54 57 53 55 57 54 58 57
121 122 125 126 118 121 119 111 107 100 91 87 83 83 77 74 71 70 68 67 63 59 51 48 43 40 41 43 43 43 42 43 43 46 49 54 55 60 59 57 58 63 58 62
127 127 130 124 120 117 112 104 96 89 81 81 80 78 72 70 67 66 62 60 57 52 47 42 39 39 41 40 38 38 37 38 40 44 47 52 54 57 57 57 55 63 66 62
130 123 119 117 108 100 95 85 83 83 78 75 78 73 65 66 61 57 55 54 48 44 40 39 38 39 36 34 34 33 33 34 35 37 41 46 53 56 57 57 54 54 52 52
114 111 103 95 93 86 86 65 75 79 77 75 71 61 59 59 52 49 48 45 41 39 36 38 38 35 32 32 31 32 33 34 35 36 36 38 42 48 53 55 55 56 58 59
102 98 90 85 78 75 70 68 64 69 70 68 61 56 52 48 44 42 41 39 37 36 37 36 34 33 32 32 32 33 35 36 38 39 41 41 40 41 42 43 46 48 49 48
85 79 72 74 71 71 69 59 59 61 59 57 53 48 44 40 37 37 36 34 35 36 32 31 32 33 35 35 35 34 33 34 35 36 38 40 42 44 42 42 42 43 44 46
71 69 69 66 66 64 58 56 53 47 47 47 43 39 36 34 33 31 31 33 32 29 29 31 33 36 36 36 33 31 30 29 30 31 32 34 36 38 41 42 43 45 45 46
63 59 61 61 60 56 55 52 45 43 42 39 35 33 32 30 29 30 30 28 27 28 31 33 35 35 34 31 30 30 29 27 27 27 29 31 33 36 38 40 42 42 44 45
51 55 53 51 51 51 51 46 42 40 34 32 31 29 28 28 28 27 25 25 27 31 33 34 32 31 30 30 30 28 26 23 22 23 24 26 28 31 33 35 37 39 41 43
46 45 43 41 40 41 38 37 34 29 28 29 28 27 28 27 24 24 25 26 29 32 33 32 30 29 29 29 27 25 22 21 22 22 23 24 26 29 31 34 36 38 41 43
40 37 34 33 32 32 30 28 24 26 27 27 27 27 27 24 24 25 25 27 30 32 29 28 28 27 26 25 24 22 21 21 22 24 25 26 29 31 34 36 38 39 41 44
32 31 27 27 27 26 24 24 26 25 26 26 27 25 24 24 25 25 26 29 29 28 26 26 27 26 24 24 23 23 23 24 25 27 28 31 32 33 35 37 39 42 45 47
28 24 23 23 23 23 24 25 26 26 25 25 24 23 24 25 26 27 29 29 27 26 26 25 26 25 24 24 24 24 25 26 27 30 32 35 37 37 38 40 42 45 47 49
22 22 22 21 21 23 25 26 26 26 26 25 24 25 25 26 28 30 30 30 28 28 26 26 26 26 26 25 25 25 26 28 30 33 35 37 38 40 41 42 44 46 49 50
21 21 21 23 24 25 25 25 25 26 27 26 25 27 28 29 31 32 31 31 30 30 29 28 27 28 28 27 28 28 29 31 33 35 37 38 39 41 42 45 47 49 51 51
20 21 22 23 23 23 24 26 27 28 28 28 29 30 31 33 34 34 33 33 33 33 33 32 31 30 31 31 32 32 33 35 37 39 41 41 42 43 43 45 48 51 52 52
21 21 22 23 24 25 26 27 28 30 31 33 33 33 35 36 36 36 36 37 37 37 36 36 36 35 35 35 35 36 38 39 41 43 45 46 46 46 46 47 50 53 53 54
21 23 24 26 27 28 29 31 32 34 35 36 38 39 40 40 39 39 40 41 41 41 41 41 40 40 40 41 41 41 42 43 45 46 48 49 49 50 50 52 53 54 55 56
22 23 25 26 27 29 31 32 34 35 37 39 40 41 41 41 42 42 43 43 44 45 45 45 45 45 45 45 45 46 47 48 50 51 52 53 54 54 53 53 54 54 53 53
20 21 23 25 26 28 30 32 34 36 38 39 40 41 42 42 43 43 44 45 47 48 49 49 48 49 49 48 49 50 51 52 54 55 56 55 55 55 55 54 54 55 55 54
21 23 25 26 28 30 32 34 36 38 39 40 41 42 43 44 45 45 46 47 49 50 50 51 52 52 52 52 53 54 54 56 57 56 55 55 55 55 54 54 54 54 54 54
22 25 27 29 30 31 33 34 36 38 40 42 42 44 45 45 46 47 49 50 51 52 52 53 54 55 55 55 55 55 56 56 56 55 54 54 54 54 54 54 53 53 55 57
26 29 29 29 29 30 31 33 35 36 36 37 39 40 40 42 43 45 46 47 49 50 51 52 53 53 53 52 52 53 54 54 53 53 54 54 54 53 52 52 53 55 58 60
25 27 29 28 27 27 28 27 28 29 30 31 33 34 35 37 38 40 41 43 44 45 46 47 48 48 48 49 50 50 51 50 51 52 51 51 51 51 52 54 56 58 61 62
25 24 26 28 27 26 25 25 25 25 26 27 28 30 32 33 34 36 37 38 39 41 42 43 44 45 46 47 47 48 48 48 49 49 49 50 50 52 54 57 59 60 61 61

GFSNGP_250_spd_129.txt.gz
Wind_Speed
119 118 120 118 116 114 113 113 115 111 115 112 116 119 122 112 114 121 117 109 99 95 90 85 77 67 62 57 56 54 54 50 47 44 41 43 42 43 45 46 43 46 49 53
122 119 121 123 118 114 118 115 117 119 117 114 118 121 122 121 121 118 106 97 94 91 84 77 71 64 60 56 53 50 47 45 43 41 39 43 44 45 47 49 49 48 50 56
128 127 127 128 113 122 121 119 120 122 119 116 121 124 122 123 118 105 96 92 89 82 77 70 64 58 55 51 47 43 41 41 42 42 41 42 45 46 49 50 52 56 54 54
131 130 133 125 122 122 122 122 121 124 123 121 124 123 122 114 102 96 92 88 81 75 69 62 54 52 49 44 41 39 40 41 41 40 38 38 42 47 50 53 55 55 57 58
136 135 133 131 124 125 127 121 120 125 124 123 119 108 105 97 91 88 83 74 69 64 57 51 48 46 43 38 37 39 40 39 37 36 35 35 37 42 47 51 56 61 60 63
134 133 131 124 125 126 122 112 120 117 112 107 97 95 90 87 84 75 67 63 58 53 47 43 43 39 37 37 38 39 37 36 36 35 35 35 35 36 40 45 47 55 59 62
123 123 120 116 117 110 110 103 99 100 95 89 87 83 80 74 70 61 57 53 49 43 40 39 36 35 36 37 37 34 32 34 35 37 39 40 40 39 39 39 42 45 50 57
106 108 105 104 102 98 96 95 91 86 83 79 78 73 69 64 58 54 49 45 40 38 36 33 33 34 35 33 33 33 34 35 35 35 36 37 38 39 39 40 41 42 43 44
88 90 88 86 82 83 83 79 77 74 71 68 65 60 58 56 53 46 41 38 36 33 31 32 32 30 30 32 34 34 32 30 29 29 30 32 32 34 35 37 39 41 41 43
77 72 73 75 71 69 68 66 67 62 59 56 52 51 49 47 43 38 35 33 31 30 30 29 28 28 32 33 32 30 28 27 27 28 28 29 30 32 34 36 37 39 41 42
63 63 65 64 61 60 57 57 55 52 50 46 46 43 41 39 35 32 31 29 28 28 27 26 28 30 32 31 28 27 26 26 27 28 28 27 27 29 30 33 35 37 39 40
55 54 54 54 53 50 50 49 47 44 42 39 37 33 34 32 30 29 27 28 27 25 24 26 29 31 30 28 26 26 26 26 27 24 23 23 24 25 28 30 33 35 37 40
45 48 49 46 46 44 43 41 40 37 34 29 30 31 29 27 28 26 28 27 24 24 25 27 30 30 28 27 26 25 25 26 24 23 23 24 25 27 29 30 32 35 37 40
44 43 40 39 38 36 35 33 29 26 27 29 29 27 25 27 27 28 27 25 24 25 25 28 29 27 26 25 25 25 25 24 23 24 25 27 28 30 32 34 35 37 40 43
33 34 33 32 30 30 28 26 25 27 27 25 24 24 25 26 28 27 26 26 26 26 27 29 27 26 26 26 25 25 25 24 25 26 27 28 30 33 35 36 38 41 44 46
28 28 27 27 27 24 23 22 23 23 23 24 25 26 26 27 27 26 27 28 28 28 29 30 28 26 25 26 26 27 27 27 28 29 30 31 33 34 36 38 40 41 43 46
23 23 23 23 21 21 22 22 23 23 24 26 27 28 28 28 27 28 29 30 30 31 31 31 30 29 28 28 28 28 30 31 32 33 34 35 36 38 41 43 43 44 46 47
19 20 21 21 21 22 23 24 25 26 27 28 28 30 31 30 30 31 32 32 33 34 34 34 33 32 32 32 32 33 33 34 36 37 39 40 41 43 45 47 48 49 50 51
20 20 21 22 23 24 26 26 27 28 29 29 31 32 33 34 34 34 34 34 36 38 39 37 37 37 37 37 38 39 39 40 40 41 43 44 46 48 49 51 53 54 54 55
20 21 22 23 24 26 28 29 30 31 31 32 34 35 37 38 38 38 38 39 41 42 42 42 41 41 42 42 43 44 44 46 46 46 47 49 50 52 54 55 57 57 58 59
20 20 22 24 26 27 29 30 32 33 34 36 37 38 40 41 41 42 43 45 45 45 45 45 45 45 46 47 48 49 50 50 50 51 52 53 55 57 59 60 60 60 60 60
21 23 24 26 27 28 29 30 32 33 35 36 38 39 40 42 43 44 44 46 46 47 47 48 49 49 50 51 52 53 53 53 54 55 56 57 59 62 62 61 61 61 60 59
19 19 21 22 24 26 28 29 31 33 35 38 40 41 42 43 44 45 46 47 48 49 50 51 51 52 54 55 56 57 58 58 58 59 60 61 62 62 60 60 59 59 60 59
17 19 21 23 25 27 28 29 30 32 35 38 41 42 43 44 44 45 47 48 49 51 52 53 54 55 56 57 58 58 59 60 60 60 60 60 60 59 58 58 59 58 58 58
18 20 24 26 27 28 27 28 30 32 33 34 36 39 41 42 43 45 46 47 48 51 52 53 54 55 56 55 56 56 56 56 56 57 57 57 57 57 57 57 57 57 58 58
20 22 25 28 30 29 28 28 28 29 31 31 32 33 34 36 38 39 41 42 43 45 46 47 48 49 49 50 51 51 52 53 53 54 54 55 55 55 55 55 56 57 56 57
23 24 25 26 28 29 28 27 26 26 27 28 29 30 31 32 33 35 36 38 39 41 42 43 44 46 46 47 48 49 50 51 51 52 53 54 54 54 54 55 56 56 57 58